Wetterdaten: Freitag, 27.05.2022
Datum Zeit Temp. 2m Temp +5 cm Feuchte A. Luftdruck Regen Wind Richtung Richtung Sonnenschein UV Solar Taupunkt Windchill Windben
27.05.2022 00:00 13,7 C 12,8 C 79 % 1023,1 hPa 0,0 l/m 11,3 km/h (2 Bft) S-SW 202 0 min 0,0 UV-I 0 W/m 10,1 C 11,1 C 16,1 km/h (3 Bft)
27.05.2022 00:01 13,7 C 12,8 C 79 % 1023,1 hPa 0,0 l/m 11,3 km/h (2 Bft) S-SW 202 0 min 0,0 UV-I 0 W/m 10,1 C 11,1 C 16,1 km/h (3 Bft)
27.05.2022 00:02 13,6 C 12,8 C 79 % 1023,1 hPa 0,0 l/m 9,7 km/h (2 Bft) W-SW 247 0 min 0,0 UV-I 0 W/m 10,0 C 11,7 C 17,7 km/h (3 Bft)
27.05.2022 00:03 13,6 C 12,8 C 79 % 1023,1 hPa 0,0 l/m 16,1 km/h (3 Bft) SW 225 0 min 0,0 UV-I 0 W/m 10,0 C 9,1 C 22,5 km/h (4 Bft)
27.05.2022 00:04 13,6 C 12,8 C 79 % 1023,1 hPa 0,0 l/m 12,9 km/h (3 Bft) S-SW 202 0 min 0,0 UV-I 0 W/m 10,0 C 10,3 C 19,3 km/h (3 Bft)
27.05.2022 00:05 13,6 C 12,8 C 79 % 1023,1 hPa 0,0 l/m 16,1 km/h (3 Bft) S-SW 202 0 min 0,0 UV-I 0 W/m 10,0 C 9,1 C 24,1 km/h (4 Bft)
27.05.2022 00:06 13,6 C 12,8 C 79 % 1023,1 hPa 0,0 l/m 12,9 km/h (3 Bft) S-SW 202 0 min 0,0 UV-I 0 W/m 10,0 C 10,3 C 20,9 km/h (4 Bft)
27.05.2022 00:07 13,6 C 12,8 C 79 % 1023,1 hPa 0,0 l/m 11,3 km/h (2 Bft) SW 225 0 min 0,0 UV-I 0 W/m 10,0 C 11,0 C 20,9 km/h (4 Bft)
27.05.2022 00:08 13,6 C 12,8 C 80 % 1023,1 hPa 0,0 l/m 9,7 km/h (2 Bft) SW 225 0 min 0,0 UV-I 0 W/m 10,2 C 11,7 C 12,9 km/h (3 Bft)
27.05.2022 00:09 13,6 C 12,8 C 80 % 1023,1 hPa 0,0 l/m 8,0 km/h (2 Bft) SW 225 0 min 0,0 UV-I 0 W/m 10,2 C 12,6 C 11,3 km/h (2 Bft)
27.05.2022 00:10 13,6 C 12,8 C 80 % 1023,1 hPa 0,0 l/m 11,3 km/h (2 Bft) S-SW 202 0 min 0,0 UV-I 0 W/m 10,2 C 11,0 C 14,5 km/h (3 Bft)
27.05.2022 00:11 13,6 C 12,8 C 80 % 1023,1 hPa 0,0 l/m 12,9 km/h (3 Bft) SW 225 0 min 0,0 UV-I 0 W/m 10,2 C 10,3 C 22,5 km/h (4 Bft)
27.05.2022 00:12 13,5 C 12,8 C 80 % 1023,1 hPa 0,0 l/m 9,7 km/h (2 Bft) SW 225 0 min 0,0 UV-I 0 W/m 10,1 C 11,6 C 14,5 km/h (3 Bft)
27.05.2022 00:13 13,6 C 12,8 C 80 % 1023,1 hPa 0,0 l/m 11,3 km/h (2 Bft) S 180 0 min 0,0 UV-I 0 W/m 10,2 C 11,0 C 16,1 km/h (3 Bft)
27.05.2022 00:14 13,5 C 12,8 C 80 % 1023,2 hPa 0,0 l/m 11,3 km/h (2 Bft) S-SW 202 0 min 0,0 UV-I 0 W/m 10,1 C 10,9 C 16,1 km/h (3 Bft)
27.05.2022 00:15 13,5 C 12,8 C 80 % 1023,2 hPa 0,0 l/m 9,7 km/h (2 Bft) S 180 0 min 0,0 UV-I 0 W/m 10,1 C 11,6 C 14,5 km/h (3 Bft)
27.05.2022 00:16 13,5 C 12,8 C 80 % 1023,1 hPa 0,0 l/m 12,9 km/h (3 Bft) S 180 0 min 0,0 UV-I 0 W/m 10,1 C 10,2 C 17,7 km/h (3 Bft)
27.05.2022 00:17 13,5 C 12,8 C 80 % 1023,2 hPa 0,0 l/m 8,0 km/h (2 Bft) SW 225 0 min 0,0 UV-I 0 W/m 10,1 C 12,5 C 16,1 km/h (3 Bft)
27.05.2022 00:18 13,5 C 12,8 C 80 % 1023,2 hPa 0,0 l/m 11,3 km/h (2 Bft) S-SW 202 0 min 0,0 UV-I 0 W/m 10,1 C 10,9 C 17,7 km/h (3 Bft)
27.05.2022 00:19 13,4 C 12,8 C 80 % 1023,1 hPa 0,0 l/m 12,9 km/h (3 Bft) SW 225 0 min 0,0 UV-I 0 W/m 10,0 C 10,1 C 19,3 km/h (3 Bft)
27.05.2022 00:20 13,5 C 12,8 C 80 % 1023,1 hPa 0,0 l/m 14,5 km/h (3 Bft) W 270 0 min 0,0 UV-I 0 W/m 10,1 C 9,6 C 22,5 km/h (4 Bft)
27.05.2022 00:21 13,5 C 12,8 C 80 % 1023,1 hPa 0,0 l/m 9,7 km/h (2 Bft) S-SW 202 0 min 0,0 UV-I 0 W/m 10,1 C 11,6 C 16,1 km/h (3 Bft)
27.05.2022 00:22 13,5 C 12,8 C 80 % 1023,1 hPa 0,0 l/m 8,0 km/h (2 Bft) SW 225 0 min 0,0 UV-I 0 W/m 10,1 C 12,5 C 14,5 km/h (3 Bft)
27.05.2022 00:23 13,6 C 12,8 C 80 % 1023,2 hPa 0,0 l/m 9,7 km/h (2 Bft) S-SW 202 0 min 0,0 UV-I 0 W/m 10,2 C 11,7 C 12,9 km/h (3 Bft)
27.05.2022 00:24 13,5 C 12,8 C 80 % 1023,1 hPa 0,0 l/m 11,3 km/h (2 Bft) S-SW 202 0 min 0,0 UV-I 0 W/m 10,1 C 10,9 C 17,7 km/h (3 Bft)
27.05.2022 00:25 13,5 C 12,8 C 80 % 1023,1 hPa 0,0 l/m 12,9 km/h (3 Bft) SW 225 0 min 0,0 UV-I 0 W/m 10,1 C 10,2 C 17,7 km/h (3 Bft)
27.05.2022 00:26 13,5 C 12,8 C 80 % 1023,2 hPa 0,0 l/m 8,0 km/h (2 Bft) SW 225 0 min 0,0 UV-I 0 W/m 10,1 C 12,5 C 14,5 km/h (3 Bft)
27.05.2022 00:27 13,5 C 12,8 C 80 % 1023,2 hPa 0,0 l/m 9,7 km/h (2 Bft) S-SW 202 0 min 0,0 UV-I 0 W/m 10,1 C 11,6 C 12,9 km/h (3 Bft)
27.05.2022 00:28 13,5 C 12,8 C 80 % 1023,2 hPa 0,0 l/m 12,9 km/h (3 Bft) S-SW 202 0 min 0,0 UV-I 0 W/m 10,1 C 10,2 C 17,7 km/h (3 Bft)
27.05.2022 00:29 13,5 C 12,8 C 80 % 1023,2 hPa 0,0 l/m 11,3 km/h (2 Bft) SW 225 0 min 0,0 UV-I 0 W/m 10,1 C 10,9 C 17,7 km/h (3 Bft)
27.05.2022 00:30 13,5 C 12,8 C 80 % 1023,2 hPa 0,0 l/m 4,8 km/h (1 Bft) SW 225 0 min 0,0 UV-I 0 W/m 10,1 C 13,5 C 6,4 km/h (2 Bft)
27.05.2022 00:31 13,5 C 12,8 C 80 % 1023,2 hPa 0,0 l/m 11,3 km/h (2 Bft) S-SW 202 0 min 0,0 UV-I 0 W/m 10,1 C 10,9 C 14,5 km/h (3 Bft)
27.05.2022 00:32 13,5 C 12,8 C 80 % 1023,2 hPa 0,0 l/m 8,0 km/h (2 Bft) S-SW 202 0 min 0,0 UV-I 0 W/m 10,1 C 12,5 C 11,3 km/h (2 Bft)
27.05.2022 00:33 13,5 C 12,8 C 80 % 1023,2 hPa 0,0 l/m 8,0 km/h (2 Bft) W-SW 247 0 min 0,0 UV-I 0 W/m 10,1 C 12,5 C 16,1 km/h (3 Bft)
27.05.2022 00:34 13,5 C 12,8 C 80 % 1023,2 hPa 0,0 l/m 9,7 km/h (2 Bft) SW 225 0 min 0,0 UV-I 0 W/m 10,1 C 11,6 C 14,5 km/h (3 Bft)
27.05.2022 00:35 13,5 C 12,8 C 80 % 1023,2 hPa 0,0 l/m 9,7 km/h (2 Bft) SW 225 0 min 0,0 UV-I 0 W/m 10,1 C 11,6 C 20,9 km/h (4 Bft)
27.05.2022 00:36 13,4 C 12,8 C 80 % 1023,2 hPa 0,0 l/m 6,4 km/h (2 Bft) SW 225 0 min 0,0 UV-I 0 W/m 10,0 C 13,4 C 14,5 km/h (3 Bft)
27.05.2022 00:37 13,5 C 12,8 C 80 % 1023,2 hPa 0,0 l/m 11,3 km/h (2 Bft) S-SW 202 0 min 0,0 UV-I 0 W/m 10,1 C 10,9 C 16,1 km/h (3 Bft)
27.05.2022 00:38 13,4 C 12,8 C 80 % 1023,2 hPa 0,0 l/m 9,7 km/h (2 Bft) SW 225 0 min 0,0 UV-I 0 W/m 10,0 C 11,5 C 16,1 km/h (3 Bft)
27.05.2022 00:39 13,4 C 12,8 C 80 % 1023,2 hPa 0,0 l/m 6,4 km/h (2 Bft) SW 225 0 min 0,0 UV-I 0 W/m 10,0 C 13,4 C 11,3 km/h (2 Bft)
27.05.2022 00:40 13,5 C 12,8 C 80 % 1023,3 hPa 0,0 l/m 6,4 km/h (2 Bft) SW 225 0 min 0,0 UV-I 0 W/m 10,1 C 13,5 C 9,7 km/h (2 Bft)
27.05.2022 00:41 13,4 C 12,8 C 80 % 1023,3 hPa 0,0 l/m 6,4 km/h (2 Bft) SW 225 0 min 0,0 UV-I 0 W/m 10,0 C 13,4 C 9,7 km/h (2 Bft)
27.05.2022 00:42 13,4 C 12,8 C 80 % 1023,3 hPa 0,0 l/m 8,0 km/h (2 Bft) W-SW 247 0 min 0,0 UV-I 0 W/m 10,0 C 12,4 C 16,1 km/h (3 Bft)
27.05.2022 00:43 13,4 C 12,8 C 80 % 1023,3 hPa 0,0 l/m 11,3 km/h (2 Bft) S-SW 202 0 min 0,0 UV-I 0 W/m 10,0 C 10,7 C 17,7 km/h (3 Bft)
27.05.2022 00:44 13,4 C 12,8 C 80 % 1023,3 hPa 0,0 l/m 11,3 km/h (2 Bft) SW 225 0 min 0,0 UV-I 0 W/m 10,0 C 10,7 C 17,7 km/h (3 Bft)
27.05.2022 00:45 13,4 C 12,8 C 80 % 1023,3 hPa 0,0 l/m 9,7 km/h (2 Bft) SW 225 0 min 0,0 UV-I 0 W/m 10,0 C 11,5 C 16,1 km/h (3 Bft)
27.05.2022 00:46 13,4 C 12,8 C 80 % 1023,3 hPa 0,0 l/m 11,3 km/h (2 Bft) S-SW 202 0 min 0,0 UV-I 0 W/m 10,0 C 10,7 C 16,1 km/h (3 Bft)
27.05.2022 00:47 13,4 C 12,8 C 80 % 1023,3 hPa 0,0 l/m 14,5 km/h (3 Bft) S-SW 202 0 min 0,0 UV-I 0 W/m 10,0 C 9,4 C 19,3 km/h (3 Bft)
27.05.2022 00:48 13,4 C 12,8 C 80 % 1023,2 hPa 0,0 l/m 12,9 km/h (3 Bft) SW 225 0 min 0,0 UV-I 0 W/m 10,0 C 10,1 C 19,3 km/h (3 Bft)
27.05.2022 00:49 13,4 C 12,8 C 80 % 1023,3 hPa 0,0 l/m 12,9 km/h (3 Bft) S-SW 202 0 min 0,0 UV-I 0 W/m 10,0 C 10,1 C 19,3 km/h (3 Bft)
27.05.2022 00:50 13,4 C 12,8 C 80 % 1023,3 hPa 0,0 l/m 16,1 km/h (3 Bft) SW 225 0 min 0,0 UV-I 0 W/m 10,0 C 8,9 C 30,6 km/h (5 Bft)
27.05.2022 00:51 13,4 C 12,8 C 80 % 1023,3 hPa 0,0 l/m 12,9 km/h (3 Bft) SW 225 0 min 0,0 UV-I 0 W/m 10,0 C 10,1 C 30,6 km/h (5 Bft)
27.05.2022 00:52 13,3 C 12,8 C 80 % 1023,2 hPa 0,0 l/m 11,3 km/h (2 Bft) SW 225 0 min 0,0 UV-I 0 W/m 9,9 C 10,6 C 24,1 km/h (4 Bft)
27.05.2022 00:53 13,3 C 12,8 C 80 % 1023,3 hPa 0,0 l/m 14,5 km/h (3 Bft) S-SW 202 0 min 0,0 UV-I 0 W/m 9,9 C 9,3 C 20,9 km/h (4 Bft)
27.05.2022 00:54 13,4 C 12,8 C 80 % 1023,3 hPa 0,0 l/m 12,9 km/h (3 Bft) SW 225 0 min 0,0 UV-I 0 W/m 10,0 C 10,1 C 17,7 km/h (3 Bft)
27.05.2022 00:55 13,3 C 12,8 C 80 % 1023,3 hPa 0,0 l/m 14,5 km/h (3 Bft) W-SW 247 0 min 0,0 UV-I 0 W/m 9,9 C 9,3 C 24,1 km/h (4 Bft)
27.05.2022 00:56 13,3 C 12,8 C 80 % 1023,3 hPa 0,0 l/m 12,9 km/h (3 Bft) SW 225 0 min 0,0 UV-I 0 W/m 9,9 C 9,9 C 19,3 km/h (3 Bft)
27.05.2022 00:57 13,3 C 12,8 C 80 % 1023,2 hPa 0,0 l/m 12,9 km/h (3 Bft) W-SW 247 0 min 0,0 UV-I 0 W/m 9,9 C 9,9 C 24,1 km/h (4 Bft)
27.05.2022 00:58 13,3 C 12,8 C 80 % 1023,2 hPa 0,0 l/m 12,9 km/h (3 Bft) W-SW 247 0 min 0,0 UV-I 0 W/m 9,9 C 9,9 C 20,9 km/h (4 Bft)
27.05.2022 00:59 13,3 C 12,8 C 80 % 1023,2 hPa 0,0 l/m 14,5 km/h (3 Bft) SW 225 0 min 0,0 UV-I 0 W/m 9,9 C 9,3 C 17,7 km/h (3 Bft)
27.05.2022 01:00 13,3 C 12,8 C 80 % 1023,3 hPa 0,0 l/m 9,7 km/h (2 Bft) SW 225 0 min 0,0 UV-I 0 W/m 9,9 C 11,4 C 17,7 km/h (3 Bft)
27.05.2022 01:01 13,3 C 12,8 C 80 % 1023,3 hPa 0,0 l/m 11,3 km/h (2 Bft) W-SW 247 0 min 0,0 UV-I 0 W/m 9,9 C 10,6 C 16,1 km/h (3 Bft)
27.05.2022 01:02 13,3 C 12,8 C 80 % 1023,3 hPa 0,0 l/m 9,7 km/h (2 Bft) W 270 0 min 0,0 UV-I 0 W/m 9,9 C 11,4 C 12,9 km/h (3 Bft)
27.05.2022 01:03 13,3 C 12,8 C 80 % 1023,3 hPa 0,0 l/m 9,7 km/h (2 Bft) SW 225 0 min 0,0 UV-I 0 W/m 9,9 C 11,4 C 12,9 km/h (3 Bft)
27.05.2022 01:04 13,3 C 12,8 C 80 % 1023,3 hPa 0,0 l/m 8,0 km/h (2 Bft) W-SW 247 0 min 0,0 UV-I 0 W/m 9,9 C 12,3 C 12,9 km/h (3 Bft)
27.05.2022 01:05 13,3 C 12,8 C 80 % 1023,3 hPa 0,0 l/m 8,0 km/h (2 Bft) S 180 0 min 0,0 UV-I 0 W/m 9,9 C 12,3 C 12,9 km/h (3 Bft)
27.05.2022 01:06 13,3 C 12,8 C 80 % 1023,3 hPa 0,0 l/m 6,4 km/h (2 Bft) SW 225 0 min 0,0 UV-I 0 W/m 9,9 C 13,3 C 11,3 km/h (2 Bft)
27.05.2022 01:07 13,2 C 12,8 C 80 % 1023,2 hPa 0,0 l/m 14,5 km/h (3 Bft) W-SW 247 0 min 0,0 UV-I 0 W/m 9,8 C 9,2 C 22,5 km/h (4 Bft)
27.05.2022 01:08 13,2 C 12,8 C 80 % 1023,2 hPa 0,0 l/m 14,5 km/h (3 Bft) W-SW 247 0 min 0,0 UV-I 0 W/m 9,8 C 9,2 C 20,9 km/h (4 Bft)
27.05.2022 01:09 13,2 C 12,8 C 80 % 1023,3 hPa 0,0 l/m 11,3 km/h (2 Bft) W-SW 247 0 min 0,0 UV-I 0 W/m 9,8 C 10,5 C 17,7 km/h (3 Bft)
27.05.2022 01:10 13,2 C 12,8 C 80 % 1023,4 hPa 0,0 l/m 11,3 km/h (2 Bft) W-SW 247 0 min 0,0 UV-I 0 W/m 9,8 C 10,5 C 17,7 km/h (3 Bft)
27.05.2022 01:11 13,2 C 12,8 C 80 % 1023,2 hPa 0,0 l/m 16,1 km/h (3 Bft) W-SW 247 0 min 0,0 UV-I 0 W/m 9,8 C 8,6 C 24,1 km/h (4 Bft)
27.05.2022 01:12 13,2 C 12,8 C 80 % 1023,2 hPa 0,0 l/m 9,7 km/h (2 Bft) W-SW 247 0 min 0,0 UV-I 0 W/m 9,8 C 11,3 C 19,3 km/h (3 Bft)
27.05.2022 01:13 13,2 C 12,8 C 80 % 1023,2 hPa 0,0 l/m 9,7 km/h (2 Bft) SW 225 0 min 0,0 UV-I 0 W/m 9,8 C 11,3 C 17,7 km/h (3 Bft)
27.05.2022 01:14 13,2 C 12,8 C 80 % 1023,2 hPa 0,0 l/m 16,1 km/h (3 Bft) W-SW 247 0 min 0,0 UV-I 0 W/m 9,8 C 8,6 C 24,1 km/h (4 Bft)
27.05.2022 01:15 13,1 C 12,8 C 80 % 1023,2 hPa 0,0 l/m 20,9 km/h (4 Bft) W-SW 247 0 min 0,0 UV-I 0 W/m 9,7 C 7,0 C 30,6 km/h (5 Bft)
27.05.2022 01:16 13,2 C 12,8 C 80 % 1023,2 hPa 0,0 l/m 16,1 km/h (3 Bft) SW 225 0 min 0,0 UV-I 0 W/m 9,8 C 8,6 C 24,1 km/h (4 Bft)
27.05.2022 01:17 13,1 C 12,8 C 80 % 1023,2 hPa 0,0 l/m 17,7 km/h (3 Bft) W-SW 247 0 min 0,0 UV-I 0 W/m 9,7 C 8,0 C 27,4 km/h (4 Bft)
27.05.2022 01:18 13,1 C 12,8 C 80 % 1023,2 hPa 0,0 l/m 14,5 km/h (3 Bft) SW 225 0 min 0,0 UV-I 0 W/m 9,7 C 9,1 C 29,0 km/h (5 Bft)
27.05.2022 01:19 13,1 C 12,8 C 80 % 1023,1 hPa 0,0 l/m 16,1 km/h (3 Bft) W-SW 247 0 min 0,0 UV-I 0 W/m 9,7 C 8,5 C 20,9 km/h (4 Bft)
27.05.2022 01:20 13,1 C 12,8 C 80 % 1023,2 hPa 0,0 l/m 14,5 km/h (3 Bft) W-SW 247 0 min 0,0 UV-I 0 W/m 9,7 C 9,1 C 24,1 km/h (4 Bft)
27.05.2022 01:21 13,1 C 12,8 C 80 % 1023,1 hPa 0,0 l/m 11,3 km/h (2 Bft) W-SW 247 0 min 0,0 UV-I 0 W/m 9,7 C 10,4 C 17,7 km/h (3 Bft)
27.05.2022 01:22 13,1 C 12,8 C 80 % 1023,1 hPa 0,0 l/m 8,0 km/h (2 Bft) S-SW 202 0 min 0,0 UV-I 0 W/m 9,7 C 12,1 C 14,5 km/h (3 Bft)
27.05.2022 01:23 13,1 C 12,8 C 80 % 1023,1 hPa 0,0 l/m 9,7 km/h (2 Bft) S-SW 202 0 min 0,0 UV-I 0 W/m 9,7 C 11,2 C 16,1 km/h (3 Bft)
27.05.2022 01:24 13,1 C 12,8 C 80 % 1023,1 hPa 0,0 l/m 19,3 km/h (3 Bft) SW 225 0 min 0,0 UV-I 0 W/m 9,7 C 7,5 C 24,1 km/h (4 Bft)
27.05.2022 01:25 13,1 C 12,8 C 80 % 1023,1 hPa 0,0 l/m 11,3 km/h (2 Bft) W-SW 247 0 min 0,0 UV-I 0 W/m 9,7 C 10,4 C 19,3 km/h (3 Bft)
27.05.2022 01:26 13,1 C 12,8 C 80 % 1023,0 hPa 0,0 l/m 6,4 km/h (2 Bft) W-SW 247 0 min 0,0 UV-I 0 W/m 9,7 C 13,1 C 14,5 km/h (3 Bft)
27.05.2022 01:27 13,0 C 12,8 C 80 % 1023,2 hPa 0,0 l/m 9,7 km/h (2 Bft) SW 225 0 min 0,0 UV-I 0 W/m 9,6 C 11,1 C 14,5 km/h (3 Bft)
27.05.2022 01:28 13,0 C 12,8 C 80 % 1023,1 hPa 0,0 l/m 16,1 km/h (3 Bft) SW 225 0 min 0,0 UV-I 0 W/m 9,6 C 8,4 C 30,6 km/h (5 Bft)
27.05.2022 01:29 13,0 C 12,8 C 80 % 1023,0 hPa 0,0 l/m 14,5 km/h (3 Bft) W-SW 247 0 min 0,0 UV-I 0 W/m 9,6 C 9,0 C 24,1 km/h (4 Bft)
27.05.2022 01:30 12,9 C 12,8 C 80 % 1023,0 hPa 0,0 l/m 16,1 km/h (3 Bft) SW 225 0 min 0,0 UV-I 0 W/m 9,5 C 8,3 C 22,5 km/h (4 Bft)
27.05.2022 01:31 12,9 C 12,8 C 80 % 1023,1 hPa 0,0 l/m 12,9 km/h (3 Bft) SW 225 0 min 0,0 UV-I 0 W/m 9,5 C 9,5 C 20,9 km/h (4 Bft)
27.05.2022 01:32 12,9 C 12,2 C 80 % 1022,9 hPa 0,0 l/m 17,7 km/h (3 Bft) SW 225 0 min 0,0 UV-I 0 W/m 9,5 C 7,7 C 25,7 km/h (4 Bft)
27.05.2022 01:33 12,9 C 12,2 C 80 % 1023,0 hPa 0,0 l/m 19,3 km/h (3 Bft) SW 225 0 min 0,0 UV-I 0 W/m 9,5 C 7,2 C 32,2 km/h (5 Bft)
27.05.2022 01:34 12,9 C 12,2 C 80 % 1023,0 hPa 0,0 l/m 14,5 km/h (3 Bft) W-SW 247 0 min 0,0 UV-I 0 W/m 9,5 C 8,8 C 32,2 km/h (5 Bft)
27.05.2022 01:35 12,9 C 12,2 C 80 % 1023,0 hPa 0,0 l/m 12,9 km/h (3 Bft) SW 225 0 min 0,0 UV-I 0 W/m 9,5 C 9,5 C 20,9 km/h (4 Bft)
27.05.2022 01:36 12,9 C 12,2 C 80 % 1023,0 hPa 0,0 l/m 12,9 km/h (3 Bft) SW 225 0 min 0,0 UV-I 0 W/m 9,5 C 9,5 C 22,5 km/h (4 Bft)
27.05.2022 01:37 12,9 C 12,2 C 80 % 1023,1 hPa 0,0 l/m 9,7 km/h (2 Bft) W-SW 247 0 min 0,0 UV-I 0 W/m 9,5 C 11,0 C 17,7 km/h (3 Bft)
27.05.2022 01:38 12,9 C 12,2 C 80 % 1023,1 hPa 0,0 l/m 11,3 km/h (2 Bft) SW 225 0 min 0,0 UV-I 0 W/m 9,5 C 10,2 C 16,1 km/h (3 Bft)
27.05.2022 01:39 12,9 C 12,2 C 80 % 1023,1 hPa 0,0 l/m 8,0 km/h (2 Bft) W-SW 247 0 min 0,0 UV-I 0 W/m 9,5 C 11,9 C 14,5 km/h (3 Bft)
27.05.2022 01:40 12,9 C 12,2 C 80 % 1023,2 hPa 0,0 l/m 4,8 km/h (1 Bft) W-SW 247 0 min 0,0 UV-I 0 W/m 9,5 C 12,9 C 12,9 km/h (3 Bft)
27.05.2022 01:41 12,9 C 12,2 C 80 % 1023,1 hPa 0,0 l/m 14,5 km/h (3 Bft) W-SW 247 0 min 0,0 UV-I 0 W/m 9,5 C 8,8 C 20,9 km/h (4 Bft)
27.05.2022 01:42 12,9 C 12,2 C 80 % 1023,1 hPa 0,0 l/m 9,7 km/h (2 Bft) W-SW 247 0 min 0,0 UV-I 0 W/m 9,5 C 11,0 C 16,1 km/h (3 Bft)
27.05.2022 01:43 12,9 C 12,2 C 80 % 1023,1 hPa 0,0 l/m 14,5 km/h (3 Bft) W-SW 247 0 min 0,0 UV-I 0 W/m 9,5 C 8,8 C 19,3 km/h (3 Bft)
27.05.2022 01:44 12,8 C 12,2 C 80 % 1023,0 hPa 0,0 l/m 12,9 km/h (3 Bft) W-SW 247 0 min 0,0 UV-I 0 W/m 9,4 C 9,4 C 17,7 km/h (3 Bft)
27.05.2022 01:45 12,8 C 12,2 C 80 % 1023,1 hPa 0,0 l/m 11,3 km/h (2 Bft) SW 225 0 min 0,0 UV-I 0 W/m 9,4 C 10,1 C 20,9 km/h (4 Bft)
27.05.2022 01:46 12,8 C 12,2 C 80 % 1023,1 hPa 0,0 l/m 12,9 km/h (3 Bft) W-SW 247 0 min 0,0 UV-I 0 W/m 9,4 C 9,4 C 19,3 km/h (3 Bft)
27.05.2022 01:47 12,8 C 12,2 C 80 % 1023,1 hPa 0,0 l/m 12,9 km/h (3 Bft) W-SW 247 0 min 0,0 UV-I 0 W/m 9,4 C 9,4 C 24,1 km/h (4 Bft)
27.05.2022 01:48 12,8 C 12,2 C 80 % 1023,1 hPa 0,0 l/m 8,0 km/h (2 Bft) W-SW 247 0 min 0,0 UV-I 0 W/m 9,4 C 11,8 C 14,5 km/h (3 Bft)
27.05.2022 01:49 12,8 C 12,2 C 80 % 1023,0 hPa 0,0 l/m 11,3 km/h (2 Bft) SW 225 0 min 0,0 UV-I 0 W/m 9,4 C 10,1 C 22,5 km/h (4 Bft)
27.05.2022 01:50 12,8 C 12,2 C 80 % 1023,1 hPa 0,0 l/m 17,7 km/h (3 Bft) S-SW 202 0 min 0,0 UV-I 0 W/m 9,4 C 7,6 C 25,7 km/h (4 Bft)
27.05.2022 01:51 12,8 C 12,2 C 81 % 1023,1 hPa 0,0 l/m 16,1 km/h (3 Bft) W 270 0 min 0,0 UV-I 0 W/m 9,6 C 8,1 C 29,0 km/h (5 Bft)
27.05.2022 01:52 12,8 C 12,2 C 80 % 1023,1 hPa 0,0 l/m 17,7 km/h (3 Bft) SW 225 0 min 0,0 UV-I 0 W/m 9,4 C 7,6 C 24,1 km/h (4 Bft)
27.05.2022 01:53 12,7 C 12,2 C 81 % 1023,1 hPa 0,0 l/m 8,0 km/h (2 Bft) W-SW 247 0 min 0,0 UV-I 0 W/m 9,5 C 11,7 C 12,9 km/h (3 Bft)
27.05.2022 01:54 12,7 C 12,2 C 81 % 1023,0 hPa 0,0 l/m 12,9 km/h (3 Bft) SW 225 0 min 0,0 UV-I 0 W/m 9,5 C 9,2 C 29,0 km/h (5 Bft)
27.05.2022 01:55 12,7 C 12,2 C 81 % 1023,1 hPa 0,0 l/m 16,1 km/h (3 Bft) W-SW 247 0 min 0,0 UV-I 0 W/m 9,5 C 8,0 C 24,1 km/h (4 Bft)
27.05.2022 01:56 12,7 C 12,2 C 81 % 1023,1 hPa 0,0 l/m 14,5 km/h (3 Bft) SW 225 0 min 0,0 UV-I 0 W/m 9,5 C 8,6 C 19,3 km/h (3 Bft)
27.05.2022 01:57 12,7 C 12,2 C 81 % 1023,0 hPa 0,0 l/m 11,3 km/h (2 Bft) SW 225 0 min 0,0 UV-I 0 W/m 9,5 C 9,9 C 17,7 km/h (3 Bft)
27.05.2022 01:58 12,7 C 12,2 C 81 % 1023,0 hPa 0,0 l/m 16,1 km/h (3 Bft) W-SW 247 0 min 0,0 UV-I 0 W/m 9,5 C 8,0 C 30,6 km/h (5 Bft)
27.05.2022 01:59 12,7 C 12,2 C 81 % 1023,0 hPa 0,0 l/m 8,0 km/h (2 Bft) SW 225 0 min 0,0 UV-I 0 W/m 9,5 C 11,7 C 16,1 km/h (3 Bft)
27.05.2022 02:00 12,6 C 12,2 C 81 % 1023,0 hPa 0,0 l/m 11,3 km/h (2 Bft) SW 225 0 min 0,0 UV-I 0 W/m 9,4 C 9,8 C 20,9 km/h (4 Bft)
27.05.2022 02:01 12,7 C 12,2 C 81 % 1023,0 hPa 0,0 l/m 11,3 km/h (2 Bft) SW 225 0 min 0,0 UV-I 0 W/m 9,5 C 9,9 C 19,3 km/h (3 Bft)
27.05.2022 02:02 12,6 C 12,2 C 81 % 1022,9 hPa 0,0 l/m 11,3 km/h (2 Bft) W-SW 247 0 min 0,0 UV-I 0 W/m 9,4 C 9,8 C 19,3 km/h (3 Bft)
27.05.2022 02:03 12,6 C 12,2 C 81 % 1022,9 hPa 0,0 l/m 12,9 km/h (3 Bft) S-SW 202 0 min 0,0 UV-I 0 W/m 9,4 C 9,1 C 17,7 km/h (3 Bft)
27.05.2022 02:04 12,6 C 12,2 C 81 % 1022,9 hPa 0,0 l/m 14,5 km/h (3 Bft) SW 225 0 min 0,0 UV-I 0 W/m 9,4 C 8,5 C 20,9 km/h (4 Bft)
27.05.2022 02:05 12,6 C 12,2 C 81 % 1022,9 hPa 0,0 l/m 14,5 km/h (3 Bft) S-SW 202 0 min 0,0 UV-I 0 W/m 9,4 C 8,5 C 20,9 km/h (4 Bft)
27.05.2022 02:06 12,6 C 12,2 C 81 % 1022,8 hPa 0,0 l/m 12,9 km/h (3 Bft) SW 225 0 min 0,0 UV-I 0 W/m 9,4 C 9,1 C 20,9 km/h (4 Bft)
27.05.2022 02:07 12,6 C 12,2 C 81 % 1022,7 hPa 0,0 l/m 11,3 km/h (2 Bft) SW 225 0 min 0,0 UV-I 0 W/m 9,4 C 9,8 C 16,1 km/h (3 Bft)
27.05.2022 02:08 12,5 C 12,2 C 81 % 1022,8 hPa 0,0 l/m 9,7 km/h (2 Bft) W-SW 247 0 min 0,0 UV-I 0 W/m 9,3 C 10,5 C 17,7 km/h (3 Bft)
27.05.2022 02:09 12,5 C 12,2 C 81 % 1022,8 hPa 0,0 l/m 14,5 km/h (3 Bft) S-SW 202 0 min 0,0 UV-I 0 W/m 9,3 C 8,4 C 27,4 km/h (4 Bft)
27.05.2022 02:10 12,5 C 12,2 C 81 % 1022,7 hPa 0,0 l/m 20,9 km/h (4 Bft) W-SW 247 0 min 0,0 UV-I 0 W/m 9,3 C 6,3 C 30,6 km/h (5 Bft)
27.05.2022 02:11 12,5 C 12,2 C 81 % 1022,7 hPa 0,0 l/m 11,3 km/h (2 Bft) SW 225 0 min 0,0 UV-I 0 W/m 9,3 C 9,7 C 17,7 km/h (3 Bft)
27.05.2022 02:12 12,4 C 12,2 C 81 % 1022,8 hPa 0,0 l/m 16,1 km/h (3 Bft) S-SW 202 0 min 0,0 UV-I 0 W/m 9,2 C 7,6 C 29,0 km/h (5 Bft)
27.05.2022 02:13 12,4 C 12,2 C 81 % 1022,7 hPa 0,0 l/m 12,9 km/h (3 Bft) W 270 0 min 0,0 UV-I 0 W/m 9,2 C 8,9 C 17,7 km/h (3 Bft)
27.05.2022 02:14 12,4 C 11,7 C 81 % 1022,7 hPa 0,0 l/m 14,5 km/h (3 Bft) W-SW 247 0 min 0,0 UV-I 0 W/m 9,2 C 8,2 C 24,1 km/h (4 Bft)
27.05.2022 02:15 12,4 C 11,7 C 81 % 1022,7 hPa 0,0 l/m 12,9 km/h (3 Bft) W-SW 247 0 min 0,0 UV-I 0 W/m 9,2 C 8,9 C 20,9 km/h (4 Bft)
27.05.2022 02:16 12,4 C 11,7 C 81 % 1022,6 hPa 0,0 l/m 14,5 km/h (3 Bft) S-SW 202 0 min 0,0 UV-I 0 W/m 9,2 C 8,2 C 24,1 km/h (4 Bft)
27.05.2022 02:17 12,4 C 11,7 C 81 % 1022,7 hPa 0,0 l/m 14,5 km/h (3 Bft) SW 225 0 min 0,0 UV-I 0 W/m 9,2 C 8,2 C 22,5 km/h (4 Bft)
27.05.2022 02:18 12,3 C 11,7 C 81 % 1022,7 hPa 0,0 l/m 14,5 km/h (3 Bft) SW 225 0 min 0,0 UV-I 0 W/m 9,1 C 8,1 C 25,7 km/h (4 Bft)
27.05.2022 02:19 12,3 C 11,7 C 81 % 1022,7 hPa 0,0 l/m 9,7 km/h (2 Bft) SW 225 0 min 0,0 UV-I 0 W/m 9,1 C 10,3 C 20,9 km/h (4 Bft)
27.05.2022 02:20 12,3 C 11,7 C 81 % 1022,6 hPa 0,0 l/m 16,1 km/h (3 Bft) SW 225 0 min 0,0 UV-I 0 W/m 9,1 C 7,5 C 27,4 km/h (4 Bft)
27.05.2022 02:21 12,3 C 11,7 C 82 % 1022,7 hPa 0,0 l/m 14,5 km/h (3 Bft) SW 225 0 min 0,0 UV-I 0 W/m 9,3 C 8,1 C 19,3 km/h (3 Bft)
27.05.2022 02:22 12,3 C 11,7 C 82 % 1022,6 hPa 0,0 l/m 16,1 km/h (3 Bft) SW 225 0 min 0,0 UV-I 0 W/m 9,3 C 7,5 C 22,5 km/h (4 Bft)
27.05.2022 02:23 12,2 C 11,7 C 82 % 1022,7 hPa 0,0 l/m 20,9 km/h (4 Bft) SW 225 0 min 0,0 UV-I 0 W/m 9,2 C 5,9 C 25,7 km/h (4 Bft)
27.05.2022 02:24 12,2 C 11,7 C 82 % 1022,7 hPa 0,0 l/m 14,5 km/h (3 Bft) W 270 0 min 0,0 UV-I 0 W/m 9,2 C 8,0 C 25,7 km/h (4 Bft)
27.05.2022 02:25 12,2 C 11,7 C 82 % 1022,7 hPa 0,0 l/m 11,3 km/h (2 Bft) SW 225 0 min 0,0 UV-I 0 W/m 9,2 C 9,4 C 16,1 km/h (3 Bft)
27.05.2022 02:26 12,2 C 11,7 C 82 % 1022,7 hPa 0,0 l/m 14,5 km/h (3 Bft) W-SW 247 0 min 0,0 UV-I 0 W/m 9,2 C 8,0 C 22,5 km/h (4 Bft)
27.05.2022 02:27 12,2 C 11,7 C 82 % 1022,7 hPa 0,0 l/m 14,5 km/h (3 Bft) S-SW 202 0 min 0,0 UV-I 0 W/m 9,2 C 8,0 C 24,1 km/h (4 Bft)
27.05.2022 02:28 12,2 C 11,7 C 83 % 1022,7 hPa 0,0 l/m 11,3 km/h (2 Bft) W-SW 247 0 min 0,0 UV-I 0 W/m 9,4 C 9,4 C 16,1 km/h (3 Bft)
27.05.2022 02:29 12,1 C 11,7 C 83 % 1022,7 hPa 0,0 l/m 11,3 km/h (2 Bft) SW 225 0 min 0,0 UV-I 0 W/m 9,3 C 9,3 C 19,3 km/h (3 Bft)
27.05.2022 02:30 12,1 C 11,7 C 83 % 1022,7 hPa 0,0 l/m 4,8 km/h (1 Bft) W-SW 247 0 min 0,0 UV-I 0 W/m 9,3 C 12,1 C 8,0 km/h (2 Bft)
27.05.2022 02:31 12,1 C 11,7 C 83 % 1022,9 hPa 0,0 l/m 8,0 km/h (2 Bft) SW 225 0 min 0,0 UV-I 0 W/m 9,3 C 11,1 C 12,9 km/h (3 Bft)
27.05.2022 02:32 12,1 C 11,7 C 83 % 1022,8 hPa 0,0 l/m 12,9 km/h (3 Bft) SW 225 0 min 0,0 UV-I 0 W/m 9,3 C 8,5 C 20,9 km/h (4 Bft)
27.05.2022 02:33 12,1 C 11,7 C 83 % 1022,8 hPa 0,0 l/m 9,7 km/h (2 Bft) W-SW 247 0 min 0,0 UV-I 0 W/m 9,3 C 10,1 C 20,9 km/h (4 Bft)
27.05.2022 02:34 12,1 C 11,7 C 83 % 1022,8 hPa 0,0 l/m 16,1 km/h (3 Bft) S-SW 202 0 min 0,0 UV-I 0 W/m 9,3 C 7,3 C 25,7 km/h (4 Bft)
27.05.2022 02:35 12,0 C 11,7 C 83 % 1022,7 hPa 0,0 l/m 17,7 km/h (3 Bft) W-SW 247 0 min 0,0 UV-I 0 W/m 9,2 C 6,6 C 29,0 km/h (5 Bft)
27.05.2022 02:36 11,9 C 11,7 C 83 % 1022,7 hPa 0,0 l/m 16,1 km/h (3 Bft) W-SW 247 0 min 0,0 UV-I 0 W/m 9,1 C 7,0 C 22,5 km/h (4 Bft)
27.05.2022 02:37 11,9 C 11,7 C 83 % 1022,7 hPa 0,0 l/m 14,5 km/h (3 Bft) W-SW 247 0 min 0,0 UV-I 0 W/m 9,1 C 7,6 C 22,5 km/h (4 Bft)
27.05.2022 02:38 11,9 C 11,7 C 83 % 1022,7 hPa 0,0 l/m 17,7 km/h (3 Bft) SW 225 0 min 0,0 UV-I 0 W/m 9,1 C 6,5 C 25,7 km/h (4 Bft)
27.05.2022 02:39 11,9 C 11,7 C 83 % 1022,8 hPa 0,0 l/m 16,1 km/h (3 Bft) SW 225 0 min 0,0 UV-I 0 W/m 9,1 C 7,0 C 25,7 km/h (4 Bft)
27.05.2022 02:40 11,8 C 11,7 C 83 % 1022,8 hPa 0,0 l/m 9,7 km/h (2 Bft) SW 225 0 min 0,0 UV-I 0 W/m 9,0 C 9,7 C 17,7 km/h (3 Bft)
27.05.2022 02:41 11,8 C 11,1 C 83 % 1022,8 hPa 0,0 l/m 11,3 km/h (2 Bft) SW 225 0 min 0,0 UV-I 0 W/m 9,0 C 8,9 C 16,1 km/h (3 Bft)
27.05.2022 02:42 11,8 C 11,1 C 83 % 1022,8 hPa 0,0 l/m 11,3 km/h (2 Bft) W-SW 247 0 min 0,0 UV-I 0 W/m 9,0 C 8,9 C 16,1 km/h (3 Bft)
27.05.2022 02:43 11,8 C 11,1 C 83 % 1022,9 hPa 0,0 l/m 12,9 km/h (3 Bft) SW 225 0 min 0,0 UV-I 0 W/m 9,0 C 8,2 C 20,9 km/h (4 Bft)
27.05.2022 02:44 11,8 C 11,1 C 83 % 1022,7 hPa 0,0 l/m 9,7 km/h (2 Bft) W-SW 247 0 min 0,0 UV-I 0 W/m 9,0 C 9,7 C 14,5 km/h (3 Bft)
27.05.2022 02:45 11,8 C 11,1 C 84 % 1022,8 hPa 0,0 l/m 9,7 km/h (2 Bft) W-SW 247 0 min 0,0 UV-I 0 W/m 9,2 C 9,7 C 16,1 km/h (3 Bft)
27.05.2022 02:46 11,8 C 11,1 C 84 % 1022,8 hPa 0,0 l/m 8,0 km/h (2 Bft) W-SW 247 0 min 0,0 UV-I 0 W/m 9,2 C 10,7 C 14,5 km/h (3 Bft)
27.05.2022 02:47 11,8 C 11,1 C 84 % 1022,7 hPa 0,0 l/m 8,0 km/h (2 Bft) W 270 0 min 0,0 UV-I 0 W/m 9,2 C 10,7 C 12,9 km/h (3 Bft)
27.05.2022 02:48 11,8 C 11,1 C 84 % 1022,7 hPa 0,0 l/m 9,7 km/h (2 Bft) W 270 0 min 0,0 UV-I 0 W/m 9,2 C 9,7 C 14,5 km/h (3 Bft)
27.05.2022 02:49 11,7 C 11,1 C 84 % 1022,7 hPa 0,0 l/m 8,0 km/h (2 Bft) SW 225 0 min 0,0 UV-I 0 W/m 9,1 C 10,6 C 11,3 km/h (2 Bft)
27.05.2022 02:50 11,7 C 11,1 C 84 % 1022,8 hPa 0,0 l/m 6,4 km/h (2 Bft) SW 225 0 min 0,0 UV-I 0 W/m 9,1 C 11,7 C 16,1 km/h (3 Bft)
27.05.2022 02:51 11,7 C 11,1 C 84 % 1022,7 hPa 0,0 l/m 14,5 km/h (3 Bft) SW 225 0 min 0,0 UV-I 0 W/m 9,1 C 7,4 C 19,3 km/h (3 Bft)
27.05.2022 02:52 11,7 C 11,1 C 84 % 1022,7 hPa 0,0 l/m 12,9 km/h (3 Bft) SW 225 0 min 0,0 UV-I 0 W/m 9,1 C 8,1 C 19,3 km/h (3 Bft)
27.05.2022 02:53 11,7 C 11,1 C 84 % 1022,7 hPa 0,0 l/m 8,0 km/h (2 Bft) S-SW 202 0 min 0,0 UV-I 0 W/m 9,1 C 10,6 C 12,9 km/h (3 Bft)
27.05.2022 02:54 11,7 C 11,1 C 84 % 1022,8 hPa 0,0 l/m 9,7 km/h (2 Bft) SW 225 0 min 0,0 UV-I 0 W/m 9,1 C 9,6 C 16,1 km/h (3 Bft)
27.05.2022 02:55 11,7 C 11,1 C 84 % 1022,7 hPa 0,0 l/m 16,1 km/h (3 Bft) W-SW 247 0 min 0,0 UV-I 0 W/m 9,1 C 6,8 C 22,5 km/h (4 Bft)
27.05.2022 02:56 11,7 C 11,1 C 84 % 1022,8 hPa 0,0 l/m 9,7 km/h (2 Bft) S-SW 202 0 min 0,0 UV-I 0 W/m 9,1 C 9,6 C 16,1 km/h (3 Bft)
27.05.2022 02:57 11,7 C 11,1 C 84 % 1022,8 hPa 0,0 l/m 6,4 km/h (2 Bft) S-SW 202 0 min 0,0 UV-I 0 W/m 9,1 C 11,7 C 9,7 km/h (2 Bft)
27.05.2022 02:58 11,6 C 11,1 C 84 % 1022,8 hPa 0,0 l/m 11,3 km/h (2 Bft) SW 225 0 min 0,0 UV-I 0 W/m 9,0 C 8,7 C 22,5 km/h (4 Bft)
27.05.2022 02:59 11,6 C 11,1 C 84 % 1022,8 hPa 0,0 l/m 11,3 km/h (2 Bft) SW 225 0 min 0,0 UV-I 0 W/m 9,0 C 8,7 C 19,3 km/h (3 Bft)
27.05.2022 03:00 11,6 C 11,1 C 84 % 1022,8 hPa 0,0 l/m 11,3 km/h (2 Bft) S-SW 202 0 min 0,0 UV-I 0 W/m 9,0 C 8,7 C 19,3 km/h (3 Bft)
27.05.2022 03:01 11,5 C 11,1 C 84 % 1022,8 hPa 0,0 l/m 11,3 km/h (2 Bft) SW 225 0 min 0,0 UV-I 0 W/m 8,9 C 8,6 C 22,5 km/h (4 Bft)
27.05.2022 03:02 11,5 C 11,1 C 84 % 1022,8 hPa 0,0 l/m 8,0 km/h (2 Bft) SW 225 0 min 0,0 UV-I 0 W/m 8,9 C 10,4 C 12,9 km/h (3 Bft)
27.05.2022 03:03 11,4 C 11,1 C 84 % 1022,7 hPa 0,0 l/m 8,0 km/h (2 Bft) SW 225 0 min 0,0 UV-I 0 W/m 8,8 C 10,3 C 14,5 km/h (3 Bft)
27.05.2022 03:04 11,4 C 11,1 C 85 % 1022,8 hPa 0,0 l/m 12,9 km/h (3 Bft) SW 225 0 min 0,0 UV-I 0 W/m 9,0 C 7,7 C 22,5 km/h (4 Bft)
27.05.2022 03:05 11,4 C 11,1 C 85 % 1022,8 hPa 0,0 l/m 9,7 km/h (2 Bft) SW 225 0 min 0,0 UV-I 0 W/m 9,0 C 9,3 C 14,5 km/h (3 Bft)
27.05.2022 03:06 11,4 C 11,1 C 85 % 1022,7 hPa 0,0 l/m 8,0 km/h (2 Bft) S-SW 202 0 min 0,0 UV-I 0 W/m 9,0 C 10,3 C 11,3 km/h (2 Bft)
27.05.2022 03:07 11,4 C 11,1 C 85 % 1022,6 hPa 0,0 l/m 6,4 km/h (2 Bft) SW 225 0 min 0,0 UV-I 0 W/m 9,0 C 11,4 C 12,9 km/h (3 Bft)
27.05.2022 03:08 11,4 C 11,1 C 85 % 1022,7 hPa 0,0 l/m 11,3 km/h (2 Bft) SW 225 0 min 0,0 UV-I 0 W/m 9,0 C 8,5 C 17,7 km/h (3 Bft)
27.05.2022 03:09 11,3 C 11,1 C 85 % 1022,6 hPa 0,0 l/m 8,0 km/h (2 Bft) W-SW 247 0 min 0,0 UV-I 0 W/m 8,9 C 10,2 C 14,5 km/h (3 Bft)
27.05.2022 03:10 11,3 C 11,1 C 85 % 1022,6 hPa 0,0 l/m 8,0 km/h (2 Bft) SW 225 0 min 0,0 UV-I 0 W/m 8,9 C 10,2 C 14,5 km/h (3 Bft)
27.05.2022 03:11 11,3 C 11,1 C 85 % 1022,6 hPa 0,0 l/m 6,4 km/h (2 Bft) W-SW 247 0 min 0,0 UV-I 0 W/m 8,9 C 11,3 C 11,3 km/h (2 Bft)
27.05.2022 03:12 11,3 C 11,1 C 85 % 1022,6 hPa 0,0 l/m 4,8 km/h (1 Bft) W-SW 247 0 min 0,0 UV-I 0 W/m 8,9 C 11,3 C 6,4 km/h (2 Bft)
27.05.2022 03:13 11,3 C 11,1 C 85 % 1022,6 hPa 0,0 l/m 9,7 km/h (2 Bft) W-SW 247 0 min 0,0 UV-I 0 W/m 8,9 C 9,2 C 16,1 km/h (3 Bft)
27.05.2022 03:14 11,3 C 11,1 C 85 % 1022,7 hPa 0,0 l/m 8,0 km/h (2 Bft) W-SW 247 0 min 0,0 UV-I 0 W/m 8,9 C 10,2 C 14,5 km/h (3 Bft)
27.05.2022 03:15 11,3 C 11,1 C 85 % 1022,8 hPa 0,0 l/m 9,7 km/h (2 Bft) SW 225 0 min 0,0 UV-I 0 W/m 8,9 C 9,2 C 17,7 km/h (3 Bft)
27.05.2022 03:16 11,3 C 11,1 C 85 % 1022,6 hPa 0,0 l/m 9,7 km/h (2 Bft) S-SW 202 0 min 0,0 UV-I 0 W/m 8,9 C 9,2 C 16,1 km/h (3 Bft)
27.05.2022 03:17 11,2 C 11,1 C 85 % 1022,7 hPa 0,0 l/m 8,0 km/h (2 Bft) SW 225 0 min 0,0 UV-I 0 W/m 8,8 C 10,1 C 16,1 km/h (3 Bft)
27.05.2022 03:18 11,2 C 11,1 C 86 % 1022,7 hPa 0,0 l/m 9,7 km/h (2 Bft) SW 225 0 min 0,0 UV-I 0 W/m 8,9 C 9,1 C 17,7 km/h (3 Bft)
27.05.2022 03:19 11,2 C 10,6 C 86 % 1022,5 hPa 0,0 l/m 12,9 km/h (3 Bft) SW 225 0 min 0,0 UV-I 0 W/m 8,9 C 7,5 C 20,9 km/h (4 Bft)
27.05.2022 03:20 11,2 C 10,6 C 86 % 1022,5 hPa 0,0 l/m 14,5 km/h (3 Bft) SW 225 0 min 0,0 UV-I 0 W/m 8,9 C 6,8 C 24,1 km/h (4 Bft)
27.05.2022 03:21 11,2 C 10,6 C 85 % 1022,6 hPa 0,0 l/m 12,9 km/h (3 Bft) S-SW 202 0 min 0,0 UV-I 0 W/m 8,8 C 7,5 C 19,3 km/h (3 Bft)
27.05.2022 03:22 11,2 C 10,6 C 85 % 1022,6 hPa 0,0 l/m 14,5 km/h (3 Bft) SW 225 0 min 0,0 UV-I 0 W/m 8,8 C 6,8 C 22,5 km/h (4 Bft)
27.05.2022 03:23 11,1 C 10,6 C 85 % 1022,4 hPa 0,0 l/m 9,7 km/h (2 Bft) W-SW 247 0 min 0,0 UV-I 0 W/m 8,7 C 9,0 C 19,3 km/h (3 Bft)
27.05.2022 03:24 11,2 C 10,6 C 85 % 1022,6 hPa 0,0 l/m 14,5 km/h (3 Bft) SW 225 0 min 0,0 UV-I 0 W/m 8,8 C 6,8 C 24,1 km/h (4 Bft)
27.05.2022 03:25 11,1 C 10,6 C 85 % 1022,6 hPa 0,0 l/m 11,3 km/h (2 Bft) W-SW 247 0 min 0,0 UV-I 0 W/m 8,7 C 8,1 C 16,1 km/h (3 Bft)
27.05.2022 03:26 11,1 C 10,6 C 85 % 1022,5 hPa 0,0 l/m 9,7 km/h (2 Bft) SW 225 0 min 0,0 UV-I 0 W/m 8,7 C 9,0 C 16,1 km/h (3 Bft)
27.05.2022 03:27 11,1 C 10,6 C 85 % 1022,6 hPa 0,0 l/m 12,9 km/h (3 Bft) W-SW 247 0 min 0,0 UV-I 0 W/m 8,7 C 7,4 C 19,3 km/h (3 Bft)
27.05.2022 03:28 11,1 C 10,6 C 85 % 1022,5 hPa 0,0 l/m 9,7 km/h (2 Bft) SW 225 0 min 0,0 UV-I 0 W/m 8,7 C 9,0 C 17,7 km/h (3 Bft)
27.05.2022 03:29 11,1 C 10,6 C 85 % 1022,4 hPa 0,0 l/m 11,3 km/h (2 Bft) W-SW 247 0 min 0,0 UV-I 0 W/m 8,7 C 8,1 C 17,7 km/h (3 Bft)
27.05.2022 03:30 11,1 C 10,6 C 85 % 1022,5 hPa 0,0 l/m 4,8 km/h (1 Bft) W 270 0 min 0,0 UV-I 0 W/m 8,7 C 11,1 C 6,4 km/h (2 Bft)
27.05.2022 03:31 11,1 C 10,6 C 85 % 1022,6 hPa 0,0 l/m 11,3 km/h (2 Bft) W-SW 247 0 min 0,0 UV-I 0 W/m 8,7 C 8,1 C 14,5 km/h (3 Bft)
27.05.2022 03:32 11,1 C 10,6 C 85 % 1022,6 hPa 0,0 l/m 12,9 km/h (3 Bft) W-SW 247 0 min 0,0 UV-I 0 W/m 8,7 C 7,4 C 17,7 km/h (3 Bft)
27.05.2022 03:33 11,1 C 10,6 C 85 % 1022,5 hPa 0,0 l/m 9,7 km/h (2 Bft) SW 225 0 min 0,0 UV-I 0 W/m 8,7 C 9,0 C 14,5 km/h (3 Bft)
27.05.2022 03:34 11,1 C 10,6 C 86 % 1022,5 hPa 0,0 l/m 6,4 km/h (2 Bft) W 270 0 min 0,0 UV-I 0 W/m 8,8 C 11,1 C 11,3 km/h (2 Bft)
27.05.2022 03:35 11,1 C 10,6 C 86 % 1022,6 hPa 0,0 l/m 6,4 km/h (2 Bft) S-SW 202 0 min 0,0 UV-I 0 W/m 8,8 C 11,1 C 11,3 km/h (2 Bft)
27.05.2022 03:36 11,1 C 10,6 C 86 % 1022,5 hPa 0,0 l/m 4,8 km/h (1 Bft) W-SW 247 0 min 0,0 UV-I 0 W/m 8,8 C 11,1 C 9,7 km/h (2 Bft)
27.05.2022 03:37 11,1 C 10,6 C 86 % 1022,6 hPa 0,0 l/m 4,8 km/h (1 Bft) SW 225 0 min 0,0 UV-I 0 W/m 8,8 C 11,1 C 11,3 km/h (2 Bft)
27.05.2022 03:38 11,1 C 10,6 C 86 % 1022,6 hPa 0,0 l/m 11,3 km/h (2 Bft) SW 225 0 min 0,0 UV-I 0 W/m 8,8 C 8,1 C 25,7 km/h (4 Bft)
27.05.2022 03:39 11,1 C 10,6 C 86 % 1022,5 hPa 0,0 l/m 12,9 km/h (3 Bft) SW 225 0 min 0,0 UV-I 0 W/m 8,8 C 7,4 C 25,7 km/h (4 Bft)
27.05.2022 03:40 11,1 C 10,6 C 86 % 1022,5 hPa 0,0 l/m 9,7 km/h (2 Bft) SW 225 0 min 0,0 UV-I 0 W/m 8,8 C 9,0 C 16,1 km/h (3 Bft)
27.05.2022 03:41 11,1 C 10,6 C 86 % 1022,6 hPa 0,0 l/m 4,8 km/h (1 Bft) W-SW 247 0 min 0,0 UV-I 0 W/m 8,8 C 11,1 C 8,0 km/h (2 Bft)
27.05.2022 03:42 11,1 C 10,6 C 86 % 1022,5 hPa 0,0 l/m 6,4 km/h (2 Bft) SW 225 0 min 0,0 UV-I 0 W/m 8,8 C 11,1 C 11,3 km/h (2 Bft)
27.05.2022 03:43 11,1 C 10,6 C 86 % 1022,5 hPa 0,0 l/m 9,7 km/h (2 Bft) S-SW 202 0 min 0,0 UV-I 0 W/m 8,8 C 9,0 C 12,9 km/h (3 Bft)
27.05.2022 03:44 11,1 C 10,6 C 86 % 1022,5 hPa 0,0 l/m 6,4 km/h (2 Bft) S-SW 202 0 min 0,0 UV-I 0 W/m 8,8 C 11,1 C 9,7 km/h (2 Bft)
27.05.2022 03:45 11,1 C 10,6 C 86 % 1022,6 hPa 0,0 l/m 4,8 km/h (1 Bft) W-SW 247 0 min 0,0 UV-I 0 W/m 8,8 C 11,1 C 8,0 km/h (2 Bft)
27.05.2022 03:46 11,1 C 10,6 C 86 % 1022,6 hPa 0,0 l/m 6,4 km/h (2 Bft) SW 225 0 min 0,0 UV-I 0 W/m 8,8 C 11,1 C 12,9 km/h (3 Bft)
27.05.2022 03:47 11,1 C 10,6 C 86 % 1022,6 hPa 0,0 l/m 11,3 km/h (2 Bft) SW 225 0 min 0,0 UV-I 0 W/m 8,8 C 8,1 C 14,5 km/h (3 Bft)
27.05.2022 03:48 11,1 C 10,6 C 86 % 1022,6 hPa 0,0 l/m 11,3 km/h (2 Bft) SW 225 0 min 0,0 UV-I 0 W/m 8,8 C 8,1 C 14,5 km/h (3 Bft)
27.05.2022 03:49 11,1 C 10,6 C 86 % 1022,6 hPa 0,0 l/m 16,1 km/h (3 Bft) W-SW 247 0 min 0,0 UV-I 0 W/m 8,8 C 6,0 C 20,9 km/h (4 Bft)
27.05.2022 03:50 11,1 C 10,6 C 86 % 1022,5 hPa 0,0 l/m 17,7 km/h (3 Bft) SW 225 0 min 0,0 UV-I 0 W/m 8,8 C 5,5 C 22,5 km/h (4 Bft)
27.05.2022 03:51 11,1 C 10,6 C 86 % 1022,5 hPa 0,0 l/m 12,9 km/h (3 Bft) SW 225 0 min 0,0 UV-I 0 W/m 8,8 C 7,4 C 22,5 km/h (4 Bft)
27.05.2022 03:52 11,1 C 10,6 C 86 % 1022,6 hPa 0,0 l/m 11,3 km/h (2 Bft) SW 225 0 min 0,0 UV-I 0 W/m 8,8 C 8,1 C 16,1 km/h (3 Bft)
27.05.2022 03:53 11,1 C 10,6 C 86 % 1022,5 hPa 0,0 l/m 11,3 km/h (2 Bft) SW 225 0 min 0,0 UV-I 0 W/m 8,8 C 8,1 C 17,7 km/h (3 Bft)
27.05.2022 03:54 11,1 C 10,6 C 86 % 1022,5 hPa 0,0 l/m 12,9 km/h (3 Bft) W 270 0 min 0,0 UV-I 0 W/m 8,8 C 7,4 C 17,7 km/h (3 Bft)
27.05.2022 03:55 11,1 C 10,6 C 86 % 1022,5 hPa 0,0 l/m 9,7 km/h (2 Bft) SW 225 0 min 0,0 UV-I 0 W/m 8,8 C 9,0 C 22,5 km/h (4 Bft)
27.05.2022 03:56 11,1 C 10,6 C 86 % 1022,5 hPa 0,0 l/m 6,4 km/h (2 Bft) SW 225 0 min 0,0 UV-I 0 W/m 8,8 C 11,1 C 11,3 km/h (2 Bft)
27.05.2022 03:57 11,1 C 10,6 C 86 % 1022,5 hPa 0,0 l/m 11,3 km/h (2 Bft) SW 225 0 min 0,0 UV-I 0 W/m 8,8 C 8,1 C 17,7 km/h (3 Bft)
27.05.2022 03:58 11,1 C 10,6 C 86 % 1022,5 hPa 0,0 l/m 11,3 km/h (2 Bft) SW 225 0 min 0,0 UV-I 0 W/m 8,8 C 8,1 C 19,3 km/h (3 Bft)
27.05.2022 03:59 11,0 C 10,6 C 86 % 1022,5 hPa 0,0 l/m 9,7 km/h (2 Bft) SW 225 0 min 0,0 UV-I 0 W/m 8,7 C 8,9 C 16,1 km/h (3 Bft)
27.05.2022 04:00 11,1 C 10,6 C 86 % 1022,4 hPa 0,0 l/m 6,4 km/h (2 Bft) W-SW 247 0 min 0,0 UV-I 0 W/m 8,8 C 11,1 C 12,9 km/h (3 Bft)
27.05.2022 04:01 11,1 C 10,6 C 86 % 1022,4 hPa 0,0 l/m 8,0 km/h (2 Bft) S-SW 202 0 min 0,0 UV-I 0 W/m 8,8 C 10,0 C 9,7 km/h (2 Bft)
27.05.2022 04:02 11,1 C 10,6 C 86 % 1022,4 hPa 0,0 l/m 8,0 km/h (2 Bft) SW 225 0 min 0,0 UV-I 0 W/m 8,8 C 10,0 C 11,3 km/h (2 Bft)
27.05.2022 04:03 11,1 C 10,6 C 86 % 1022,4 hPa 0,0 l/m 4,8 km/h (1 Bft) SW 225 0 min 0,0 UV-I 0 W/m 8,8 C 11,1 C 11,3 km/h (2 Bft)
27.05.2022 04:04 11,1 C 10,6 C 86 % 1022,4 hPa 0,0 l/m 8,0 km/h (2 Bft) SW 225 0 min 0,0 UV-I 0 W/m 8,8 C 10,0 C 12,9 km/h (3 Bft)
27.05.2022 04:05 11,1 C 10,6 C 86 % 1022,4 hPa 0,0 l/m 9,7 km/h (2 Bft) SW 225 0 min 0,0 UV-I 0 W/m 8,8 C 9,0 C 16,1 km/h (3 Bft)
27.05.2022 04:06 11,0 C 10,6 C 86 % 1022,2 hPa 0,0 l/m 11,3 km/h (2 Bft) S 180 0 min 0,0 UV-I 0 W/m 8,7 C 8,0 C 19,3 km/h (3 Bft)
27.05.2022 04:07 11,0 C 10,6 C 86 % 1022,3 hPa 0,0 l/m 9,7 km/h (2 Bft) W-SW 247 0 min 0,0 UV-I 0 W/m 8,7 C 8,9 C 17,7 km/h (3 Bft)
27.05.2022 04:08 11,0 C 10,6 C 87 % 1022,3 hPa 0,0 l/m 9,7 km/h (2 Bft) S-SW 202 0 min 0,0 UV-I 0 W/m 8,9 C 8,9 C 12,9 km/h (3 Bft)
27.05.2022 04:09 11,0 C 10,6 C 87 % 1022,3 hPa 0,0 l/m 8,0 km/h (2 Bft) S-SW 202 0 min 0,0 UV-I 0 W/m 8,9 C 9,9 C 12,9 km/h (3 Bft)
27.05.2022 04:10 11,0 C 10,6 C 87 % 1022,1 hPa 0,0 l/m 9,7 km/h (2 Bft) W-SW 247 0 min 0,0 UV-I 0 W/m 8,9 C 8,9 C 12,9 km/h (3 Bft)
27.05.2022 04:11 10,9 C 10,6 C 86 % 1022,2 hPa 0,0 l/m 11,3 km/h (2 Bft) SW 225 0 min 0,0 UV-I 0 W/m 8,7 C 7,9 C 14,5 km/h (3 Bft)
27.05.2022 04:12 10,9 C 10,6 C 86 % 1022,2 hPa 0,0 l/m 12,9 km/h (3 Bft) S-SW 202 0 min 0,0 UV-I 0 W/m 8,7 C 7,1 C 17,7 km/h (3 Bft)
27.05.2022 04:13 10,9 C 10,6 C 87 % 1022,1 hPa 0,0 l/m 14,5 km/h (3 Bft) SW 225 0 min 0,0 UV-I 0 W/m 8,8 C 6,4 C 22,5 km/h (4 Bft)
27.05.2022 04:14 10,9 C 10,6 C 87 % 1022,1 hPa 0,0 l/m 14,5 km/h (3 Bft) W-SW 247 0 min 0,0 UV-I 0 W/m 8,8 C 6,4 C 20,9 km/h (4 Bft)
27.05.2022 04:15 10,9 C 10,6 C 87 % 1022,2 hPa 0,0 l/m 9,7 km/h (2 Bft) W-SW 247 0 min 0,0 UV-I 0 W/m 8,8 C 8,8 C 14,5 km/h (3 Bft)
27.05.2022 04:16 10,9 C 10,6 C 87 % 1022,2 hPa 0,0 l/m 6,4 km/h (2 Bft) W-SW 247 0 min 0,0 UV-I 0 W/m 8,8 C 10,9 C 11,3 km/h (2 Bft)
27.05.2022 04:17 10,9 C 10,6 C 87 % 1022,2 hPa 0,0 l/m 8,0 km/h (2 Bft) W-SW 247 0 min 0,0 UV-I 0 W/m 8,8 C 9,8 C 12,9 km/h (3 Bft)
27.05.2022 04:18 10,9 C 10,6 C 87 % 1022,3 hPa 0,0 l/m 8,0 km/h (2 Bft) SW 225 0 min 0,0 UV-I 0 W/m 8,8 C 9,8 C 17,7 km/h (3 Bft)
27.05.2022 04:19 10,9 C 10,6 C 87 % 1022,2 hPa 0,0 l/m 4,8 km/h (1 Bft) W-SW 247 0 min 0,0 UV-I 0 W/m 8,8 C 10,9 C 6,4 km/h (2 Bft)
27.05.2022 04:20 10,9 C 10,6 C 87 % 1022,3 hPa 0,0 l/m 11,3 km/h (2 Bft) SW 225 0 min 0,0 UV-I 0 W/m 8,8 C 7,9 C 16,1 km/h (3 Bft)
27.05.2022 04:21 10,9 C 10,6 C 87 % 1022,2 hPa 0,0 l/m 11,3 km/h (2 Bft) SW 225 0 min 0,0 UV-I 0 W/m 8,8 C 7,9 C 16,1 km/h (3 Bft)
27.05.2022 04:22 10,9 C 10,6 C 87 % 1022,2 hPa 0,0 l/m 6,4 km/h (2 Bft) SW 225 0 min 0,0 UV-I 0 W/m 8,8 C 10,9 C 9,7 km/h (2 Bft)
27.05.2022 04:23 10,9 C 10,6 C 87 % 1022,2 hPa 0,0 l/m 11,3 km/h (2 Bft) W-SW 247 0 min 0,0 UV-I 0 W/m 8,8 C 7,9 C 17,7 km/h (3 Bft)
27.05.2022 04:24 10,9 C 10,6 C 87 % 1022,2 hPa 0,0 l/m 8,0 km/h (2 Bft) SW 225 0 min 0,0 UV-I 0 W/m 8,8 C 9,8 C 20,9 km/h (4 Bft)
27.05.2022 04:25 10,8 C 10,6 C 87 % 1022,2 hPa 0,0 l/m 12,9 km/h (3 Bft) W-SW 247 0 min 0,0 UV-I 0 W/m 8,7 C 7,0 C 22,5 km/h (4 Bft)
27.05.2022 04:26 10,8 C 10,6 C 87 % 1022,2 hPa 0,0 l/m 8,0 km/h (2 Bft) SW 225 0 min 0,0 UV-I 0 W/m 8,7 C 9,7 C 14,5 km/h (3 Bft)
27.05.2022 04:27 10,9 C 10,6 C 87 % 1022,2 hPa 0,0 l/m 6,4 km/h (2 Bft) SW 225 0 min 0,0 UV-I 0 W/m 8,8 C 10,9 C 11,3 km/h (2 Bft)
27.05.2022 04:28 10,8 C 10,6 C 87 % 1022,2 hPa 0,0 l/m 12,9 km/h (3 Bft) W-SW 247 0 min 0,0 UV-I 0 W/m 8,7 C 7,0 C 19,3 km/h (3 Bft)
27.05.2022 04:29 10,8 C 10,6 C 87 % 1022,2 hPa 0,0 l/m 14,5 km/h (3 Bft) W 270 0 min 0,0 UV-I 0 W/m 8,7 C 6,3 C 29,0 km/h (5 Bft)
27.05.2022 04:30 10,8 C 10,6 C 87 % 1022,1 hPa 0,0 l/m 16,1 km/h (3 Bft) SW 225 0 min 0,0 UV-I 0 W/m 8,7 C 5,7 C 25,7 km/h (4 Bft)
27.05.2022 04:31 10,8 C 10,6 C 87 % 1022,1 hPa 0,0 l/m 11,3 km/h (2 Bft) W-SW 247 0 min 0,0 UV-I 0 W/m 8,7 C 7,8 C 20,9 km/h (4 Bft)
27.05.2022 04:32 10,8 C 10,6 C 87 % 1022,1 hPa 0,0 l/m 19,3 km/h (3 Bft) S-SW 202 0 min 0,0 UV-I 0 W/m 8,7 C 4,5 C 27,4 km/h (4 Bft)
27.05.2022 04:33 10,8 C 10,6 C 87 % 1022,0 hPa 0,0 l/m 14,5 km/h (3 Bft) W-SW 247 0 min 0,0 UV-I 0 W/m 8,7 C 6,3 C 19,3 km/h (3 Bft)
27.05.2022 04:34 10,8 C 10,6 C 87 % 1022,1 hPa 0,0 l/m 12,9 km/h (3 Bft) SW 225 0 min 0,0 UV-I 0 W/m 8,7 C 7,0 C 20,9 km/h (4 Bft)
27.05.2022 04:35 10,8 C 10,6 C 87 % 1022,1 hPa 0,0 l/m 11,3 km/h (2 Bft) SW 225 0 min 0,0 UV-I 0 W/m 8,7 C 7,8 C 17,7 km/h (3 Bft)
27.05.2022 04:36 10,8 C 10,6 C 87 % 1022,0 hPa 0,0 l/m 9,7 km/h (2 Bft) SW 225 0 min 0,0 UV-I 0 W/m 8,7 C 8,6 C 12,9 km/h (3 Bft)
27.05.2022 04:37 10,8 C 10,6 C 87 % 1022,2 hPa 0,0 l/m 12,9 km/h (3 Bft) SW 225 0 min 0,0 UV-I 0 W/m 8,7 C 7,0 C 20,9 km/h (4 Bft)
27.05.2022 04:38 10,8 C 10,6 C 87 % 1022,0 hPa 0,0 l/m 14,5 km/h (3 Bft) W-SW 247 0 min 0,0 UV-I 0 W/m 8,7 C 6,3 C 24,1 km/h (4 Bft)
27.05.2022 04:39 10,8 C 10,6 C 87 % 1022,0 hPa 0,0 l/m 9,7 km/h (2 Bft) SW 225 0 min 0,0 UV-I 0 W/m 8,7 C 8,6 C 14,5 km/h (3 Bft)
27.05.2022 04:40 10,7 C 10,6 C 87 % 1022,0 hPa 0,0 l/m 16,1 km/h (3 Bft) SW 225 0 min 0,0 UV-I 0 W/m 8,6 C 5,5 C 24,1 km/h (4 Bft)
27.05.2022 04:41 10,8 C 10,6 C 87 % 1022,0 hPa 0,0 l/m 16,1 km/h (3 Bft) W-SW 247 0 min 0,0 UV-I 0 W/m 8,7 C 5,7 C 25,7 km/h (4 Bft)
27.05.2022 04:42 10,7 C 10,6 C 87 % 1022,0 hPa 0,0 l/m 12,9 km/h (3 Bft) W-SW 247 0 min 0,0 UV-I 0 W/m 8,6 C 6,9 C 22,5 km/h (4 Bft)
27.05.2022 04:43 10,7 C 10,6 C 87 % 1022,0 hPa 0,0 l/m 11,3 km/h (2 Bft) W-SW 247 0 min 0,0 UV-I 0 W/m 8,6 C 7,7 C 19,3 km/h (3 Bft)
27.05.2022 04:44 10,7 C 10,6 C 87 % 1022,0 hPa 0,0 l/m 11,3 km/h (2 Bft) SW 225 0 min 0,0 UV-I 0 W/m 8,6 C 7,7 C 19,3 km/h (3 Bft)
27.05.2022 04:45 10,7 C 10,6 C 87 % 1022,0 hPa 0,0 l/m 12,9 km/h (3 Bft) W-SW 247 0 min 0,0 UV-I 0 W/m 8,6 C 6,9 C 17,7 km/h (3 Bft)
27.05.2022 04:46 10,7 C 10,6 C 87 % 1022,1 hPa 0,0 l/m 9,7 km/h (2 Bft) W-SW 247 0 min 0,0 UV-I 0 W/m 8,6 C 8,5 C 16,1 km/h (3 Bft)
27.05.2022 04:47 10,7 C 10,6 C 87 % 1022,0 hPa 0,0 l/m 9,7 km/h (2 Bft) SW 225 0 min 0,0 UV-I 0 W/m 8,6 C 8,5 C 19,3 km/h (3 Bft)
27.05.2022 04:48 10,7 C 10,6 C 87 % 1022,0 hPa 0,0 l/m 9,7 km/h (2 Bft) W-SW 247 0 min 0,0 UV-I 0 W/m 8,6 C 8,5 C 16,1 km/h (3 Bft)
27.05.2022 04:49 10,7 C 10,6 C 87 % 1022,1 hPa 0,0 l/m 11,3 km/h (2 Bft) SW 225 0 min 0,0 UV-I 0 W/m 8,6 C 7,7 C 17,7 km/h (3 Bft)
27.05.2022 04:50 10,7 C 10,6 C 87 % 1022,0 hPa 0,0 l/m 11,3 km/h (2 Bft) SW 225 0 min 0,0 UV-I 0 W/m 8,6 C 7,7 C 20,9 km/h (4 Bft)
27.05.2022 04:51 10,7 C 10,6 C 87 % 1022,1 hPa 0,0 l/m 12,9 km/h (3 Bft) W 270 0 min 0,0 UV-I 0 W/m 8,6 C 6,9 C 22,5 km/h (4 Bft)
27.05.2022 04:52 10,7 C 10,6 C 87 % 1022,0 hPa 0,0 l/m 8,0 km/h (2 Bft) SW 225 0 min 0,0 UV-I 0 W/m 8,6 C 9,6 C 12,9 km/h (3 Bft)
27.05.2022 04:53 10,7 C 10,6 C 87 % 1022,0 hPa 0,0 l/m 9,7 km/h (2 Bft) SW 225 0 min 0,0 UV-I 0 W/m 8,6 C 8,5 C 20,9 km/h (4 Bft)
27.05.2022 04:54 10,6 C 10,6 C 87 % 1022,0 hPa 0,0 l/m 16,1 km/h (3 Bft) SW 225 0 min 0,0 UV-I 0 W/m 8,5 C 5,4 C 20,9 km/h (4 Bft)
27.05.2022 04:55 10,7 C 10,6 C 87 % 1022,1 hPa 0,0 l/m 14,5 km/h (3 Bft) SW 225 0 min 0,0 UV-I 0 W/m 8,6 C 6,2 C 20,9 km/h (4 Bft)
27.05.2022 04:56 10,7 C 10,6 C 87 % 1022,1 hPa 0,0 l/m 16,1 km/h (3 Bft) SW 225 0 min 0,0 UV-I 0 W/m 8,6 C 5,5 C 22,5 km/h (4 Bft)
27.05.2022 04:57 10,6 C 10,6 C 87 % 1022,0 hPa 0,0 l/m 14,5 km/h (3 Bft) W-SW 247 0 min 0,0 UV-I 0 W/m 8,5 C 6,1 C 19,3 km/h (3 Bft)
27.05.2022 04:58 10,6 C 10,6 C 87 % 1022,1 hPa 0,0 l/m 12,9 km/h (3 Bft) SW 225 0 min 0,0 UV-I 0 W/m 8,5 C 6,8 C 17,7 km/h (3 Bft)
27.05.2022 04:59 10,6 C 10,6 C 87 % 1022,2 hPa 0,0 l/m 11,3 km/h (2 Bft) SW 225 0 min 0,0 UV-I 0 W/m 8,5 C 7,6 C 16,1 km/h (3 Bft)
27.05.2022 05:00 10,6 C 10,6 C 87 % 1022,2 hPa 0,0 l/m 12,9 km/h (3 Bft) W-SW 247 0 min 0,0 UV-I 0 W/m 8,5 C 6,8 C 20,9 km/h (4 Bft)
27.05.2022 05:01 10,7 C 10,6 C 87 % 1022,2 hPa 0,0 l/m 8,0 km/h (2 Bft) SW 225 0 min 0,0 UV-I 0 W/m 8,6 C 9,6 C 17,7 km/h (3 Bft)
27.05.2022 05:02 10,7 C 10,6 C 87 % 1022,1 hPa 0,0 l/m 11,3 km/h (2 Bft) SW 225 0 min 0,0 UV-I 0 W/m 8,6 C 7,7 C 16,1 km/h (3 Bft)
27.05.2022 05:03 10,6 C 10,6 C 87 % 1022,1 hPa 0,0 l/m 16,1 km/h (3 Bft) W-SW 247 0 min 0,0 UV-I 0 W/m 8,5 C 5,4 C 24,1 km/h (4 Bft)
27.05.2022 05:04 10,6 C 10,6 C 87 % 1022,1 hPa 0,0 l/m 11,3 km/h (2 Bft) SW 225 0 min 0,0 UV-I 0 W/m 8,5 C 7,6 C 17,7 km/h (3 Bft)
27.05.2022 05:05 10,6 C 10,6 C 87 % 1022,1 hPa 0,0 l/m 11,3 km/h (2 Bft) SW 225 0 min 0,0 UV-I 0 W/m 8,5 C 7,6 C 22,5 km/h (4 Bft)
27.05.2022 05:06 10,6 C 10,6 C 87 % 1022,1 hPa 0,0 l/m 11,3 km/h (2 Bft) SW 225 0 min 0,0 UV-I 0 W/m 8,5 C 7,6 C 22,5 km/h (4 Bft)
27.05.2022 05:07 10,6 C 10,6 C 87 % 1022,1 hPa 0,0 l/m 9,7 km/h (2 Bft) SW 225 0 min 0,0 UV-I 0 W/m 8,5 C 8,4 C 17,7 km/h (3 Bft)
27.05.2022 05:08 10,6 C 10,6 C 87 % 1022,1 hPa 0,0 l/m 8,0 km/h (2 Bft) SW 225 0 min 0,0 UV-I 0 W/m 8,5 C 9,5 C 16,1 km/h (3 Bft)
27.05.2022 05:09 10,6 C 10,6 C 87 % 1022,2 hPa 0,0 l/m 9,7 km/h (2 Bft) SW 225 0 min 0,0 UV-I 0 W/m 8,5 C 8,4 C 16,1 km/h (3 Bft)
27.05.2022 05:10 10,6 C 10,6 C 87 % 1022,2 hPa 0,0 l/m 12,9 km/h (3 Bft) W-SW 247 0 min 0,0 UV-I 0 W/m 8,5 C 6,8 C 17,7 km/h (3 Bft)
27.05.2022 05:11 10,6 C 10,6 C 87 % 1022,2 hPa 0,0 l/m 9,7 km/h (2 Bft) W-SW 247 0 min 0,0 UV-I 0 W/m 8,5 C 8,4 C 14,5 km/h (3 Bft)
27.05.2022 05:12 10,7 C 10,6 C 87 % 1022,2 hPa 0,0 l/m 12,9 km/h (3 Bft) W-SW 247 0 min 0,0 UV-I 0 W/m 8,6 C 6,9 C 19,3 km/h (3 Bft)
27.05.2022 05:13 10,6 C 10,6 C 87 % 1022,2 hPa 0,0 l/m 8,0 km/h (2 Bft) S-SW 202 0 min 0,0 UV-I 0 W/m 8,5 C 9,5 C 14,5 km/h (3 Bft)
27.05.2022 05:14 10,6 C 10,6 C 87 % 1022,2 hPa 0,0 l/m 9,7 km/h (2 Bft) SW 225 0 min 0,0 UV-I 0 W/m 8,5 C 8,4 C 19,3 km/h (3 Bft)
27.05.2022 05:15 10,6 C 10,6 C 87 % 1022,1 hPa 0,0 l/m 9,7 km/h (2 Bft) SW 225 0 min 0,0 UV-I 0 W/m 8,5 C 8,4 C 14,5 km/h (3 Bft)
27.05.2022 05:16 10,7 C 10,6 C 87 % 1022,1 hPa 0,0 l/m 11,3 km/h (2 Bft) SW 225 0 min 0,0 UV-I 0 W/m 8,6 C 7,7 C 22,5 km/h (4 Bft)
27.05.2022 05:17 10,6 C 10,6 C 87 % 1022,2 hPa 0,0 l/m 11,3 km/h (2 Bft) W-SW 247 0 min 0,0 UV-I 0 W/m 8,5 C 7,6 C 17,7 km/h (3 Bft)
27.05.2022 05:18 10,7 C 10,6 C 87 % 1022,2 hPa 0,0 l/m 11,3 km/h (2 Bft) W-SW 247 0 min 0,0 UV-I 0 W/m 8,6 C 7,7 C 17,7 km/h (3 Bft)
27.05.2022 05:19 10,6 C 10,6 C 87 % 1022,2 hPa 0,0 l/m 8,0 km/h (2 Bft) W-SW 247 0 min 0,0 UV-I 0 W/m 8,5 C 9,5 C 14,5 km/h (3 Bft)
27.05.2022 05:20 10,6 C 10,6 C 87 % 1022,1 hPa 0,0 l/m 9,7 km/h (2 Bft) SW 225 0 min 0,0 UV-I 0 W/m 8,5 C 8,4 C 16,1 km/h (3 Bft)
27.05.2022 05:21 10,6 C 10,6 C 87 % 1022,1 hPa 0,0 l/m 12,9 km/h (3 Bft) W-SW 247 0 min 0,0 UV-I 0 W/m 8,5 C 6,8 C 16,1 km/h (3 Bft)
27.05.2022 05:22 10,6 C 10,6 C 87 % 1022,2 hPa 0,0 l/m 9,7 km/h (2 Bft) W-SW 247 0 min 0,0 UV-I 0 W/m 8,5 C 8,4 C 17,7 km/h (3 Bft)
27.05.2022 05:23 10,6 C 10,6 C 87 % 1022,1 hPa 0,0 l/m 6,4 km/h (2 Bft) W 270 0 min 0,0 UV-I 0 W/m 8,5 C 10,6 C 12,9 km/h (3 Bft)
27.05.2022 05:24 10,6 C 10,6 C 87 % 1022,1 hPa 0,0 l/m 6,4 km/h (2 Bft) W-SW 247 0 min 0,0 UV-I 0 W/m 8,5 C 10,6 C 11,3 km/h (2 Bft)
27.05.2022 05:25 10,6 C 10,0 C 87 % 1022,2 hPa 0,0 l/m 4,8 km/h (1 Bft) SW 225 0 min 0,0 UV-I 0 W/m 8,5 C 10,6 C 8,0 km/h (2 Bft)
27.05.2022 05:26 10,6 C 10,0 C 87 % 1022,1 hPa 0,0 l/m 6,4 km/h (2 Bft) SW 225 0 min 0,0 UV-I 0 W/m 8,5 C 10,6 C 9,7 km/h (2 Bft)
27.05.2022 05:27 10,6 C 10,0 C 87 % 1022,1 hPa 0,0 l/m 6,4 km/h (2 Bft) SW 225 0 min 0,0 UV-I 0 W/m 8,5 C 10,6 C 8,0 km/h (2 Bft)
27.05.2022 05:28 10,6 C 10,0 C 87 % 1022,1 hPa 0,0 l/m 8,0 km/h (2 Bft) SW 225 0 min 0,0 UV-I 0 W/m 8,5 C 9,5 C 12,9 km/h (3 Bft)
27.05.2022 05:29 10,6 C 10,0 C 87 % 1022,1 hPa 0,0 l/m 6,4 km/h (2 Bft) S-SW 202 0 min 0,0 UV-I 0 W/m 8,5 C 10,6 C 8,0 km/h (2 Bft)
27.05.2022 05:30 10,6 C 10,0 C 87 % 1022,1 hPa 0,0 l/m 8,0 km/h (2 Bft) S-SW 202 0 min 0,0 UV-I 0 W/m 8,5 C 9,5 C 11,3 km/h (2 Bft)
27.05.2022 05:31 10,6 C 10,0 C 87 % 1022,1 hPa 0,0 l/m 6,4 km/h (2 Bft) SW 225 0 min 0,0 UV-I 0 W/m 8,5 C 10,6 C 9,7 km/h (2 Bft)
27.05.2022 05:32 10,6 C 10,0 C 88 % 1022,1 hPa 0,0 l/m 11,3 km/h (2 Bft) SW 225 0 min 0,0 UV-I 0 W/m 8,7 C 7,6 C 16,1 km/h (3 Bft)
27.05.2022 05:33 10,6 C 10,0 C 88 % 1022,1 hPa 0,0 l/m 11,3 km/h (2 Bft) SW 225 0 min 0,0 UV-I 0 W/m 8,7 C 7,6 C 17,7 km/h (3 Bft)
27.05.2022 05:34 10,6 C 10,0 C 88 % 1022,1 hPa 0,0 l/m 6,4 km/h (2 Bft) S-SW 202 0 min 0,0 UV-I 0 W/m 8,7 C 10,6 C 9,7 km/h (2 Bft)
27.05.2022 05:35 10,5 C 10,0 C 88 % 1022,1 hPa 0,0 l/m 8,0 km/h (2 Bft) SW 225 0 min 0,0 UV-I 0 W/m 8,6 C 9,4 C 9,7 km/h (2 Bft)
27.05.2022 05:36 10,6 C 10,0 C 88 % 1022,1 hPa 0,0 l/m 8,0 km/h (2 Bft) SW 225 0 min 0,0 UV-I 0 W/m 8,7 C 9,5 C 12,9 km/h (3 Bft)
27.05.2022 05:37 10,5 C 10,0 C 88 % 1022,1 hPa 0,0 l/m 6,4 km/h (2 Bft) S-SW 202 0 min 0,0 UV-I 0 W/m 8,6 C 10,5 C 9,7 km/h (2 Bft)
27.05.2022 05:38 10,5 C 10,0 C 88 % 1022,1 hPa 0,0 l/m 8,0 km/h (2 Bft) S 180 0 min 0,0 UV-I 0 W/m 8,6 C 9,4 C 12,9 km/h (3 Bft)
27.05.2022 05:39 10,5 C 10,0 C 88 % 1022,1 hPa 0,0 l/m 9,7 km/h (2 Bft) S-SW 202 0 min 0,0 UV-I 0 W/m 8,6 C 8,3 C 12,9 km/h (3 Bft)
27.05.2022 05:40 10,5 C 10,0 C 88 % 1022,1 hPa 0,0 l/m 6,4 km/h (2 Bft) S 180 0 min 0,0 UV-I 0 W/m 8,6 C 10,5 C 11,3 km/h (2 Bft)
27.05.2022 05:41 10,4 C 10,0 C 88 % 1022,0 hPa 0,0 l/m 8,0 km/h (2 Bft) S-SW 202 0 min 0,0 UV-I 0 W/m 8,5 C 9,3 C 12,9 km/h (3 Bft)
27.05.2022 05:42 10,4 C 10,0 C 88 % 1022,0 hPa 0,0 l/m 9,7 km/h (2 Bft) S-SW 202 0 min 0,0 UV-I 0 W/m 8,5 C 8,2 C 11,3 km/h (2 Bft)
27.05.2022 05:43 10,4 C 10,0 C 88 % 1022,0 hPa 0,0 l/m 9,7 km/h (2 Bft) SW 225 0 min 0,0 UV-I 0 W/m 8,5 C 8,2 C 14,5 km/h (3 Bft)
27.05.2022 05:44 10,4 C 10,0 C 88 % 1022,0 hPa 0,0 l/m 8,0 km/h (2 Bft) S-SW 202 0 min 0,0 UV-I 0 W/m 8,5 C 9,3 C 11,3 km/h (2 Bft)
27.05.2022 05:45 10,4 C 10,0 C 89 % 1022,0 hPa 0,0 l/m 9,7 km/h (2 Bft) SW 225 0 min 0,0 UV-I 0 W/m 8,7 C 8,2 C 12,9 km/h (3 Bft)
27.05.2022 05:46 10,4 C 10,0 C 89 % 1022,1 hPa 0,0 l/m 9,7 km/h (2 Bft) S-SW 202 0 min 0,0 UV-I 0 W/m 8,7 C 8,2 C 14,5 km/h (3 Bft)
27.05.2022 05:47 10,4 C 9,4 C 89 % 1022,0 hPa 0,0 l/m 9,7 km/h (2 Bft) S-SW 202 0 min 0,0 UV-I 0 W/m 8,7 C 8,2 C 16,1 km/h (3 Bft)
27.05.2022 05:48 10,3 C 9,4 C 89 % 1022,0 hPa 0,0 l/m 6,4 km/h (2 Bft) SW 225 0 min 0,0 UV-I 0 W/m 8,6 C 10,3 C 9,7 km/h (2 Bft)
27.05.2022 05:49 10,4 C 9,4 C 89 % 1022,0 hPa 0,0 l/m 8,0 km/h (2 Bft) SW 225 0 min 0,0 UV-I 0 W/m 8,7 C 9,3 C 11,3 km/h (2 Bft)
27.05.2022 05:50 10,4 C 9,4 C 89 % 1022,0 hPa 0,0 l/m 9,7 km/h (2 Bft) S-SW 202 0 min 0,0 UV-I 0 W/m 8,7 C 8,2 C 11,3 km/h (2 Bft)
27.05.2022 05:51 10,3 C 9,4 C 89 % 1022,0 hPa 0,0 l/m 9,7 km/h (2 Bft) S 180 0 min 0,0 UV-I 0 W/m 8,6 C 8,1 C 14,5 km/h (3 Bft)
27.05.2022 05:52 10,3 C 9,4 C 89 % 1022,1 hPa 0,0 l/m 8,0 km/h (2 Bft) S-SW 202 0 min 0,0 UV-I 0 W/m 8,6 C 9,2 C 9,7 km/h (2 Bft)
27.05.2022 05:53 10,3 C 9,4 C 89 % 1022,0 hPa 0,0 l/m 8,0 km/h (2 Bft) SW 225 0 min 0,0 UV-I 0 W/m 8,6 C 9,2 C 9,7 km/h (2 Bft)
27.05.2022 05:54 10,4 C 9,4 C 89 % 1022,1 hPa 0,0 l/m 9,7 km/h (2 Bft) S-SW 202 0 min 0,0 UV-I 0 W/m 8,7 C 8,2 C 12,9 km/h (3 Bft)
27.05.2022 05:55 10,4 C 9,4 C 89 % 1021,9 hPa 0,0 l/m 6,4 km/h (2 Bft) SW 225 0 min 0,0 UV-I 0 W/m 8,7 C 10,4 C 11,3 km/h (2 Bft)
27.05.2022 05:56 10,3 C 10,0 C 89 % 1021,9 hPa 0,0 l/m 4,8 km/h (1 Bft) S-SW 202 0 min 0,0 UV-I 0 W/m 8,6 C 10,3 C 8,0 km/h (2 Bft)
27.05.2022 05:57 10,4 C 10,0 C 89 % 1022,0 hPa 0,0 l/m 9,7 km/h (2 Bft) S-SW 202 0 min 0,0 UV-I 0 W/m 8,7 C 8,2 C 11,3 km/h (2 Bft)
27.05.2022 05:58 10,4 C 10,0 C 89 % 1021,9 hPa 0,0 l/m 9,7 km/h (2 Bft) S-SW 202 0 min 0,0 UV-I 0 W/m 8,7 C 8,2 C 14,5 km/h (3 Bft)
27.05.2022 05:59 10,4 C 10,0 C 89 % 1022,0 hPa 0,0 l/m 8,0 km/h (2 Bft) SW 225 0 min 0,0 UV-I 0 W/m 8,7 C 9,3 C 9,7 km/h (2 Bft)
27.05.2022 06:00 10,3 C 9,4 C 89 % 1021,9 hPa 0,0 l/m 6,4 km/h (2 Bft) S-SW 202 0 min 0,0 UV-I 0 W/m 8,6 C 10,3 C 11,3 km/h (2 Bft)
27.05.2022 06:01 10,4 C 9,4 C 89 % 1021,9 hPa 0,0 l/m 6,4 km/h (2 Bft) SW 225 0 min 0,0 UV-I 0 W/m 8,7 C 10,4 C 12,9 km/h (3 Bft)
27.05.2022 06:02 10,3 C 9,4 C 89 % 1021,9 hPa 0,0 l/m 6,4 km/h (2 Bft) SW 225 0 min 0,0 UV-I 0 W/m 8,6 C 10,3 C 8,0 km/h (2 Bft)
27.05.2022 06:03 10,3 C 10,0 C 89 % 1022,0 hPa 0,0 l/m 8,0 km/h (2 Bft) S-SW 202 0 min 0,0 UV-I 0 W/m 8,6 C 9,2 C 11,3 km/h (2 Bft)
27.05.2022 06:04 10,3 C 10,0 C 90 % 1021,9 hPa 0,0 l/m 8,0 km/h (2 Bft) S-SW 202 0 min 0,0 UV-I 5 W/m 8,7 C 9,2 C 9,7 km/h (2 Bft)
27.05.2022 06:05 10,3 C 10,0 C 90 % 1021,9 hPa 0,0 l/m 8,0 km/h (2 Bft) S-SW 202 0 min 0,0 UV-I 5 W/m 8,7 C 9,2 C 9,7 km/h (2 Bft)
27.05.2022 06:06 10,3 C 10,0 C 90 % 1021,9 hPa 0,0 l/m 8,0 km/h (2 Bft) S-SW 202 0 min 0,0 UV-I 5 W/m 8,7 C 9,2 C 12,9 km/h (3 Bft)
27.05.2022 06:07 10,3 C 10,0 C 90 % 1022,0 hPa 0,0 l/m 8,0 km/h (2 Bft) S-SW 202 0 min 0,0 UV-I 5 W/m 8,7 C 9,2 C 11,3 km/h (2 Bft)
27.05.2022 06:08 10,3 C 10,0 C 90 % 1022,0 hPa 0,0 l/m 4,8 km/h (1 Bft) S-SW 202 0 min 0,0 UV-I 5 W/m 8,7 C 10,3 C 6,4 km/h (2 Bft)
27.05.2022 06:09 10,3 C 10,0 C 90 % 1021,9 hPa 0,0 l/m 6,4 km/h (2 Bft) S-SW 202 0 min 0,0 UV-I 7 W/m 8,7 C 10,3 C 8,0 km/h (2 Bft)
27.05.2022 06:10 10,3 C 10,0 C 90 % 1022,1 hPa 0,0 l/m 8,0 km/h (2 Bft) SW 225 0 min 0,0 UV-I 7 W/m 8,7 C 9,2 C 14,5 km/h (3 Bft)
27.05.2022 06:11 10,3 C 10,0 C 90 % 1021,9 hPa 0,0 l/m 8,0 km/h (2 Bft) SW 225 0 min 0,0 UV-I 7 W/m 8,7 C 9,2 C 17,7 km/h (3 Bft)
27.05.2022 06:12 10,3 C 10,0 C 90 % 1021,9 hPa 0,0 l/m 4,8 km/h (1 Bft) SW 225 0 min 0,0 UV-I 7 W/m 8,7 C 10,3 C 6,4 km/h (2 Bft)
27.05.2022 06:13 10,3 C 10,0 C 90 % 1022,0 hPa 0,0 l/m 8,0 km/h (2 Bft) S-SW 202 0 min 0,0 UV-I 8 W/m 8,7 C 9,2 C 11,3 km/h (2 Bft)
27.05.2022 06:14 10,3 C 10,0 C 90 % 1022,0 hPa 0,0 l/m 6,4 km/h (2 Bft) S-SW 202 0 min 0,0 UV-I 7 W/m 8,7 C 10,3 C 9,7 km/h (2 Bft)
27.05.2022 06:15 10,3 C 10,0 C 90 % 1022,0 hPa 0,0 l/m 8,0 km/h (2 Bft) SW 225 0 min 0,0 UV-I 7 W/m 8,7 C 9,2 C 16,1 km/h (3 Bft)
27.05.2022 06:16 10,3 C 10,0 C 90 % 1022,0 hPa 0,0 l/m 11,3 km/h (2 Bft) S-SW 202 0 min 0,0 UV-I 9 W/m 8,7 C 7,2 C 14,5 km/h (3 Bft)
27.05.2022 06:17 10,3 C 10,0 C 90 % 1022,0 hPa 0,0 l/m 8,0 km/h (2 Bft) S-SW 202 0 min 0,0 UV-I 9 W/m 8,7 C 9,2 C 12,9 km/h (3 Bft)
27.05.2022 06:18 10,3 C 10,0 C 90 % 1022,0 hPa 0,0 l/m 9,7 km/h (2 Bft) S 180 0 min 0,0 UV-I 11 W/m 8,7 C 8,1 C 11,3 km/h (2 Bft)
27.05.2022 06:19 10,3 C 10,0 C 90 % 1022,0 hPa 0,0 l/m 9,7 km/h (2 Bft) S 180 0 min 0,0 UV-I 11 W/m 8,7 C 8,1 C 14,5 km/h (3 Bft)
27.05.2022 06:20 10,3 C 10,0 C 90 % 1022,0 hPa 0,0 l/m 8,0 km/h (2 Bft) S-SW 202 0 min 0,0 UV-I 11 W/m 8,7 C 9,2 C 16,1 km/h (3 Bft)
27.05.2022 06:21 10,3 C 10,0 C 90 % 1022,0 hPa 0,0 l/m 9,7 km/h (2 Bft) S-SW 202 0 min 0,0 UV-I 11 W/m 8,7 C 8,1 C 11,3 km/h (2 Bft)
27.05.2022 06:22 10,3 C 10,0 C 90 % 1021,9 hPa 0,0 l/m 8,0 km/h (2 Bft) S-SW 202 0 min 0,0 UV-I 12 W/m 8,7 C 9,2 C 12,9 km/h (3 Bft)
27.05.2022 06:23 10,3 C 10,0 C 90 % 1021,9 hPa 0,0 l/m 8,0 km/h (2 Bft) S-SW 202 0 min 0,0 UV-I 11 W/m 8,7 C 9,2 C 11,3 km/h (2 Bft)
27.05.2022 06:24 10,3 C 10,0 C 90 % 1022,0 hPa 0,0 l/m 8,0 km/h (2 Bft) S-SW 202 0 min 0,0 UV-I 12 W/m 8,7 C 9,2 C 12,9 km/h (3 Bft)
27.05.2022 06:25 10,3 C 10,0 C 90 % 1021,9 hPa 0,0 l/m 8,0 km/h (2 Bft) S-SW 202 0 min 0,0 UV-I 12 W/m 8,7 C 9,2 C 12,9 km/h (3 Bft)
27.05.2022 06:26 10,3 C 10,0 C 90 % 1021,9 hPa 0,0 l/m 6,4 km/h (2 Bft) SW 225 0 min 0,0 UV-I 11 W/m 8,7 C 10,3 C 12,9 km/h (3 Bft)
27.05.2022 06:27 10,3 C 10,0 C 91 % 1022,0 hPa 0,0 l/m 8,0 km/h (2 Bft) SW 225 0 min 0,0 UV-I 11 W/m 8,9 C 9,2 C 12,9 km/h (3 Bft)
27.05.2022 06:28 10,3 C 10,0 C 91 % 1022,0 hPa 0,0 l/m 8,0 km/h (2 Bft) S-SW 202 0 min 0,0 UV-I 11 W/m 8,9 C 9,2 C 14,5 km/h (3 Bft)
27.05.2022 06:29 10,3 C 10,0 C 91 % 1021,9 hPa 0,0 l/m 9,7 km/h (2 Bft) S-SW 202 0 min 0,0 UV-I 12 W/m 8,9 C 8,1 C 14,5 km/h (3 Bft)
27.05.2022 06:30 10,3 C 10,0 C 91 % 1021,9 hPa 0,0 l/m 8,0 km/h (2 Bft) S-SW 202 0 min 0,0 UV-I 13 W/m 8,9 C 9,2 C 9,7 km/h (2 Bft)
27.05.2022 06:31 10,3 C 10,0 C 91 % 1022,0 hPa 0,0 l/m 6,4 km/h (2 Bft) SW 225 0 min 0,0 UV-I 14 W/m 8,9 C 10,3 C 11,3 km/h (2 Bft)
27.05.2022 06:32 10,3 C 10,0 C 91 % 1022,0 hPa 0,0 l/m 9,7 km/h (2 Bft) S-SW 202 0 min 0,0 UV-I 14 W/m 8,9 C 8,1 C 12,9 km/h (3 Bft)
27.05.2022 06:33 10,3 C 10,0 C 91 % 1021,9 hPa 0,0 l/m 8,0 km/h (2 Bft) S-SW 202 0 min 0,0 UV-I 14 W/m 8,9 C 9,2 C 11,3 km/h (2 Bft)
27.05.2022 06:34 10,3 C 10,0 C 91 % 1022,0 hPa 0,0 l/m 8,0 km/h (2 Bft) S-SW 202 0 min 0,0 UV-I 12 W/m 8,9 C 9,2 C 11,3 km/h (2 Bft)
27.05.2022 06:35 10,3 C 10,0 C 91 % 1022,0 hPa 0,0 l/m 11,3 km/h (2 Bft) S-SW 202 0 min 0,0 UV-I 12 W/m 8,9 C 7,2 C 14,5 km/h (3 Bft)
27.05.2022 06:36 10,3 C 10,0 C 91 % 1021,9 hPa 0,0 l/m 11,3 km/h (2 Bft) S-SW 202 0 min 0,0 UV-I 16 W/m 8,9 C 7,2 C 12,9 km/h (3 Bft)
27.05.2022 06:37 10,3 C 10,0 C 91 % 1021,8 hPa 0,0 l/m 9,7 km/h (2 Bft) SW 225 0 min 0,0 UV-I 16 W/m 8,9 C 8,1 C 12,9 km/h (3 Bft)
27.05.2022 06:38 10,3 C 10,0 C 91 % 1021,9 hPa 0,0 l/m 9,7 km/h (2 Bft) S-SW 202 0 min 0,0 UV-I 14 W/m 8,9 C 8,1 C 12,9 km/h (3 Bft)
27.05.2022 06:39 10,3 C 10,0 C 91 % 1022,0 hPa 0,0 l/m 9,7 km/h (2 Bft) S-SW 202 0 min 0,0 UV-I 14 W/m 8,9 C 8,1 C 12,9 km/h (3 Bft)
27.05.2022 06:40 10,3 C 10,0 C 91 % 1021,9 hPa 0,0 l/m 9,7 km/h (2 Bft) S-SW 202 0 min 0,0 UV-I 16 W/m 8,9 C 8,1 C 12,9 km/h (3 Bft)
27.05.2022 06:41 10,3 C 10,0 C 91 % 1021,9 hPa 0,0 l/m 9,7 km/h (2 Bft) S-SW 202 0 min 0,0 UV-I 16 W/m 8,9 C 8,1 C 16,1 km/h (3 Bft)
27.05.2022 06:42 10,3 C 10,0 C 91 % 1021,9 hPa 0,0 l/m 14,5 km/h (3 Bft) S-SW 202 0 min 0,0 UV-I 13 W/m 8,9 C 5,7 C 17,7 km/h (3 Bft)
27.05.2022 06:43 10,3 C 10,0 C 91 % 1021,9 hPa 0,0 l/m 8,0 km/h (2 Bft) SW 225 0 min 0,0 UV-I 12 W/m 8,9 C 9,2 C 14,5 km/h (3 Bft)
27.05.2022 06:44 10,3 C 10,0 C 91 % 1021,9 hPa 0,0 l/m 9,7 km/h (2 Bft) S-SW 202 0 min 0,0 UV-I 12 W/m 8,9 C 8,1 C 12,9 km/h (3 Bft)
27.05.2022 06:45 10,3 C 10,0 C 91 % 1021,9 hPa 0,0 l/m 8,0 km/h (2 Bft) S-SW 202 0 min 0,0 UV-I 14 W/m 8,9 C 9,2 C 11,3 km/h (2 Bft)
27.05.2022 06:46 10,3 C 10,0 C 91 % 1021,9 hPa 0,0 l/m 8,0 km/h (2 Bft) S-SW 202 0 min 0,0 UV-I 16 W/m 8,9 C 9,2 C 12,9 km/h (3 Bft)
27.05.2022 06:47 10,3 C 10,0 C 91 % 1021,9 hPa 0,2 l/m 8,0 km/h (2 Bft) S-SW 202 0 min 0,0 UV-I 16 W/m 8,9 C 9,2 C 9,7 km/h (2 Bft)
27.05.2022 06:48 10,3 C 10,0 C 91 % 1021,9 hPa 0,0 l/m 6,4 km/h (2 Bft) S-SW 202 0 min 0,0 UV-I 18 W/m 8,9 C 10,3 C 11,3 km/h (2 Bft)
27.05.2022 06:49 10,3 C 10,0 C 91 % 1021,9 hPa 0,0 l/m 6,4 km/h (2 Bft) S 180 0 min 0,0 UV-I 18 W/m 8,9 C 10,3 C 11,3 km/h (2 Bft)
27.05.2022 06:50 10,4 C 10,0 C 91 % 1021,9 hPa 0,0 l/m 11,3 km/h (2 Bft) S-SW 202 0 min 0,0 UV-I 19 W/m 9,0 C 7,3 C 14,5 km/h (3 Bft)
27.05.2022 06:51 10,4 C 10,0 C 91 % 1021,9 hPa 0,0 l/m 11,3 km/h (2 Bft) S 180 0 min 0,0 UV-I 19 W/m 9,0 C 7,3 C 12,9 km/h (3 Bft)
27.05.2022 06:52 10,3 C 10,0 C 91 % 1021,9 hPa 0,0 l/m 11,3 km/h (2 Bft) S-SW 202 0 min 0,0 UV-I 19 W/m 8,9 C 7,2 C 17,7 km/h (3 Bft)
27.05.2022 06:53 10,4 C 10,0 C 91 % 1021,8 hPa 0,0 l/m 9,7 km/h (2 Bft) S 180 0 min 0,0 UV-I 19 W/m 9,0 C 8,2 C 11,3 km/h (2 Bft)
27.05.2022 06:54 10,4 C 10,0 C 91 % 1021,9 hPa 0,0 l/m 8,0 km/h (2 Bft) SW 225 0 min 0,0 UV-I 19 W/m 9,0 C 9,3 C 11,3 km/h (2 Bft)
27.05.2022 06:55 10,4 C 10,0 C 91 % 1021,9 hPa 0,0 l/m 9,7 km/h (2 Bft) S-SW 202 0 min 0,0 UV-I 19 W/m 9,0 C 8,2 C 12,9 km/h (3 Bft)
27.05.2022 06:56 10,4 C 10,0 C 91 % 1021,9 hPa 0,0 l/m 6,4 km/h (2 Bft) S-SW 202 0 min 0,0 UV-I 19 W/m 9,0 C 10,4 C 9,7 km/h (2 Bft)
27.05.2022 06:57 10,4 C 10,0 C 91 % 1021,9 hPa 0,0 l/m 9,7 km/h (2 Bft) S-SW 202 0 min 0,0 UV-I 21 W/m 9,0 C 8,2 C 12,9 km/h (3 Bft)
27.05.2022 06:58 10,4 C 10,0 C 91 % 1021,9 hPa 0,0 l/m 9,7 km/h (2 Bft) S-SW 202 0 min 0,0 UV-I 21 W/m 9,0 C 8,2 C 14,5 km/h (3 Bft)
27.05.2022 06:59 10,4 C 10,0 C 91 % 1021,9 hPa 0,0 l/m 11,3 km/h (2 Bft) S-SW 202 0 min 0,0 UV-I 20 W/m 9,0 C 7,3 C 16,1 km/h (3 Bft)
27.05.2022 07:00 10,4 C 10,0 C 91 % 1021,8 hPa 0,0 l/m 12,9 km/h (3 Bft) S-SW 202 0 min 0,0 UV-I 21 W/m 9,0 C 6,5 C 16,1 km/h (3 Bft)
27.05.2022 07:01 10,4 C 10,0 C 91 % 1021,9 hPa 0,0 l/m 11,3 km/h (2 Bft) S-SW 202 0 min 0,0 UV-I 19 W/m 9,0 C 7,3 C 16,1 km/h (3 Bft)
27.05.2022 07:02 10,4 C 10,0 C 91 % 1021,9 hPa 0,0 l/m 9,7 km/h (2 Bft) S-SW 202 0 min 0,0 UV-I 21 W/m 9,0 C 8,2 C 14,5 km/h (3 Bft)
27.05.2022 07:03 10,4 C 10,0 C 91 % 1021,9 hPa 0,0 l/m 9,7 km/h (2 Bft) S-SW 202 0 min 0,0 UV-I 21 W/m 9,0 C 8,2 C 12,9 km/h (3 Bft)
27.05.2022 07:04 10,4 C 10,0 C 91 % 1022,0 hPa 0,0 l/m 8,0 km/h (2 Bft) S-SW 202 0 min 0,0 UV-I 21 W/m 9,0 C 9,3 C 12,9 km/h (3 Bft)
27.05.2022 07:05 10,4 C 10,0 C 91 % 1021,9 hPa 0,0 l/m 11,3 km/h (2 Bft) S 180 0 min 0,0 UV-I 22 W/m 9,0 C 7,3 C 14,5 km/h (3 Bft)
27.05.2022 07:06 10,4 C 10,0 C 91 % 1022,0 hPa 0,0 l/m 9,7 km/h (2 Bft) S-SW 202 0 min 0,0 UV-I 25 W/m 9,0 C 8,2 C 14,5 km/h (3 Bft)
27.05.2022 07:07 10,4 C 10,0 C 91 % 1021,9 hPa 0,0 l/m 11,3 km/h (2 Bft) SW 225 0 min 0,0 UV-I 23 W/m 9,0 C 7,3 C 16,1 km/h (3 Bft)
27.05.2022 07:08 10,4 C 10,0 C 91 % 1021,9 hPa 0,0 l/m 9,7 km/h (2 Bft) S-SW 202 0 min 0,0 UV-I 25 W/m 9,0 C 8,2 C 14,5 km/h (3 Bft)
27.05.2022 07:09 10,4 C 10,0 C 91 % 1022,0 hPa 0,0 l/m 8,0 km/h (2 Bft) S-SW 202 0 min 0,0 UV-I 26 W/m 9,0 C 9,3 C 12,9 km/h (3 Bft)
27.05.2022 07:10 10,4 C 10,0 C 91 % 1021,9 hPa 0,0 l/m 6,4 km/h (2 Bft) S 180 0 min 0,0 UV-I 26 W/m 9,0 C 10,4 C 8,0 km/h (2 Bft)
27.05.2022 07:11 10,4 C 10,0 C 91 % 1021,8 hPa 0,0 l/m 9,7 km/h (2 Bft) S-SW 202 0 min 0,0 UV-I 26 W/m 9,0 C 8,2 C 14,5 km/h (3 Bft)
27.05.2022 07:12 10,4 C 10,0 C 91 % 1021,9 hPa 0,0 l/m 9,7 km/h (2 Bft) S-SW 202 0 min 0,0 UV-I 26 W/m 9,0 C 8,2 C 12,9 km/h (3 Bft)
27.05.2022 07:13 10,4 C 10,0 C 91 % 1021,9 hPa 0,0 l/m 8,0 km/h (2 Bft) SW 225 0 min 0,0 UV-I 26 W/m 9,0 C 9,3 C 11,3 km/h (2 Bft)
27.05.2022 07:14 10,4 C 10,0 C 91 % 1021,9 hPa 0,0 l/m 6,4 km/h (2 Bft) S-SW 202 0 min 0,0 UV-I 25 W/m 9,0 C 10,4 C 8,0 km/h (2 Bft)
27.05.2022 07:15 10,5 C 10,0 C 91 % 1021,9 hPa 0,0 l/m 6,4 km/h (2 Bft) S-SW 202 0 min 0,0 UV-I 25 W/m 9,1 C 10,5 C 11,3 km/h (2 Bft)
27.05.2022 07:16 10,5 C 10,0 C 91 % 1021,9 hPa 0,0 l/m 8,0 km/h (2 Bft) S-SW 202 0 min 0,0 UV-I 23 W/m 9,1 C 9,4 C 9,7 km/h (2 Bft)
27.05.2022 07:17 10,5 C 10,0 C 91 % 1021,9 hPa 0,0 l/m 6,4 km/h (2 Bft) S 180 0 min 0,0 UV-I 26 W/m 9,1 C 10,5 C 12,9 km/h (3 Bft)
27.05.2022 07:18 10,4 C 10,0 C 91 % 1021,9 hPa 0,0 l/m 11,3 km/h (2 Bft) S-SW 202 0 min 0,0 UV-I 26 W/m 9,0 C 7,3 C 14,5 km/h (3 Bft)
27.05.2022 07:19 10,5 C 10,0 C 91 % 1021,9 hPa 0,0 l/m 9,7 km/h (2 Bft) SW 225 0 min 0,0 UV-I 28 W/m 9,1 C 8,3 C 12,9 km/h (3 Bft)
27.05.2022 07:20 10,5 C 10,0 C 91 % 1021,8 hPa 0,0 l/m 6,4 km/h (2 Bft) SW 225 0 min 0,0 UV-I 32 W/m 9,1 C 10,5 C 11,3 km/h (2 Bft)
27.05.2022 07:21 10,4 C 10,0 C 91 % 1021,9 hPa 0,0 l/m 8,0 km/h (2 Bft) S-SW 202 0 min 0,0 UV-I 32 W/m 9,0 C 9,3 C 11,3 km/h (2 Bft)
27.05.2022 07:22 10,5 C 10,0 C 91 % 1021,9 hPa 0,2 l/m 8,0 km/h (2 Bft) SW 225 0 min 0,0 UV-I 33 W/m 9,1 C 9,4 C 11,3 km/h (2 Bft)
27.05.2022 07:23 10,5 C 10,0 C 91 % 1021,9 hPa 0,0 l/m 6,4 km/h (2 Bft) S-SW 202 0 min 0,0 UV-I 33 W/m 9,1 C 10,5 C 9,7 km/h (2 Bft)
27.05.2022 07:24 10,5 C 10,0 C 91 % 1021,9 hPa 0,0 l/m 8,0 km/h (2 Bft) S-SW 202 0 min 0,0 UV-I 32 W/m 9,1 C 9,4 C 11,3 km/h (2 Bft)
27.05.2022 07:25 10,5 C 10,0 C 92 % 1022,0 hPa 0,0 l/m 8,0 km/h (2 Bft) SW 225 0 min 0,0 UV-I 30 W/m 9,3 C 9,4 C 9,7 km/h (2 Bft)
27.05.2022 07:26 10,5 C 10,0 C 91 % 1021,9 hPa 0,0 l/m 6,4 km/h (2 Bft) SW 225 0 min 0,0 UV-I 33 W/m 9,1 C 10,5 C 11,3 km/h (2 Bft)
27.05.2022 07:27 10,5 C 10,0 C 91 % 1021,9 hPa 0,0 l/m 9,7 km/h (2 Bft) SW 225 0 min 0,0 UV-I 32 W/m 9,1 C 8,3 C 11,3 km/h (2 Bft)
27.05.2022 07:28 10,6 C 10,0 C 91 % 1021,9 hPa 0,0 l/m 8,0 km/h (2 Bft) S-SW 202 0 min 0,0 UV-I 32 W/m 9,2 C 9,5 C 14,5 km/h (3 Bft)
27.05.2022 07:29 10,6 C 10,0 C 92 % 1021,9 hPa 0,0 l/m 8,0 km/h (2 Bft) S-SW 202 0 min 0,0 UV-I 32 W/m 9,4 C 9,5 C 11,3 km/h (2 Bft)
27.05.2022 07:30 10,6 C 10,0 C 92 % 1022,0 hPa 0,0 l/m 9,7 km/h (2 Bft) S-SW 202 0 min 0,0 UV-I 32 W/m 9,4 C 8,4 C 11,3 km/h (2 Bft)
27.05.2022 07:31 10,5 C 10,0 C 92 % 1022,0 hPa 0,0 l/m 9,7 km/h (2 Bft) S-SW 202 0 min 0,0 UV-I 37 W/m 9,3 C 8,3 C 11,3 km/h (2 Bft)
27.05.2022 07:32 10,6 C 10,0 C 92 % 1021,9 hPa 0,0 l/m 6,4 km/h (2 Bft) S-SW 202 0 min 0,0 UV-I 39 W/m 9,4 C 10,6 C 9,7 km/h (2 Bft)
27.05.2022 07:33 10,6 C 10,6 C 91 % 1022,0 hPa 0,0 l/m 6,4 km/h (2 Bft) S-SW 202 0 min 0,0 UV-I 40 W/m 9,2 C 10,6 C 12,9 km/h (3 Bft)
27.05.2022 07:34 10,6 C 10,6 C 92 % 1021,9 hPa 0,0 l/m 8,0 km/h (2 Bft) S 180 0 min 0,0 UV-I 42 W/m 9,4 C 9,5 C 11,3 km/h (2 Bft)
27.05.2022 07:35 10,6 C 10,6 C 92 % 1022,0 hPa 0,0 l/m 9,7 km/h (2 Bft) S-SW 202 0 min 0,0 UV-I 40 W/m 9,4 C 8,4 C 14,5 km/h (3 Bft)
27.05.2022 07:36 10,6 C 10,6 C 91 % 1021,9 hPa 0,0 l/m 6,4 km/h (2 Bft) W-SW 247 0 min 0,0 UV-I 40 W/m 9,2 C 10,6 C 12,9 km/h (3 Bft)
27.05.2022 07:37 10,6 C 10,6 C 91 % 1021,9 hPa 0,0 l/m 9,7 km/h (2 Bft) S-SW 202 0 min 0,0 UV-I 42 W/m 9,2 C 8,4 C 16,1 km/h (3 Bft)
27.05.2022 07:38 10,6 C 10,6 C 91 % 1021,9 hPa 0,0 l/m 8,0 km/h (2 Bft) S-SW 202 0 min 0,0 UV-I 44 W/m 9,2 C 9,5 C 11,3 km/h (2 Bft)
27.05.2022 07:39 10,6 C 10,6 C 91 % 1021,9 hPa 0,0 l/m 6,4 km/h (2 Bft) S-SW 202 0 min 0,0 UV-I 49 W/m 9,2 C 10,6 C 9,7 km/h (2 Bft)
27.05.2022 07:40 10,6 C 10,6 C 91 % 1021,9 hPa 0,0 l/m 6,4 km/h (2 Bft) S-SW 202 0 min 0,0 UV-I 55 W/m 9,2 C 10,6 C 8,0 km/h (2 Bft)
27.05.2022 07:41 10,6 C 10,6 C 92 % 1021,9 hPa 0,0 l/m 6,4 km/h (2 Bft) SW 225 0 min 0,0 UV-I 44 W/m 9,4 C 10,6 C 9,7 km/h (2 Bft)
27.05.2022 07:42 10,6 C 10,6 C 92 % 1021,9 hPa 0,0 l/m 9,7 km/h (2 Bft) S-SW 202 0 min 0,0 UV-I 44 W/m 9,4 C 8,4 C 16,1 km/h (3 Bft)
27.05.2022 07:43 10,6 C 10,6 C 92 % 1022,0 hPa 0,0 l/m 9,7 km/h (2 Bft) S 180 0 min 0,0 UV-I 47 W/m 9,4 C 8,4 C 16,1 km/h (3 Bft)
27.05.2022 07:44 10,6 C 10,6 C 92 % 1022,0 hPa 0,0 l/m 11,3 km/h (2 Bft) S-SW 202 0 min 0,0 UV-I 53 W/m 9,4 C 7,6 C 14,5 km/h (3 Bft)
27.05.2022 07:45 10,6 C 10,6 C 92 % 1021,9 hPa 0,0 l/m 8,0 km/h (2 Bft) S-SW 202 0 min 0,0 UV-I 49 W/m 9,4 C 9,5 C 11,3 km/h (2 Bft)
27.05.2022 07:46 10,6 C 10,6 C 92 % 1021,9 hPa 0,0 l/m 4,8 km/h (1 Bft) SW 225 0 min 0,0 UV-I 47 W/m 9,4 C 10,6 C 9,7 km/h (2 Bft)
27.05.2022 07:47 10,6 C 10,6 C 92 % 1021,9 hPa 0,0 l/m 9,7 km/h (2 Bft) S-SW 202 0 min 0,0 UV-I 44 W/m 9,4 C 8,4 C 12,9 km/h (3 Bft)
27.05.2022 07:48 10,6 C 10,6 C 92 % 1021,9 hPa 0,0 l/m 11,3 km/h (2 Bft) S-SW 202 0 min 0,0 UV-I 44 W/m 9,4 C 7,6 C 16,1 km/h (3 Bft)
27.05.2022 07:49 10,6 C 10,6 C 91 % 1021,8 hPa 0,0 l/m 8,0 km/h (2 Bft) S-SW 202 0 min 0,0 UV-I 49 W/m 9,2 C 9,5 C 14,5 km/h (3 Bft)
27.05.2022 07:50 10,7 C 10,6 C 92 % 1022,0 hPa 0,0 l/m 9,7 km/h (2 Bft) S-SW 202 0 min 0,0 UV-I 49 W/m 9,5 C 8,5 C 12,9 km/h (3 Bft)
27.05.2022 07:51 10,7 C 10,6 C 92 % 1021,8 hPa 0,0 l/m 9,7 km/h (2 Bft) SW 225 0 min 0,0 UV-I 49 W/m 9,5 C 8,5 C 14,5 km/h (3 Bft)
27.05.2022 07:52 10,7 C 10,6 C 92 % 1021,9 hPa 0,0 l/m 11,3 km/h (2 Bft) S 180 0 min 0,0 UV-I 48 W/m 9,5 C 7,7 C 16,1 km/h (3 Bft)
27.05.2022 07:53 10,7 C 10,6 C 91 % 1021,8 hPa 0,0 l/m 14,5 km/h (3 Bft) S-SW 202 0 min 0,0 UV-I 47 W/m 9,3 C 6,2 C 20,9 km/h (4 Bft)
27.05.2022 07:54 10,7 C 10,6 C 91 % 1021,8 hPa 0,0 l/m 9,7 km/h (2 Bft) SW 225 0 min 0,0 UV-I 46 W/m 9,3 C 8,5 C 12,9 km/h (3 Bft)
27.05.2022 07:55 10,6 C 10,6 C 92 % 1021,8 hPa 0,0 l/m 8,0 km/h (2 Bft) SW 225 0 min 0,0 UV-I 46 W/m 9,4 C 9,5 C 11,3 km/h (2 Bft)
27.05.2022 07:56 10,7 C 10,6 C 92 % 1021,9 hPa 0,0 l/m 9,7 km/h (2 Bft) S-SW 202 0 min 0,0 UV-I 51 W/m 9,5 C 8,5 C 17,7 km/h (3 Bft)
27.05.2022 07:57 10,7 C 10,6 C 91 % 1021,9 hPa 0,0 l/m 11,3 km/h (2 Bft) S-SW 202 0 min 0,0 UV-I 62 W/m 9,3 C 7,7 C 16,1 km/h (3 Bft)
27.05.2022 07:58 10,7 C 10,6 C 91 % 1021,9 hPa 0,0 l/m 11,3 km/h (2 Bft) S-SW 202 0 min 0,0 UV-I 62 W/m 9,3 C 7,7 C 14,5 km/h (3 Bft)
27.05.2022 07:59 10,7 C 10,6 C 91 % 1021,8 hPa 0,0 l/m 9,7 km/h (2 Bft) S-SW 202 0 min 0,0 UV-I 60 W/m 9,3 C 8,5 C 12,9 km/h (3 Bft)
27.05.2022 08:00 10,7 C 10,6 C 92 % 1021,9 hPa 0,0 l/m 9,7 km/h (2 Bft) SW 225 0 min 0,0 UV-I 56 W/m 9,5 C 8,5 C 14,5 km/h (3 Bft)
27.05.2022 08:01 10,7 C 10,6 C 92 % 1021,7 hPa 0,0 l/m 8,0 km/h (2 Bft) S-SW 202 0 min 0,0 UV-I 58 W/m 9,5 C 9,6 C 11,3 km/h (2 Bft)
27.05.2022 08:02 10,7 C 10,6 C 92 % 1021,8 hPa 0,0 l/m 8,0 km/h (2 Bft) S-SW 202 0 min 0,5 UV-I 77 W/m 9,5 C 9,6 C 14,5 km/h (3 Bft)
27.05.2022 08:03 10,7 C 10,6 C 91 % 1021,8 hPa 0,0 l/m 14,5 km/h (3 Bft) W-SW 247 0 min 0,5 UV-I 105 W/m 9,3 C 6,2 C 24,1 km/h (4 Bft)
27.05.2022 08:04 10,7 C 10,6 C 91 % 1021,8 hPa 0,0 l/m 11,3 km/h (2 Bft) S-SW 202 0 min 0,5 UV-I 104 W/m 9,3 C 7,7 C 14,5 km/h (3 Bft)
27.05.2022 08:05 10,8 C 10,6 C 91 % 1021,8 hPa 0,0 l/m 9,7 km/h (2 Bft) S-SW 202 0 min 0,3 UV-I 100 W/m 9,4 C 8,6 C 11,3 km/h (2 Bft)
27.05.2022 08:06 10,8 C 10,6 C 92 % 1021,9 hPa 0,0 l/m 8,0 km/h (2 Bft) S-SW 202 0 min 0,0 UV-I 100 W/m 9,6 C 9,7 C 11,3 km/h (2 Bft)
27.05.2022 08:07 10,8 C 11,1 C 92 % 1021,9 hPa 0,0 l/m 6,4 km/h (2 Bft) W-SW 247 0 min 0,0 UV-I 104 W/m 9,6 C 10,8 C 9,7 km/h (2 Bft)
27.05.2022 08:08 10,8 C 11,1 C 92 % 1021,9 hPa 0,0 l/m 9,7 km/h (2 Bft) S-SW 202 0 min 0,0 UV-I 104 W/m 9,6 C 8,6 C 19,3 km/h (3 Bft)
27.05.2022 08:09 10,8 C 10,6 C 92 % 1021,8 hPa 0,0 l/m 12,9 km/h (3 Bft) S-SW 202 0 min 0,0 UV-I 91 W/m 9,6 C 7,0 C 19,3 km/h (3 Bft)
27.05.2022 08:10 10,8 C 10,6 C 92 % 1021,8 hPa 0,2 l/m 12,9 km/h (3 Bft) SW 225 0 min 0,0 UV-I 87 W/m 9,6 C 7,0 C 19,3 km/h (3 Bft)
27.05.2022 08:11 10,8 C 10,6 C 92 % 1021,8 hPa 0,0 l/m 8,0 km/h (2 Bft) S-SW 202 0 min 0,0 UV-I 91 W/m 9,6 C 9,7 C 12,9 km/h (3 Bft)
27.05.2022 08:12 10,8 C 10,6 C 92 % 1021,9 hPa 0,0 l/m 8,0 km/h (2 Bft) S-SW 202 0 min 0,0 UV-I 86 W/m 9,6 C 9,7 C 12,9 km/h (3 Bft)
27.05.2022 08:13 10,8 C 10,6 C 92 % 1021,8 hPa 0,0 l/m 11,3 km/h (2 Bft) SW 225 0 min 0,0 UV-I 77 W/m 9,6 C 7,8 C 16,1 km/h (3 Bft)
27.05.2022 08:14 10,8 C 10,6 C 92 % 1021,9 hPa 0,0 l/m 9,7 km/h (2 Bft) S-SW 202 0 min 0,5 UV-I 86 W/m 9,6 C 8,6 C 14,5 km/h (3 Bft)
27.05.2022 08:15 10,8 C 10,6 C 92 % 1021,9 hPa 0,0 l/m 6,4 km/h (2 Bft) SW 225 0 min 0,5 UV-I 98 W/m 9,6 C 10,8 C 14,5 km/h (3 Bft)
27.05.2022 08:16 10,8 C 10,6 C 92 % 1022,0 hPa 0,0 l/m 9,7 km/h (2 Bft) S-SW 202 0 min 0,5 UV-I 88 W/m 9,6 C 8,6 C 14,5 km/h (3 Bft)
27.05.2022 08:17 10,8 C 10,6 C 92 % 1021,9 hPa 0,0 l/m 8,0 km/h (2 Bft) SW 225 0 min 0,0 UV-I 72 W/m 9,6 C 9,7 C 9,7 km/h (2 Bft)
27.05.2022 08:18 10,9 C 11,1 C 92 % 1021,9 hPa 0,0 l/m 9,7 km/h (2 Bft) S-SW 202 0 min 0,0 UV-I 69 W/m 9,7 C 8,8 C 16,1 km/h (3 Bft)
27.05.2022 08:19 10,9 C 10,6 C 92 % 1022,1 hPa 0,0 l/m 11,3 km/h (2 Bft) S-SW 202 0 min 0,0 UV-I 69 W/m 9,7 C 7,9 C 17,7 km/h (3 Bft)
27.05.2022 08:20 10,9 C 10,6 C 92 % 1021,9 hPa 0,0 l/m 9,7 km/h (2 Bft) SW 225 0 min 0,0 UV-I 69 W/m 9,7 C 8,8 C 17,7 km/h (3 Bft)
27.05.2022 08:21 10,9 C 10,6 C 92 % 1021,9 hPa 0,0 l/m 11,3 km/h (2 Bft) SW 225 0 min 0,0 UV-I 62 W/m 9,7 C 7,9 C 17,7 km/h (3 Bft)
27.05.2022 08:22 10,9 C 10,6 C 92 % 1022,0 hPa 0,0 l/m 9,7 km/h (2 Bft) SW 225 0 min 0,0 UV-I 62 W/m 9,7 C 8,8 C 14,5 km/h (3 Bft)
27.05.2022 08:23 10,9 C 10,6 C 92 % 1021,9 hPa 0,0 l/m 9,7 km/h (2 Bft) SW 225 0 min 0,0 UV-I 62 W/m 9,7 C 8,8 C 14,5 km/h (3 Bft)
27.05.2022 08:24 10,9 C 10,6 C 92 % 1022,0 hPa 0,0 l/m 8,0 km/h (2 Bft) W-SW 247 0 min 0,5 UV-I 76 W/m 9,7 C 9,8 C 12,9 km/h (3 Bft)
27.05.2022 08:25 10,9 C 10,6 C 92 % 1021,9 hPa 0,0 l/m 9,7 km/h (2 Bft) S 180 0 min 0,6 UV-I 93 W/m 9,7 C 8,8 C 12,9 km/h (3 Bft)
27.05.2022 08:26 10,9 C 10,6 C 92 % 1021,9 hPa 0,0 l/m 9,7 km/h (2 Bft) W-SW 247 0 min 0,6 UV-I 91 W/m 9,7 C 8,8 C 16,1 km/h (3 Bft)
27.05.2022 08:27 10,9 C 10,6 C 92 % 1021,9 hPa 0,0 l/m 8,0 km/h (2 Bft) S 180 0 min 0,5 UV-I 91 W/m 9,7 C 9,8 C 14,5 km/h (3 Bft)
27.05.2022 08:28 10,9 C 10,6 C 92 % 1021,9 hPa 0,0 l/m 8,0 km/h (2 Bft) S-SW 202 0 min 0,5 UV-I 88 W/m 9,7 C 9,8 C 12,9 km/h (3 Bft)
27.05.2022 08:29 10,9 C 11,1 C 92 % 1022,0 hPa 0,0 l/m 11,3 km/h (2 Bft) SW 225 0 min 0,6 UV-I 100 W/m 9,7 C 7,9 C 12,9 km/h (3 Bft)
27.05.2022 08:30 10,9 C 11,1 C 92 % 1022,0 hPa 0,0 l/m 4,8 km/h (1 Bft) W-SW 247 0 min 0,7 UV-I 109 W/m 9,7 C 10,9 C 8,0 km/h (2 Bft)
27.05.2022 08:31 10,9 C 11,1 C 92 % 1021,9 hPa 0,0 l/m 9,7 km/h (2 Bft) S-SW 202 0 min 0,6 UV-I 100 W/m 9,7 C 8,8 C 14,5 km/h (3 Bft)
27.05.2022 08:32 10,9 C 11,1 C 92 % 1022,0 hPa 0,0 l/m 6,4 km/h (2 Bft) SW 225 0 min 0,6 UV-I 95 W/m 9,7 C 10,9 C 9,7 km/h (2 Bft)
27.05.2022 08:33 10,9 C 11,1 C 92 % 1022,0 hPa 0,0 l/m 11,3 km/h (2 Bft) S-SW 202 0 min 0,5 UV-I 88 W/m 9,7 C 7,9 C 14,5 km/h (3 Bft)
27.05.2022 08:34 10,9 C 11,1 C 92 % 1021,9 hPa 0,0 l/m 9,7 km/h (2 Bft) S-SW 202 0 min 0,3 UV-I 76 W/m 9,7 C 8,8 C 11,3 km/h (2 Bft)
27.05.2022 08:35 10,9 C 11,1 C 92 % 1021,9 hPa 0,0 l/m 14,5 km/h (3 Bft) S-SW 202 0 min 0,0 UV-I 67 W/m 9,7 C 6,4 C 19,3 km/h (3 Bft)
27.05.2022 08:36 10,9 C 10,6 C 92 % 1022,0 hPa 0,0 l/m 14,5 km/h (3 Bft) SW 225 0 min 0,0 UV-I 65 W/m 9,7 C 6,4 C 17,7 km/h (3 Bft)
27.05.2022 08:37 10,9 C 10,6 C 92 % 1022,0 hPa 0,0 l/m 9,7 km/h (2 Bft) SW 225 0 min 0,0 UV-I 67 W/m 9,7 C 8,8 C 14,5 km/h (3 Bft)
27.05.2022 08:38 10,9 C 10,6 C 92 % 1021,9 hPa 0,0 l/m 8,0 km/h (2 Bft) SW 225 0 min 0,0 UV-I 70 W/m 9,7 C 9,8 C 14,5 km/h (3 Bft)
27.05.2022 08:39 10,9 C 10,6 C 92 % 1022,0 hPa 0,0 l/m 12,9 km/h (3 Bft) W-SW 247 0 min 0,0 UV-I 73 W/m 9,7 C 7,1 C 19,3 km/h (3 Bft)
27.05.2022 08:40 10,9 C 10,6 C 92 % 1021,9 hPa 0,0 l/m 9,7 km/h (2 Bft) S-SW 202 0 min 0,3 UV-I 81 W/m 9,7 C 8,8 C 12,9 km/h (3 Bft)
27.05.2022 08:41 10,9 C 10,6 C 92 % 1022,0 hPa 0,0 l/m 9,7 km/h (2 Bft) S-SW 202 0 min 0,5 UV-I 81 W/m 9,7 C 8,8 C 12,9 km/h (3 Bft)
27.05.2022 08:42 10,9 C 10,6 C 92 % 1021,9 hPa 0,0 l/m 8,0 km/h (2 Bft) S-SW 202 0 min 0,5 UV-I 74 W/m 9,7 C 9,8 C 12,9 km/h (3 Bft)
27.05.2022 08:43 10,9 C 10,6 C 92 % 1022,0 hPa 0,0 l/m 9,7 km/h (2 Bft) S-SW 202 0 min 0,5 UV-I 79 W/m 9,7 C 8,8 C 14,5 km/h (3 Bft)
27.05.2022 08:44 10,9 C 11,1 C 92 % 1022,0 hPa 0,0 l/m 11,3 km/h (2 Bft) S-SW 202 0 min 0,7 UV-I 105 W/m 9,7 C 7,9 C 14,5 km/h (3 Bft)
27.05.2022 08:45 10,9 C 11,1 C 92 % 1022,0 hPa 0,0 l/m 12,9 km/h (3 Bft) S-SW 202 0 min 0,7 UV-I 120 W/m 9,7 C 7,1 C 17,7 km/h (3 Bft)
27.05.2022 08:46 10,9 C 11,1 C 91 % 1022,0 hPa 0,0 l/m 14,5 km/h (3 Bft) SW 225 0 min 0,7 UV-I 102 W/m 9,5 C 6,4 C 20,9 km/h (4 Bft)
27.05.2022 08:47 10,9 C 11,1 C 91 % 1022,0 hPa 0,0 l/m 6,4 km/h (2 Bft) W-SW 247 0 min 0,6 UV-I 93 W/m 9,5 C 10,9 C 11,3 km/h (2 Bft)
27.05.2022 08:48 10,9 C 11,1 C 91 % 1021,9 hPa 0,0 l/m 8,0 km/h (2 Bft) W-SW 247 0 min 0,7 UV-I 98 W/m 9,5 C 9,8 C 14,5 km/h (3 Bft)
27.05.2022 08:49 10,9 C 11,1 C 92 % 1022,0 hPa 0,0 l/m 8,0 km/h (2 Bft) S-SW 202 0 min 0,7 UV-I 114 W/m 9,7 C 9,8 C 16,1 km/h (3 Bft)
27.05.2022 08:50 11,0 C 11,1 C 92 % 1022,0 hPa 0,0 l/m 11,3 km/h (2 Bft) S-SW 202 0 min 0,7 UV-I 127 W/m 9,8 C 8,0 C 16,1 km/h (3 Bft)
27.05.2022 08:51 11,1 C 11,1 C 91 % 1022,0 hPa 0,0 l/m 9,7 km/h (2 Bft) S-SW 202 0 min 0,7 UV-I 124 W/m 9,7 C 9,0 C 16,1 km/h (3 Bft)
27.05.2022 08:52 11,1 C 11,1 C 91 % 1022,0 hPa 0,0 l/m 8,0 km/h (2 Bft) W-SW 247 0 min 0,7 UV-I 120 W/m 9,7 C 10,0 C 12,9 km/h (3 Bft)
27.05.2022 08:53 11,1 C 11,1 C 92 % 1022,0 hPa 0,0 l/m 11,3 km/h (2 Bft) W-SW 247 0 min 0,7 UV-I 114 W/m 9,8 C 8,1 C 16,1 km/h (3 Bft)
27.05.2022 08:54 11,1 C 11,1 C 91 % 1022,1 hPa 0,0 l/m 8,0 km/h (2 Bft) S-SW 202 0 min 0,7 UV-I 118 W/m 9,7 C 10,0 C 11,3 km/h (2 Bft)
27.05.2022 08:55 11,1 C 11,1 C 91 % 1022,1 hPa 0,0 l/m 12,9 km/h (3 Bft) S-SW 202 0 min 0,7 UV-I 116 W/m 9,7 C 7,4 C 17,7 km/h (3 Bft)
27.05.2022 08:56 11,1 C 11,1 C 91 % 1022,0 hPa 0,0 l/m 11,3 km/h (2 Bft) SW 225 0 min 0,7 UV-I 107 W/m 9,7 C 8,1 C 16,1 km/h (3 Bft)
27.05.2022 08:57 11,1 C 11,1 C 91 % 1022,1 hPa 0,0 l/m 8,0 km/h (2 Bft) S-SW 202 0 min 0,7 UV-I 116 W/m 9,7 C 10,0 C 16,1 km/h (3 Bft)
27.05.2022 08:58 11,1 C 11,1 C 91 % 1022,1 hPa 0,0 l/m 8,0 km/h (2 Bft) S-SW 202 0 min 0,8 UV-I 137 W/m 9,7 C 10,0 C 11,3 km/h (2 Bft)
27.05.2022 08:59 11,1 C 11,1 C 92 % 1022,0 hPa 0,0 l/m 11,3 km/h (2 Bft) S-SW 202 0 min 0,7 UV-I 130 W/m 9,8 C 8,1 C 16,1 km/h (3 Bft)
27.05.2022 09:00 11,1 C 11,1 C 92 % 1022,1 hPa 0,0 l/m 9,7 km/h (2 Bft) W-SW 247 0 min 0,8 UV-I 135 W/m 9,8 C 9,0 C 16,1 km/h (3 Bft)
27.05.2022 09:01 11,1 C 11,1 C 92 % 1022,1 hPa 0,0 l/m 9,7 km/h (2 Bft) SW 225 0 min 0,8 UV-I 151 W/m 9,8 C 9,0 C 16,1 km/h (3 Bft)
27.05.2022 09:02 11,1 C 11,1 C 91 % 1022,1 hPa 0,0 l/m 9,7 km/h (2 Bft) SW 225 0 min 0,8 UV-I 140 W/m 9,7 C 9,0 C 14,5 km/h (3 Bft)
27.05.2022 09:03 11,1 C 11,1 C 91 % 1022,1 hPa 0,0 l/m 8,0 km/h (2 Bft) S-SW 202 0 min 0,8 UV-I 137 W/m 9,7 C 10,0 C 12,9 km/h (3 Bft)
27.05.2022 09:04 11,1 C 11,7 C 91 % 1022,1 hPa 0,0 l/m 8,0 km/h (2 Bft) SW 225 0 min 0,9 UV-I 153 W/m 9,7 C 10,0 C 9,7 km/h (2 Bft)
27.05.2022 09:05 11,1 C 11,1 C 91 % 1022,1 hPa 0,0 l/m 11,3 km/h (2 Bft) S-SW 202 0 min 0,9 UV-I 156 W/m 9,7 C 8,1 C 16,1 km/h (3 Bft)
27.05.2022 09:06 11,1 C 11,1 C 92 % 1022,1 hPa 0,0 l/m 11,3 km/h (2 Bft) S-SW 202 0 min 0,8 UV-I 135 W/m 9,8 C 8,1 C 16,1 km/h (3 Bft)
27.05.2022 09:07 11,1 C 11,1 C 91 % 1022,1 hPa 0,0 l/m 12,9 km/h (3 Bft) S-SW 202 0 min 0,8 UV-I 127 W/m 9,7 C 7,4 C 17,7 km/h (3 Bft)
27.05.2022 09:08 11,1 C 11,1 C 91 % 1022,1 hPa 0,0 l/m 11,3 km/h (2 Bft) S-SW 202 0 min 0,8 UV-I 128 W/m 9,7 C 8,1 C 14,5 km/h (3 Bft)
27.05.2022 09:09 11,2 C 11,1 C 92 % 1022,2 hPa 0,0 l/m 9,7 km/h (2 Bft) SW 225 0 min 0,9 UV-I 120 W/m 9,9 C 9,1 C 14,5 km/h (3 Bft)
27.05.2022 09:10 11,1 C 11,1 C 91 % 1022,1 hPa 0,0 l/m 12,9 km/h (3 Bft) W-SW 247 0 min 0,9 UV-I 127 W/m 9,7 C 7,4 C 17,7 km/h (3 Bft)
27.05.2022 09:11 11,2 C 11,1 C 92 % 1022,2 hPa 0,0 l/m 8,0 km/h (2 Bft) SW 225 0 min 1,0 UV-I 155 W/m 9,9 C 10,1 C 14,5 km/h (3 Bft)
27.05.2022 09:12 11,2 C 11,1 C 92 % 1022,3 hPa 0,0 l/m 9,7 km/h (2 Bft) S-SW 202 0 min 1,0 UV-I 155 W/m 9,9 C 9,1 C 14,5 km/h (3 Bft)
27.05.2022 09:13 11,2 C 11,1 C 92 % 1022,1 hPa 0,0 l/m 11,3 km/h (2 Bft) SW 225 0 min 1,0 UV-I 151 W/m 9,9 C 8,2 C 14,5 km/h (3 Bft)
27.05.2022 09:14 11,2 C 11,7 C 92 % 1022,1 hPa 0,0 l/m 8,0 km/h (2 Bft) SW 225 0 min 1,0 UV-I 158 W/m 9,9 C 10,1 C 19,3 km/h (3 Bft)
27.05.2022 09:15 11,3 C 11,7 C 92 % 1022,2 hPa 0,0 l/m 6,4 km/h (2 Bft) SW 225 0 min 1,0 UV-I 146 W/m 10,0 C 11,3 C 11,3 km/h (2 Bft)
27.05.2022 09:16 11,3 C 11,7 C 92 % 1022,2 hPa 0,0 l/m 9,7 km/h (2 Bft) S-SW 202 0 min 1,0 UV-I 151 W/m 10,0 C 9,2 C 14,5 km/h (3 Bft)
27.05.2022 09:17 11,3 C 11,7 C 92 % 1022,3 hPa 0,0 l/m 8,0 km/h (2 Bft) SW 225 0 min 1,1 UV-I 162 W/m 10,0 C 10,2 C 12,9 km/h (3 Bft)
27.05.2022 09:18 11,3 C 11,7 C 91 % 1022,2 hPa 0,0 l/m 8,0 km/h (2 Bft) SW 225 0 min 1,0 UV-I 158 W/m 9,9 C 10,2 C 14,5 km/h (3 Bft)
27.05.2022 09:19 11,3 C 11,7 C 92 % 1022,2 hPa 0,0 l/m 11,3 km/h (2 Bft) SW 225 0 min 1,1 UV-I 171 W/m 10,0 C 8,4 C 17,7 km/h (3 Bft)
27.05.2022 09:20 11,3 C 11,7 C 91 % 1022,2 hPa 0,0 l/m 8,0 km/h (2 Bft) W-SW 247 0 min 1,1 UV-I 163 W/m 9,9 C 10,2 C 17,7 km/h (3 Bft)
27.05.2022 09:21 11,3 C 11,7 C 92 % 1022,3 hPa 0,0 l/m 8,0 km/h (2 Bft) SW 225 0 min 1,0 UV-I 158 W/m 10,0 C 10,2 C 12,9 km/h (3 Bft)
27.05.2022 09:22 11,3 C 11,7 C 91 % 1022,2 hPa 0,0 l/m 9,7 km/h (2 Bft) S-SW 202 0 min 1,1 UV-I 171 W/m 9,9 C 9,2 C 16,1 km/h (3 Bft)
27.05.2022 09:23 11,3 C 11,7 C 91 % 1022,2 hPa 0,0 l/m 14,5 km/h (3 Bft) SW 225 0 min 1,0 UV-I 156 W/m 9,9 C 6,9 C 19,3 km/h (3 Bft)
27.05.2022 09:24 11,3 C 11,7 C 91 % 1022,3 hPa 0,0 l/m 11,3 km/h (2 Bft) S-SW 202 0 min 1,0 UV-I 146 W/m 9,9 C 8,4 C 19,3 km/h (3 Bft)
27.05.2022 09:25 11,3 C 11,7 C 91 % 1022,2 hPa 0,0 l/m 8,0 km/h (2 Bft) S-SW 202 0 min 1,0 UV-I 146 W/m 9,9 C 10,2 C 12,9 km/h (3 Bft)
27.05.2022 09:26 11,3 C 11,7 C 91 % 1022,2 hPa 0,0 l/m 11,3 km/h (2 Bft) S-SW 202 0 min 1,0 UV-I 145 W/m 9,9 C 8,4 C 17,7 km/h (3 Bft)
27.05.2022 09:27 11,3 C 11,7 C 91 % 1022,2 hPa 0,0 l/m 11,3 km/h (2 Bft) S-SW 202 0 min 0,9 UV-I 142 W/m 9,9 C 8,4 C 16,1 km/h (3 Bft)
27.05.2022 09:28 11,3 C 11,7 C 91 % 1022,3 hPa 0,0 l/m 11,3 km/h (2 Bft) SW 225 0 min 1,0 UV-I 146 W/m 9,9 C 8,4 C 14,5 km/h (3 Bft)
27.05.2022 09:29 11,3 C 11,7 C 91 % 1022,3 hPa 0,0 l/m 8,0 km/h (2 Bft) SW 225 0 min 1,0 UV-I 149 W/m 9,9 C 10,2 C 12,9 km/h (3 Bft)
27.05.2022 09:30 11,3 C 11,7 C 91 % 1022,3 hPa 0,0 l/m 12,9 km/h (3 Bft) SW 225 0 min 1,0 UV-I 151 W/m 9,9 C 7,6 C 16,1 km/h (3 Bft)
27.05.2022 09:31 11,4 C 11,7 C 91 % 1022,3 hPa 0,0 l/m 12,9 km/h (3 Bft) SW 225 0 min 1,0 UV-I 151 W/m 10,0 C 7,7 C 22,5 km/h (4 Bft)
27.05.2022 09:32 11,3 C 11,7 C 91 % 1022,2 hPa 0,0 l/m 11,3 km/h (2 Bft) SW 225 0 min 0,9 UV-I 144 W/m 9,9 C 8,4 C 16,1 km/h (3 Bft)
27.05.2022 09:33 11,3 C 11,7 C 91 % 1022,2 hPa 0,0 l/m 8,0 km/h (2 Bft) S-SW 202 0 min 0,9 UV-I 135 W/m 9,9 C 10,2 C 11,3 km/h (2 Bft)
27.05.2022 09:34 11,4 C 11,7 C 91 % 1022,3 hPa 0,0 l/m 9,7 km/h (2 Bft) S-SW 202 0 min 0,9 UV-I 142 W/m 10,0 C 9,3 C 12,9 km/h (3 Bft)
27.05.2022 09:35 11,4 C 11,7 C 91 % 1022,3 hPa 0,0 l/m 11,3 km/h (2 Bft) S-SW 202 0 min 0,9 UV-I 137 W/m 10,0 C 8,5 C 14,5 km/h (3 Bft)
27.05.2022 09:36 11,4 C 11,7 C 91 % 1022,2 hPa 0,0 l/m 14,5 km/h (3 Bft) S-SW 202 0 min 1,0 UV-I 146 W/m 10,0 C 7,0 C 24,1 km/h (4 Bft)
27.05.2022 09:37 11,4 C 11,7 C 91 % 1022,2 hPa 0,0 l/m 8,0 km/h (2 Bft) SW 225 0 min 1,0 UV-I 151 W/m 10,0 C 10,3 C 12,9 km/h (3 Bft)
27.05.2022 09:38 11,4 C 11,7 C 91 % 1022,3 hPa 0,0 l/m 6,4 km/h (2 Bft) SW 225 0 min 0,9 UV-I 143 W/m 10,0 C 11,4 C 8,0 km/h (2 Bft)
27.05.2022 09:39 11,4 C 11,7 C 91 % 1022,2 hPa 0,0 l/m 8,0 km/h (2 Bft) W-SW 247 0 min 1,2 UV-I 179 W/m 10,0 C 10,3 C 16,1 km/h (3 Bft)
27.05.2022 09:40 11,4 C 11,7 C 91 % 1022,2 hPa 0,2 l/m 11,3 km/h (2 Bft) SW 225 0 min 1,3 UV-I 192 W/m 10,0 C 8,5 C 17,7 km/h (3 Bft)
27.05.2022 09:41 11,4 C 11,7 C 91 % 1022,1 hPa 0,0 l/m 12,9 km/h (3 Bft) SW 225 0 min 1,3 UV-I 200 W/m 10,0 C 7,7 C 16,1 km/h (3 Bft)
27.05.2022 09:42 11,4 C 11,7 C 91 % 1022,2 hPa 0,0 l/m 12,9 km/h (3 Bft) W-SW 247 0 min 1,3 UV-I 197 W/m 10,0 C 7,7 C 17,7 km/h (3 Bft)
27.05.2022 09:43 11,4 C 11,7 C 91 % 1022,2 hPa 0,0 l/m 8,0 km/h (2 Bft) SW 225 0 min 1,3 UV-I 193 W/m 10,0 C 10,3 C 14,5 km/h (3 Bft)
27.05.2022 09:44 11,5 C 11,7 C 91 % 1022,2 hPa 0,0 l/m 8,0 km/h (2 Bft) SW 225 0 min 1,2 UV-I 155 W/m 10,1 C 10,4 C 11,3 km/h (2 Bft)
27.05.2022 09:45 11,5 C 11,7 C 92 % 1022,2 hPa 0,0 l/m 8,0 km/h (2 Bft) S 180 0 min 0,9 UV-I 132 W/m 10,2 C 10,4 C 11,3 km/h (2 Bft)
27.05.2022 09:46 11,5 C 11,7 C 91 % 1022,3 hPa 0,0 l/m 8,0 km/h (2 Bft) W-SW 247 0 min 0,9 UV-I 134 W/m 10,1 C 10,4 C 11,3 km/h (2 Bft)
27.05.2022 09:47 11,6 C 11,7 C 91 % 1022,2 hPa 0,0 l/m 8,0 km/h (2 Bft) SW 225 0 min 1,0 UV-I 155 W/m 10,2 C 10,5 C 14,5 km/h (3 Bft)
27.05.2022 09:48 11,5 C 11,7 C 91 % 1022,3 hPa 0,0 l/m 12,9 km/h (3 Bft) S-SW 202 0 min 1,0 UV-I 151 W/m 10,1 C 7,8 C 17,7 km/h (3 Bft)
27.05.2022 09:49 11,6 C 11,7 C 91 % 1022,3 hPa 0,0 l/m 9,7 km/h (2 Bft) SW 225 0 min 1,1 UV-I 175 W/m 10,2 C 9,5 C 20,9 km/h (4 Bft)
27.05.2022 09:50 11,6 C 11,7 C 91 % 1022,3 hPa 0,0 l/m 9,7 km/h (2 Bft) S-SW 202 0 min 1,2 UV-I 186 W/m 10,2 C 9,5 C 12,9 km/h (3 Bft)
27.05.2022 09:51 11,6 C 11,7 C 91 % 1022,3 hPa 0,0 l/m 6,4 km/h (2 Bft) S-SW 202 0 min 1,2 UV-I 186 W/m 10,2 C 11,6 C 9,7 km/h (2 Bft)
27.05.2022 09:52 11,6 C 11,7 C 91 % 1022,3 hPa 0,0 l/m 6,4 km/h (2 Bft) SW 225 0 min 1,3 UV-I 206 W/m 10,2 C 11,6 C 9,7 km/h (2 Bft)
27.05.2022 09:53 11,6 C 12,2 C 91 % 1022,3 hPa 0,0 l/m 8,0 km/h (2 Bft) SW 225 0 min 1,3 UV-I 193 W/m 10,2 C 10,5 C 11,3 km/h (2 Bft)
27.05.2022 09:54 11,6 C 11,7 C 91 % 1022,3 hPa 0,0 l/m 11,3 km/h (2 Bft) S-SW 202 0 min 1,2 UV-I 186 W/m 10,2 C 8,7 C 16,1 km/h (3 Bft)
27.05.2022 09:56 11,7 C 12,2 C 91 % 1022,2 hPa 0,0 l/m 9,1 km/h (2 Bft) S-SW 193 0 min 1,3 UV-I 187 W/m 10,3 C 10,0 C 12,9 km/h (3 Bft)
27.05.2022 09:58 11,7 C 12,2 C 91 % 1022,3 hPa 0,0 l/m 10,1 km/h (2 Bft) S-SW 209 0 min 1,3 UV-I 192 W/m 10,3 C 9,4 C 16,1 km/h (3 Bft)
27.05.2022 10:00 11,7 C 12,8 C 91 % 1022,3 hPa 0,0 l/m 9,0 km/h (2 Bft) W 259 0 min 1,4 UV-I 217 W/m 10,3 C 10,0 C 12,9 km/h (3 Bft)
27.05.2022 10:02 11,8 C 12,8 C 92 % 1022,4 hPa 0,0 l/m 7,0 km/h (2 Bft) S-SW 193 0 min 1,4 UV-I 209 W/m 10,5 C 11,4 C 16,1 km/h (3 Bft)
27.05.2022 10:04 11,8 C 12,2 C 91 % 1022,4 hPa 0,0 l/m 10,2 km/h (2 Bft) SW 219 0 min 1,3 UV-I 195 W/m 10,4 C 9,5 C 17,7 km/h (3 Bft)
27.05.2022 10:06 11,8 C 12,2 C 91 % 1022,3 hPa 0,0 l/m 7,5 km/h (2 Bft) W-SW 244 0 min 1,5 UV-I 209 W/m 10,4 C 11,1 C 12,9 km/h (3 Bft)
27.05.2022 10:08 11,8 C 12,8 C 91 % 1022,2 hPa 0,0 l/m 10,4 km/h (2 Bft) SW 221 0 min 1,6 UV-I 238 W/m 10,4 C 9,4 C 19,3 km/h (3 Bft)
27.05.2022 10:10 11,9 C 12,8 C 92 % 1022,3 hPa 0,0 l/m 8,3 km/h (2 Bft) W-SW 250 0 min 1,5 UV-I 234 W/m 10,6 C 10,7 C 19,3 km/h (3 Bft)
27.05.2022 10:12 11,9 C 12,8 C 91 % 1022,2 hPa 0,0 l/m 7,2 km/h (2 Bft) S-SW 198 0 min 1,8 UV-I 253 W/m 10,5 C 11,4 C 14,5 km/h (3 Bft)
27.05.2022 10:14 12,1 C 12,8 C 92 % 1022,4 hPa 0,0 l/m 8,9 km/h (2 Bft) S-SW 209 0 min 1,7 UV-I 246 W/m 10,8 C 10,5 C 19,3 km/h (3 Bft)
27.05.2022 10:16 12,1 C 12,8 C 91 % 1022,4 hPa 0,0 l/m 9,0 km/h (2 Bft) SW 236 0 min 1,8 UV-I 266 W/m 10,7 C 10,5 C 14,5 km/h (3 Bft)
27.05.2022 10:18 12,1 C 12,8 C 91 % 1022,3 hPa 0,0 l/m 7,9 km/h (2 Bft) SW 233 0 min 1,5 UV-I 227 W/m 10,7 C 11,1 C 12,9 km/h (3 Bft)
27.05.2022 10:20 12,2 C 13,3 C 91 % 1022,2 hPa 0,0 l/m 9,7 km/h (2 Bft) SW 232 0 min 1,4 UV-I 206 W/m 10,8 C 10,2 C 19,3 km/h (3 Bft)
27.05.2022 10:22 12,2 C 12,8 C 91 % 1022,3 hPa 0,0 l/m 10,3 km/h (2 Bft) SW 219 0 min 1,6 UV-I 234 W/m 10,8 C 9,9 C 19,3 km/h (3 Bft)
27.05.2022 10:24 12,2 C 13,3 C 91 % 1022,3 hPa 0,0 l/m 8,8 km/h (2 Bft) W 275 0 min 1,9 UV-I 288 W/m 10,8 C 10,7 C 14,5 km/h (3 Bft)
27.05.2022 10:26 12,2 C 12,8 C 91 % 1022,2 hPa 0,0 l/m 11,2 km/h (2 Bft) S-SW 208 0 min 2,2 UV-I 321 W/m 10,8 C 9,4 C 24,1 km/h (4 Bft)
27.05.2022 10:28 12,3 C 12,8 C 91 % 1022,2 hPa 0,0 l/m 11,8 km/h (2 Bft) SW 225 0 min 2,2 UV-I 328 W/m 10,9 C 9,3 C 20,9 km/h (4 Bft)
27.05.2022 10:30 12,4 C 13,3 C 91 % 1022,3 hPa 0,0 l/m 7,9 km/h (2 Bft) SW 215 0 min 2,1 UV-I 289 W/m 11,0 C 11,4 C 12,9 km/h (3 Bft)
27.05.2022 10:32 12,4 C 13,3 C 91 % 1022,3 hPa 0,0 l/m 13,0 km/h (3 Bft) S-SW 202 0 min 2,1 UV-I 304 W/m 11,0 C 8,8 C 20,9 km/h (4 Bft)
27.05.2022 10:34 12,3 C 13,3 C 91 % 1022,3 hPa 0,0 l/m 8,0 km/h (2 Bft) W 262 0 min 2,0 UV-I 288 W/m 10,9 C 11,3 C 14,5 km/h (3 Bft)
27.05.2022 10:36 12,4 C 13,3 C 91 % 1022,4 hPa 0,0 l/m 10,7 km/h (2 Bft) W-SW 258 0 min 1,9 UV-I 268 W/m 11,0 C 9,9 C 17,7 km/h (3 Bft)
27.05.2022 10:38 12,4 C 13,3 C 91 % 1022,5 hPa 0,0 l/m 10,0 km/h (2 Bft) SW 215 0 min 2,2 UV-I 318 W/m 11,0 C 10,2 C 19,3 km/h (3 Bft)
27.05.2022 10:40 12,4 C 13,3 C 90 % 1022,5 hPa 0,0 l/m 15,5 km/h (3 Bft) W-SW 241 2 min 2,3 UV-I 347 W/m 10,8 C 7,9 C 22,5 km/h (4 Bft)
27.05.2022 10:42 12,4 C 13,3 C 90 % 1022,5 hPa 0,0 l/m 11,4 km/h (2 Bft) W-SW 253 2 min 2,2 UV-I 350 W/m 10,8 C 9,6 C 16,1 km/h (3 Bft)
27.05.2022 10:44 12,6 C 13,3 C 90 % 1022,4 hPa 0,0 l/m 7,6 km/h (2 Bft) SW 229 0 min 2,1 UV-I 322 W/m 11,0 C 11,8 C 14,5 km/h (3 Bft)
27.05.2022 10:46 12,6 C 13,3 C 90 % 1022,5 hPa 0,0 l/m 9,6 km/h (2 Bft) SW 229 0 min 2,0 UV-I 280 W/m 11,0 C 10,7 C 20,9 km/h (4 Bft)
27.05.2022 10:48 12,6 C 13,3 C 90 % 1022,4 hPa 0,0 l/m 9,6 km/h (2 Bft) SW 227 0 min 2,2 UV-I 301 W/m 11,0 C 10,7 C 17,7 km/h (3 Bft)
27.05.2022 10:50 12,6 C 13,3 C 90 % 1022,5 hPa 0,0 l/m 14,8 km/h (3 Bft) SW 214 0 min 2,0 UV-I 276 W/m 11,0 C 8,4 C 22,5 km/h (4 Bft)
27.05.2022 10:52 12,4 C 12,8 C 90 % 1022,5 hPa 0,0 l/m 12,7 km/h (3 Bft) W 259 0 min 2,1 UV-I 274 W/m 10,8 C 9,0 C 19,3 km/h (3 Bft)
27.05.2022 10:54 12,4 C 13,3 C 90 % 1022,6 hPa 0,0 l/m 8,8 km/h (2 Bft) SW 218 0 min 2,1 UV-I 255 W/m 10,8 C 10,9 C 22,5 km/h (4 Bft)
27.05.2022 10:56 12,4 C 13,3 C 90 % 1022,6 hPa 0,0 l/m 14,3 km/h (3 Bft) W-NW 282 0 min 2,8 UV-I 320 W/m 10,8 C 8,3 C 24,1 km/h (4 Bft)
27.05.2022 10:58 12,6 C 13,3 C 91 % 1022,6 hPa 0,0 l/m 10,6 km/h (2 Bft) W 274 2 min 3,4 UV-I 459 W/m 11,2 C 10,2 C 16,1 km/h (3 Bft)
27.05.2022 11:00 12,8 C 13,9 C 91 % 1022,6 hPa 0,0 l/m 13,9 km/h (3 Bft) W 259 2 min 2,9 UV-I 402 W/m 11,4 C 8,9 C 24,1 km/h (4 Bft)
27.05.2022 11:02 12,9 C 13,9 C 90 % 1022,6 hPa 0,0 l/m 12,5 km/h (3 Bft) SW 234 0 min 2,4 UV-I 316 W/m 11,3 C 9,6 C 20,9 km/h (4 Bft)
27.05.2022 11:04 12,9 C 13,9 C 90 % 1022,6 hPa 0,0 l/m 8,4 km/h (2 Bft) W-SW 239 0 min 2,2 UV-I 280 W/m 11,3 C 11,7 C 20,9 km/h (4 Bft)
27.05.2022 11:06 12,9 C 13,3 C 89 % 1022,8 hPa 0,0 l/m 9,5 km/h (2 Bft) W 261 0 min 2,0 UV-I 273 W/m 11,1 C 11,1 C 17,7 km/h (3 Bft)
27.05.2022 11:08 12,9 C 13,3 C 89 % 1022,6 hPa 0,0 l/m 14,1 km/h (3 Bft) W 276 0 min 2,0 UV-I 267 W/m 11,1 C 9,0 C 24,1 km/h (4 Bft)
27.05.2022 11:10 12,8 C 12,8 C 88 % 1022,8 hPa 0,0 l/m 13,9 km/h (3 Bft) W 273 0 min 1,6 UV-I 223 W/m 10,9 C 8,9 C 24,1 km/h (4 Bft)
27.05.2022 11:12 12,7 C 12,8 C 89 % 1022,7 hPa 0,0 l/m 9,4 km/h (2 Bft) W-SW 253 0 min 1,5 UV-I 202 W/m 10,9 C 10,9 C 17,7 km/h (3 Bft)
27.05.2022 11:14 12,7 C 12,8 C 89 % 1022,7 hPa 0,0 l/m 6,8 km/h (2 Bft) W 260 0 min 1,7 UV-I 214 W/m 10,9 C 12,5 C 14,5 km/h (3 Bft)
27.05.2022 11:16 12,7 C 13,3 C 89 % 1022,7 hPa 0,0 l/m 9,0 km/h (2 Bft) W-SW 249 0 min 2,0 UV-I 248 W/m 10,9 C 11,1 C 14,5 km/h (3 Bft)
27.05.2022 11:18 12,7 C 13,3 C 89 % 1022,7 hPa 0,0 l/m 6,8 km/h (2 Bft) S-SW 195 2 min 2,9 UV-I 357 W/m 10,9 C 12,5 C 12,9 km/h (3 Bft)
27.05.2022 11:20 12,8 C 14,4 C 89 % 1022,7 hPa 0,0 l/m 9,8 km/h (2 Bft) W 262 2 min 4,0 UV-I 472 W/m 11,0 C 10,8 C 19,3 km/h (3 Bft)
27.05.2022 11:22 13,0 C 15,0 C 89 % 1022,7 hPa 0,0 l/m 13,2 km/h (3 Bft) W-SW 253 2 min 4,0 UV-I 523 W/m 11,2 C 9,5 C 20,9 km/h (4 Bft)
27.05.2022 11:24 13,1 C 15,0 C 89 % 1022,6 hPa 0,0 l/m 13,6 km/h (3 Bft) W 275 2 min 3,6 UV-I 469 W/m 11,3 C 9,4 C 19,3 km/h (3 Bft)
27.05.2022 11:26 13,2 C 15,0 C 88 % 1022,8 hPa 0,0 l/m 13,5 km/h (3 Bft) W-SW 256 2 min 3,7 UV-I 481 W/m 11,3 C 9,6 C 22,5 km/h (4 Bft)
27.05.2022 11:28 13,3 C 15,0 C 88 % 1022,7 hPa 0,0 l/m 11,8 km/h (2 Bft) SW 221 2 min 2,7 UV-I 371 W/m 11,4 C 10,4 C 20,9 km/h (4 Bft)
27.05.2022 11:30 13,2 C 14,4 C 87 % 1022,8 hPa 0,0 l/m 13,7 km/h (3 Bft) W 263 0 min 2,0 UV-I 281 W/m 11,1 C 9,5 C 22,5 km/h (4 Bft)
27.05.2022 11:32 13,0 C 13,9 C 87 % 1022,9 hPa 0,0 l/m 10,7 km/h (2 Bft) W-NW 288 0 min 1,5 UV-I 211 W/m 10,9 C 10,6 C 19,3 km/h (3 Bft)
27.05.2022 11:34 12,8 C 13,3 C 87 % 1022,8 hPa 0,0 l/m 10,9 km/h (2 Bft) W-NW 296 0 min 1,2 UV-I 166 W/m 10,7 C 10,2 C 17,7 km/h (3 Bft)
27.05.2022 11:36 12,7 C 13,3 C 86 % 1022,8 hPa 0,0 l/m 14,3 km/h (3 Bft) W 275 0 min 1,4 UV-I 187 W/m 10,4 C 8,7 C 22,5 km/h (4 Bft)
27.05.2022 11:38 12,6 C 12,8 C 87 % 1022,8 hPa 0,0 l/m 11,5 km/h (2 Bft) W-SW 247 0 min 1,1 UV-I 156 W/m 10,5 C 9,7 C 24,1 km/h (4 Bft)
27.05.2022 11:40 12,4 C 12,8 C 87 % 1022,9 hPa 0,0 l/m 8,9 km/h (2 Bft) W-SW 257 0 min 1,0 UV-I 133 W/m 10,3 C 10,8 C 17,7 km/h (3 Bft)
27.05.2022 11:42 12,4 C 12,2 C 87 % 1022,9 hPa 0,0 l/m 9,4 km/h (2 Bft) SW 217 0 min 1,5 UV-I 191 W/m 10,3 C 10,6 C 19,3 km/h (3 Bft)
27.05.2022 11:44 12,2 C 12,2 C 87 % 1022,9 hPa 0,0 l/m 7,7 km/h (2 Bft) W-NW 294 0 min 1,6 UV-I 200 W/m 10,1 C 11,3 C 12,9 km/h (3 Bft)
27.05.2022 11:46 12,1 C 12,2 C 87 % 1022,9 hPa 0,0 l/m 13,1 km/h (3 Bft) W 259 0 min 1,4 UV-I 174 W/m 10,0 C 8,4 C 19,3 km/h (3 Bft)
27.05.2022 11:48 12,1 C 12,2 C 88 % 1022,9 hPa 0,2 l/m 7,8 km/h (2 Bft) W 262 0 min 1,2 UV-I 152 W/m 10,2 C 11,2 C 16,1 km/h (3 Bft)
27.05.2022 11:50 12,1 C 12,2 C 88 % 1023,0 hPa 0,0 l/m 12,1 km/h (2 Bft) N 360 0 min 1,8 UV-I 204 W/m 10,2 C 8,9 C 20,9 km/h (4 Bft)
27.05.2022 11:52 12,1 C 13,3 C 88 % 1023,0 hPa 0,0 l/m 9,7 km/h (2 Bft) W 280 0 min 3,2 UV-I 248 W/m 10,2 C 10,1 C 17,7 km/h (3 Bft)
27.05.2022 11:54 12,3 C 13,9 C 89 % 1023,1 hPa 0,0 l/m 10,7 km/h (2 Bft) W 280 2 min 3,8 UV-I 475 W/m 10,5 C 9,8 C 16,1 km/h (3 Bft)
27.05.2022 11:56 12,6 C 14,4 C 88 % 1023,0 hPa 0,0 l/m 7,7 km/h (2 Bft) S-SW 209 2 min 2,9 UV-I 375 W/m 10,7 C 11,8 C 14,5 km/h (3 Bft)
27.05.2022 11:58 12,6 C 13,9 C 87 % 1023,0 hPa 0,0 l/m 12,9 km/h (3 Bft) W-SW 244 0 min 2,6 UV-I 330 W/m 10,5 C 9,1 C 22,5 km/h (4 Bft)
27.05.2022 12:00 12,6 C 13,9 C 86 % 1023,0 hPa 0,0 l/m 12,0 km/h (2 Bft) W 274 0 min 2,2 UV-I 287 W/m 10,3 C 9,5 C 20,9 km/h (4 Bft)
27.05.2022 12:02 12,6 C 13,3 C 86 % 1023,0 hPa 0,0 l/m 11,9 km/h (2 Bft) W 271 0 min 1,7 UV-I 229 W/m 10,3 C 9,6 C 19,3 km/h (3 Bft)
27.05.2022 12:04 12,6 C 13,3 C 87 % 1023,0 hPa 0,0 l/m 8,2 km/h (2 Bft) SW 236 0 min 1,5 UV-I 200 W/m 10,5 C 11,5 C 12,9 km/h (3 Bft)
27.05.2022 12:06 12,6 C 13,3 C 86 % 1022,9 hPa 0,0 l/m 13,4 km/h (3 Bft) W-SW 258 0 min 2,5 UV-I 298 W/m 10,3 C 8,9 C 19,3 km/h (3 Bft)
27.05.2022 12:08 12,7 C 13,9 C 87 % 1023,0 hPa 0,0 l/m 10,3 km/h (2 Bft) W-SW 256 2 min 3,0 UV-I 364 W/m 10,6 C 10,4 C 17,7 km/h (3 Bft)
27.05.2022 12:10 12,8 C 14,4 C 88 % 1023,0 hPa 0,0 l/m 8,3 km/h (2 Bft) W-SW 257 0 min 2,4 UV-I 288 W/m 10,9 C 11,6 C 17,7 km/h (3 Bft)
27.05.2022 12:12 12,7 C 13,9 C 86 % 1022,9 hPa 0,0 l/m 13,9 km/h (3 Bft) W-SW 248 0 min 2,4 UV-I 277 W/m 10,4 C 8,8 C 22,5 km/h (4 Bft)
27.05.2022 12:14 12,7 C 13,9 C 86 % 1022,9 hPa 0,0 l/m 9,1 km/h (2 Bft) W-SW 246 0 min 2,3 UV-I 251 W/m 10,4 C 11,1 C 16,1 km/h (3 Bft)
27.05.2022 12:16 12,8 C 13,9 C 86 % 1022,9 hPa 0,0 l/m 11,1 km/h (2 Bft) W 269 0 min 2,7 UV-I 313 W/m 10,5 C 10,1 C 20,9 km/h (4 Bft)
27.05.2022 12:18 12,8 C 14,4 C 86 % 1023,0 hPa 0,0 l/m 10,8 km/h (2 Bft) SW 235 0 min 3,9 UV-I 317 W/m 10,5 C 10,3 C 19,3 km/h (3 Bft)
27.05.2022 12:20 13,0 C 15,0 C 86 % 1023,0 hPa 0,0 l/m 8,9 km/h (2 Bft) W-SW 257 2 min 3,8 UV-I 431 W/m 10,7 C 11,5 C 12,9 km/h (3 Bft)
27.05.2022 12:22 13,2 C 15,0 C 86 % 1023,0 hPa 0,0 l/m 8,6 km/h (2 Bft) W 259 2 min 2,9 UV-I 353 W/m 10,9 C 11,9 C 17,7 km/h (3 Bft)
27.05.2022 12:24 13,1 C 15,0 C 86 % 1023,0 hPa 0,0 l/m 15,2 km/h (3 Bft) W 261 0 min 2,2 UV-I 266 W/m 10,8 C 8,8 C 29,0 km/h (5 Bft)
27.05.2022 12:26 13,2 C 15,0 C 85 % 1022,8 hPa 0,0 l/m 14,7 km/h (3 Bft) W-SW 244 0 min 2,5 UV-I 325 W/m 10,7 C 9,1 C 19,3 km/h (3 Bft)
27.05.2022 12:28 13,2 C 14,4 C 86 % 1022,9 hPa 0,0 l/m 10,2 km/h (2 Bft) W-SW 258 0 min 2,0 UV-I 257 W/m 10,9 C 11,0 C 24,1 km/h (4 Bft)
27.05.2022 12:30 13,1 C 13,9 C 84 % 1022,9 hPa 0,0 l/m 16,7 km/h (3 Bft) W 261 0 min 2,0 UV-I 255 W/m 10,5 C 8,3 C 25,7 km/h (4 Bft)
27.05.2022 12:32 13,0 C 13,9 C 84 % 1023,0 hPa 0,0 l/m 16,0 km/h (3 Bft) W 259 0 min 2,5 UV-I 325 W/m 10,4 C 8,4 C 27,4 km/h (4 Bft)
27.05.2022 12:34 13,0 C 13,9 C 84 % 1023,0 hPa 0,0 l/m 14,9 km/h (3 Bft) W-NW 282 0 min 2,3 UV-I 302 W/m 10,4 C 8,8 C 22,5 km/h (4 Bft)
27.05.2022 12:36 12,9 C 13,9 C 84 % 1022,9 hPa 0,0 l/m 12,7 km/h (3 Bft) SW 227 0 min 2,3 UV-I 283 W/m 10,3 C 9,6 C 20,9 km/h (4 Bft)
27.05.2022 12:38 13,0 C 13,9 C 84 % 1022,9 hPa 0,0 l/m 14,9 km/h (3 Bft) W-SW 245 2 min 3,2 UV-I 362 W/m 10,4 C 8,8 C 24,1 km/h (4 Bft)
27.05.2022 12:40 13,2 C 15,6 C 84 % 1022,9 hPa 0,0 l/m 12,4 km/h (3 Bft) W-NW 293 2 min 4,2 UV-I 429 W/m 10,6 C 10,0 C 27,4 km/h (4 Bft)
27.05.2022 12:42 13,4 C 16,1 C 84 % 1022,9 hPa 0,0 l/m 8,4 km/h (2 Bft) W-SW 256 2 min 4,6 UV-I 532 W/m 10,8 C 12,2 C 19,3 km/h (3 Bft)
27.05.2022 12:44 13,7 C 17,2 C 84 % 1022,9 hPa 0,0 l/m 11,2 km/h (2 Bft) SW 227 2 min 5,3 UV-I 627 W/m 11,0 C 11,1 C 24,1 km/h (4 Bft)
27.05.2022 12:46 13,9 C 17,8 C 84 % 1022,9 hPa 0,0 l/m 12,6 km/h (3 Bft) W 267 2 min 5,5 UV-I 742 W/m 11,2 C 10,8 C 17,7 km/h (3 Bft)
27.05.2022 12:48 14,1 C 17,8 C 83 % 1022,9 hPa 0,0 l/m 15,1 km/h (3 Bft) W 262 2 min 5,1 UV-I 756 W/m 11,3 C 10,1 C 20,9 km/h (4 Bft)
27.05.2022 12:50 14,2 C 17,2 C 83 % 1022,9 hPa 0,0 l/m 12,1 km/h (2 Bft) W 263 2 min 4,4 UV-I 756 W/m 11,4 C 11,3 C 22,5 km/h (4 Bft)
27.05.2022 12:52 14,2 C 17,2 C 81 % 1022,8 hPa 0,0 l/m 15,0 km/h (3 Bft) SW 226 2 min 4,4 UV-I 756 W/m 11,0 C 10,2 C 22,5 km/h (4 Bft)
27.05.2022 12:54 14,1 C 16,7 C 81 % 1022,9 hPa 0,0 l/m 14,4 km/h (3 Bft) W 265 2 min 3,8 UV-I 501 W/m 10,9 C 10,3 C 22,5 km/h (4 Bft)
27.05.2022 12:56 14,1 C 17,2 C 81 % 1022,8 hPa 0,0 l/m 12,9 km/h (3 Bft) SW 216 2 min 4,9 UV-I 514 W/m 10,9 C 10,9 C 22,5 km/h (4 Bft)
27.05.2022 12:58 14,2 C 18,3 C 80 % 1022,9 hPa 0,0 l/m 11,2 km/h (2 Bft) W-NW 292 2 min 5,6 UV-I 724 W/m 10,8 C 11,7 C 17,7 km/h (3 Bft)
27.05.2022 13:00 14,5 C 18,3 C 81 % 1022,9 hPa 0,0 l/m 13,0 km/h (3 Bft) W 263 2 min 5,5 UV-I 805 W/m 11,3 C 11,3 C 19,3 km/h (3 Bft)
27.05.2022 13:02 14,7 C 18,3 C 80 % 1022,8 hPa 0,0 l/m 14,1 km/h (3 Bft) W-SW 253 2 min 4,8 UV-I 806 W/m 11,3 C 11,1 C 25,7 km/h (4 Bft)
27.05.2022 13:04 14,8 C 18,9 C 79 % 1022,9 hPa 0,0 l/m 13,5 km/h (3 Bft) SW 233 2 min 5,6 UV-I 886 W/m 11,2 C 11,5 C 22,5 km/h (4 Bft)
27.05.2022 13:06 14,7 C 18,9 C 79 % 1022,9 hPa 0,0 l/m 12,9 km/h (3 Bft) W 261 2 min 5,0 UV-I 876 W/m 11,1 C 11,6 C 22,5 km/h (4 Bft)
27.05.2022 13:08 14,8 C 19,4 C 80 % 1022,8 hPa 0,0 l/m 10,3 km/h (2 Bft) W 265 2 min 5,1 UV-I 798 W/m 11,4 C 12,8 C 20,9 km/h (4 Bft)
27.05.2022 13:10 14,6 C 18,9 C 77 % 1022,8 hPa 0,0 l/m 11,5 km/h (2 Bft) W-SW 246 2 min 5,0 UV-I 837 W/m 10,6 C 12,0 C 20,9 km/h (4 Bft)
27.05.2022 13:12 14,7 C 19,4 C 78 % 1022,9 hPa 0,0 l/m 13,0 km/h (3 Bft) W 262 2 min 5,8 UV-I 837 W/m 10,9 C 11,5 C 27,4 km/h (4 Bft)
27.05.2022 13:14 14,9 C 20,0 C 77 % 1022,9 hPa 0,0 l/m 14,9 km/h (3 Bft) W 259 2 min 5,9 UV-I 846 W/m 10,9 C 11,1 C 24,1 km/h (4 Bft)
27.05.2022 13:16 15,1 C 20,6 C 78 % 1022,9 hPa 0,0 l/m 8,7 km/h (2 Bft) SW 219 2 min 6,0 UV-I 886 W/m 11,3 C 13,8 C 24,1 km/h (4 Bft)
27.05.2022 13:18 15,2 C 20,0 C 76 % 1022,9 hPa 0,0 l/m 15,9 km/h (3 Bft) W 262 2 min 5,9 UV-I 914 W/m 11,0 C 11,1 C 30,6 km/h (5 Bft)
27.05.2022 13:20 15,2 C 20,0 C 76 % 1022,9 hPa 0,0 l/m 7,3 km/h (2 Bft) SW 223 2 min 4,7 UV-I 894 W/m 11,0 C 14,7 C 12,9 km/h (3 Bft)
27.05.2022 13:22 15,2 C 20,0 C 76 % 1022,8 hPa 0,0 l/m 17,1 km/h (3 Bft) W 260 2 min 6,1 UV-I 503 W/m 11,0 C 10,8 C 24,1 km/h (4 Bft)
27.05.2022 13:24 15,1 C 19,4 C 74 % 1022,9 hPa 0,0 l/m 13,7 km/h (3 Bft) W-SW 247 2 min 6,2 UV-I 854 W/m 10,5 C 11,8 C 25,7 km/h (4 Bft)
27.05.2022 13:26 15,1 C 20,6 C 75 % 1022,8 hPa 0,0 l/m 16,4 km/h (3 Bft) W-SW 253 2 min 6,1 UV-I 939 W/m 10,7 C 10,9 C 24,1 km/h (4 Bft)
27.05.2022 13:28 15,2 C 20,0 C 76 % 1022,8 hPa 0,0 l/m 13,6 km/h (3 Bft) W 273 2 min 6,2 UV-I 938 W/m 11,0 C 11,9 C 20,9 km/h (4 Bft)
27.05.2022 13:30 15,4 C 21,1 C 74 % 1022,8 hPa 0,0 l/m 18,1 km/h (3 Bft) W 260 2 min 6,5 UV-I 1007 W/m 10,8 C 10,8 C 30,6 km/h (5 Bft)
27.05.2022 13:32 15,4 C 20,6 C 74 % 1022,9 hPa 0,0 l/m 11,1 km/h (2 Bft) SW 224 2 min 5,6 UV-I 987 W/m 10,8 C 13,1 C 17,7 km/h (3 Bft)
27.05.2022 13:34 15,3 C 19,4 C 74 % 1022,8 hPa 0,0 l/m 16,3 km/h (3 Bft) W 260 2 min 4,7 UV-I 427 W/m 10,7 C 11,1 C 24,1 km/h (4 Bft)
27.05.2022 13:36 15,4 C 21,1 C 75 % 1022,8 hPa 0,0 l/m 12,7 km/h (3 Bft) W 263 2 min 6,2 UV-I 792 W/m 11,0 C 12,5 C 20,9 km/h (4 Bft)
27.05.2022 13:38 15,5 C 19,4 C 74 % 1022,9 hPa 0,0 l/m 15,5 km/h (3 Bft) SW 219 2 min 4,3 UV-I 872 W/m 10,9 C 11,6 C 24,1 km/h (4 Bft)
27.05.2022 13:40 15,3 C 18,9 C 72 % 1022,9 hPa 0,0 l/m 16,7 km/h (3 Bft) W 265 2 min 4,4 UV-I 872 W/m 10,3 C 11,0 C 30,6 km/h (5 Bft)
27.05.2022 13:42 15,4 C 20,6 C 73 % 1022,8 hPa 0,0 l/m 12,6 km/h (3 Bft) W-SW 239 2 min 6,1 UV-I 872 W/m 10,6 C 12,5 C 22,5 km/h (4 Bft)
27.05.2022 13:44 15,4 C 20,0 C 75 % 1022,8 hPa 0,0 l/m 7,6 km/h (2 Bft) W-NW 283 2 min 3,4 UV-I 474 W/m 11,0 C 14,7 C 14,5 km/h (3 Bft)
27.05.2022 13:46 15,6 C 19,4 C 76 % 1022,8 hPa 0,0 l/m 8,4 km/h (2 Bft) SW 218 0 min 3,0 UV-I 271 W/m 11,4 C 14,5 C 16,1 km/h (3 Bft)
27.05.2022 13:48 15,4 C 19,4 C 74 % 1022,7 hPa 0,0 l/m 9,1 km/h (2 Bft) W-SW 250 0 min 5,2 UV-I 278 W/m 10,8 C 14,0 C 16,1 km/h (3 Bft)
27.05.2022 13:50 15,7 C 21,1 C 76 % 1022,7 hPa 0,0 l/m 10,9 km/h (2 Bft) S-SW 209 2 min 6,4 UV-I 640 W/m 11,5 C 13,5 C 19,3 km/h (3 Bft)
27.05.2022 13:52 15,7 C 21,1 C 73 % 1022,6 hPa 0,0 l/m 15,5 km/h (3 Bft) W-SW 237 2 min 6,5 UV-I 956 W/m 10,9 C 11,9 C 24,1 km/h (4 Bft)
27.05.2022 13:54 15,9 C 21,7 C 73 % 1022,7 hPa 0,0 l/m 14,9 km/h (3 Bft) SW 235 2 min 5,8 UV-I 1036 W/m 11,1 C 12,3 C 20,9 km/h (4 Bft)
27.05.2022 13:56 15,7 C 20,0 C 72 % 1022,6 hPa 0,0 l/m 12,0 km/h (2 Bft) SW 230 2 min 3,7 UV-I 400 W/m 10,7 C 13,1 C 19,3 km/h (3 Bft)
27.05.2022 13:58 15,6 C 18,9 C 71 % 1022,5 hPa 0,0 l/m 11,6 km/h (2 Bft) W 262 2 min 3,1 UV-I 459 W/m 10,4 C 13,1 C 19,3 km/h (3 Bft)
27.05.2022 14:00 15,2 C 17,2 C 72 % 1022,6 hPa 0,0 l/m 13,5 km/h (3 Bft) W-SW 241 0 min 2,5 UV-I 282 W/m 10,2 C 11,9 C 19,3 km/h (3 Bft)
27.05.2022 14:02 15,0 C 17,2 C 73 % 1022,5 hPa 0,0 l/m 10,4 km/h (2 Bft) W-SW 256 2 min 3,3 UV-I 356 W/m 10,2 C 12,9 C 17,7 km/h (3 Bft)
27.05.2022 14:04 15,2 C 18,9 C 75 % 1022,5 hPa 0,0 l/m 13,1 km/h (3 Bft) W 259 2 min 5,2 UV-I 534 W/m 10,8 C 12,1 C 20,9 km/h (4 Bft)
27.05.2022 14:06 15,8 C 20,6 C 75 % 1022,5 hPa 0,0 l/m 10,9 km/h (2 Bft) W 275 2 min 4,4 UV-I 928 W/m 11,4 C 13,6 C 19,3 km/h (3 Bft)
27.05.2022 14:08 15,6 C 18,9 C 72 % 1022,6 hPa 0,0 l/m 16,5 km/h (3 Bft) W-SW 244 2 min 2,6 UV-I 423 W/m 10,6 C 11,5 C 22,5 km/h (4 Bft)
27.05.2022 14:10 15,3 C 17,8 C 72 % 1022,5 hPa 0,0 l/m 13,6 km/h (3 Bft) W-SW 246 0 min 1,7 UV-I 236 W/m 10,3 C 12,0 C 20,9 km/h (4 Bft)
27.05.2022 14:12 15,1 C 16,1 C 73 % 1022,6 hPa 0,0 l/m 17,3 km/h (3 Bft) W 273 0 min 1,1 UV-I 167 W/m 10,3 C 10,6 C 27,4 km/h (4 Bft)
27.05.2022 14:14 14,8 C 16,1 C 74 % 1022,5 hPa 0,0 l/m 9,3 km/h (2 Bft) W 259 0 min 0,9 UV-I 136 W/m 10,2 C 13,2 C 17,7 km/h (3 Bft)
27.05.2022 14:16 14,7 C 15,6 C 75 % 1022,6 hPa 0,0 l/m 9,7 km/h (2 Bft) W 273 0 min 0,6 UV-I 102 W/m 10,3 C 12,9 C 17,7 km/h (3 Bft)
27.05.2022 14:18 14,6 C 15,6 C 75 % 1022,6 hPa 0,0 l/m 7,9 km/h (2 Bft) W-NW 295 0 min 0,5 UV-I 97 W/m 10,2 C 13,7 C 17,7 km/h (3 Bft)
27.05.2022 14:20 14,4 C 15,6 C 75 % 1022,7 hPa 0,0 l/m 10,8 km/h (2 Bft) W 269 0 min 0,9 UV-I 140 W/m 10,0 C 12,1 C 17,7 km/h (3 Bft)
27.05.2022 14:22 14,3 C 15,6 C 75 % 1022,7 hPa 0,0 l/m 11,8 km/h (2 Bft) W 261 0 min 1,5 UV-I 193 W/m 9,9 C 11,5 C 22,5 km/h (4 Bft)
27.05.2022 14:24 14,4 C 16,7 C 74 % 1022,7 hPa 0,0 l/m 9,0 km/h (2 Bft) W-NW 290 2 min 3,7 UV-I 347 W/m 9,8 C 12,9 C 14,5 km/h (3 Bft)
27.05.2022 14:26 14,7 C 18,9 C 73 % 1022,7 hPa 0,0 l/m 7,2 km/h (2 Bft) S-SW 209 2 min 3,6 UV-I 380 W/m 9,9 C 14,2 C 12,9 km/h (3 Bft)
27.05.2022 14:28 14,9 C 20,0 C 73 % 1022,7 hPa 0,0 l/m 9,6 km/h (2 Bft) N-NW 327 2 min 4,4 UV-I 446 W/m 10,1 C 13,2 C 17,7 km/h (3 Bft)
27.05.2022 14:30 15,0 C 19,4 C 72 % 1022,6 hPa 0,0 l/m 6,2 km/h (2 Bft) NW 326 2 min 2,3 UV-I 385 W/m 10,0 C 15,0 C 12,9 km/h (3 Bft)
27.05.2022 14:32 14,8 C 17,2 C 72 % 1022,7 hPa 0,0 l/m 8,9 km/h (2 Bft) W 281 0 min 1,7 UV-I 203 W/m 9,8 C 13,4 C 19,3 km/h (3 Bft)
27.05.2022 14:34 14,6 C 16,7 C 73 % 1022,6 hPa 0,0 l/m 8,1 km/h (2 Bft) N-NW 342 0 min 1,9 UV-I 222 W/m 9,8 C 13,6 C 16,1 km/h (3 Bft)
27.05.2022 14:36 14,3 C 15,6 C 74 % 1022,7 hPa 0,0 l/m 5,1 km/h (1 Bft) SW 231 0 min 1,6 UV-I 180 W/m 9,7 C 14,3 C 11,3 km/h (2 Bft)
27.05.2022 14:38 14,3 C 15,0 C 75 % 1022,7 hPa 0,0 l/m 7,5 km/h (2 Bft) W-NW 294 0 min 1,1 UV-I 129 W/m 9,9 C 13,7 C 14,5 km/h (3 Bft)
27.05.2022 14:40 14,2 C 15,0 C 74 % 1022,7 hPa 0,0 l/m 12,8 km/h (3 Bft) W 262 0 min 0,9 UV-I 113 W/m 9,6 C 11,0 C 19,3 km/h (3 Bft)
27.05.2022 14:42 14,2 C 15,0 C 75 % 1022,7 hPa 0,0 l/m 12,0 km/h (2 Bft) W-SW 257 0 min 1,2 UV-I 158 W/m 9,8 C 11,4 C 20,9 km/h (4 Bft)
27.05.2022 14:44 14,2 C 15,0 C 75 % 1022,7 hPa 0,0 l/m 10,1 km/h (2 Bft) W-SW 253 0 min 2,3 UV-I 271 W/m 9,8 C 12,2 C 14,5 km/h (3 Bft)
27.05.2022 14:46 14,3 C 16,1 C 75 % 1022,7 hPa 0,0 l/m 11,8 km/h (2 Bft) W-NW 293 0 min 4,1 UV-I 336 W/m 9,9 C 11,5 C 19,3 km/h (3 Bft)
27.05.2022 14:48 14,9 C 19,4 C 76 % 1022,6 hPa 0,0 l/m 11,2 km/h (2 Bft) SW 234 2 min 6,3 UV-I 634 W/m 10,7 C 12,5 C 17,7 km/h (3 Bft)
27.05.2022 14:50 15,3 C 21,1 C 75 % 1022,6 hPa 0,0 l/m 6,9 km/h (2 Bft) SW 231 2 min 6,1 UV-I 886 W/m 10,9 C 15,0 C 12,9 km/h (3 Bft)
27.05.2022 14:52 15,8 C 22,8 C 74 % 1022,5 hPa 0,0 l/m 8,6 km/h (2 Bft) SW 233 2 min 6,3 UV-I 784 W/m 11,2 C 14,6 C 19,3 km/h (3 Bft)
27.05.2022 14:54 16,1 C 23,3 C 74 % 1022,4 hPa 0,0 l/m 4,9 km/h (1 Bft) W-SW 242 2 min 6,4 UV-I 758 W/m 11,5 C 16,1 C 11,3 km/h (2 Bft)
27.05.2022 14:56 16,1 C 22,2 C 72 % 1022,4 hPa 0,0 l/m 13,3 km/h (3 Bft) W-SW 251 2 min 6,3 UV-I 759 W/m 11,0 C 13,1 C 20,9 km/h (4 Bft)
27.05.2022 14:58 16,2 C 22,2 C 70 % 1022,5 hPa 0,0 l/m 16,5 km/h (3 Bft) W-SW 248 2 min 5,9 UV-I 896 W/m 10,7 C 12,2 C 24,1 km/h (4 Bft)
27.05.2022 15:00 16,0 C 20,0 C 69 % 1022,5 hPa 0,0 l/m 13,8 km/h (3 Bft) W 263 2 min 3,0 UV-I 532 W/m 10,3 C 12,8 C 20,9 km/h (4 Bft)
27.05.2022 15:02 16,0 C 21,1 C 72 % 1022,4 hPa 0,0 l/m 9,3 km/h (2 Bft) W 273 2 min 5,3 UV-I 622 W/m 11,0 C 14,5 C 17,7 km/h (3 Bft)
27.05.2022 15:04 15,9 C 19,4 C 67 % 1022,3 hPa 0,0 l/m 18,0 km/h (3 Bft) W-NW 283 2 min 4,1 UV-I 814 W/m 9,8 C 11,4 C 30,6 km/h (5 Bft)
27.05.2022 15:06 15,8 C 18,9 C 67 % 1022,5 hPa 0,0 l/m 18,5 km/h (3 Bft) W-SW 243 0 min 4,3 UV-I 340 W/m 9,7 C 11,2 C 30,6 km/h (5 Bft)
27.05.2022 15:08 16,2 C 21,1 C 68 % 1022,3 hPa 0,0 l/m 18,0 km/h (3 Bft) SW 229 2 min 5,5 UV-I 882 W/m 10,3 C 11,8 C 30,6 km/h (5 Bft)
27.05.2022 15:10 16,1 C 19,4 C 66 % 1022,4 hPa 0,0 l/m 19,0 km/h (3 Bft) W-NW 298 2 min 3,0 UV-I 638 W/m 9,7 C 11,4 C 33,8 km/h (5 Bft)
27.05.2022 15:12 16,1 C 19,4 C 66 % 1022,4 hPa 0,0 l/m 16,4 km/h (3 Bft) SW 223 0 min 5,5 UV-I 327 W/m 9,7 C 12,1 C 25,7 km/h (4 Bft)
27.05.2022 15:14 16,4 C 21,7 C 67 % 1022,4 hPa 0,0 l/m 16,6 km/h (3 Bft) W 261 2 min 6,2 UV-I 998 W/m 10,3 C 12,4 C 25,7 km/h (4 Bft)
27.05.2022 15:16 16,6 C 22,2 C 67 % 1022,4 hPa 0,0 l/m 14,9 km/h (3 Bft) W-NW 287 2 min 6,2 UV-I 1027 W/m 10,4 C 13,2 C 20,9 km/h (4 Bft)
27.05.2022 15:18 16,7 C 21,7 C 65 % 1022,4 hPa 0,0 l/m 14,0 km/h (3 Bft) W-SW 252 2 min 4,9 UV-I 1025 W/m 10,1 C 13,6 C 27,4 km/h (4 Bft)
27.05.2022 15:20 16,7 C 21,1 C 66 % 1022,3 hPa 0,0 l/m 17,5 km/h (3 Bft) W-SW 257 2 min 5,4 UV-I 1025 W/m 10,3 C 12,6 C 30,6 km/h (5 Bft)
27.05.2022 15:22 16,7 C 20,6 C 66 % 1022,3 hPa 0,0 l/m 14,9 km/h (3 Bft) W-SW 244 2 min 4,1 UV-I 1025 W/m 10,3 C 13,3 C 20,9 km/h (4 Bft)
27.05.2022 15:24 16,6 C 20,6 C 66 % 1022,2 hPa 0,0 l/m 19,4 km/h (3 Bft) W-SW 240 2 min 5,0 UV-I 1025 W/m 10,2 C 12,0 C 30,6 km/h (5 Bft)
27.05.2022 15:26 16,6 C 21,1 C 65 % 1022,2 hPa 0,0 l/m 13,1 km/h (3 Bft) SW 226 2 min 5,1 UV-I 985 W/m 10,0 C 13,7 C 25,7 km/h (4 Bft)
27.05.2022 15:28 16,8 C 22,2 C 66 % 1022,2 hPa 0,0 l/m 10,9 km/h (2 Bft) W 270 2 min 5,8 UV-I 870 W/m 10,4 C 14,8 C 19,3 km/h (3 Bft)
27.05.2022 15:30 17,1 C 23,3 C 66 % 1022,2 hPa 0,0 l/m 8,5 km/h (2 Bft) SW 221 2 min 4,7 UV-I 851 W/m 10,7 C 16,1 C 14,5 km/h (3 Bft)
27.05.2022 15:32 16,8 C 21,1 C 65 % 1022,2 hPa 0,0 l/m 11,2 km/h (2 Bft) W 277 2 min 2,8 UV-I 391 W/m 10,2 C 14,6 C 17,7 km/h (3 Bft)
27.05.2022 15:34 16,6 C 20,0 C 63 % 1022,2 hPa 0,0 l/m 17,2 km/h (3 Bft) NW 307 0 min 3,8 UV-I 267 W/m 9,5 C 12,5 C 25,7 km/h (4 Bft)
27.05.2022 15:36 16,2 C 18,9 C 61 % 1022,3 hPa 0,0 l/m 21,0 km/h (4 Bft) W-NW 283 0 min 3,7 UV-I 285 W/m 8,7 C 11,1 C 30,6 km/h (5 Bft)
27.05.2022 15:38 15,8 C 17,2 C 63 % 1022,2 hPa 0,0 l/m 13,7 km/h (3 Bft) W 273 0 min 2,4 UV-I 153 W/m 8,8 C 12,6 C 25,7 km/h (4 Bft)
27.05.2022 15:40 15,9 C 19,4 C 66 % 1022,2 hPa 0,0 l/m 11,9 km/h (2 Bft) W-SW 252 2 min 4,2 UV-I 500 W/m 9,6 C 13,3 C 20,9 km/h (4 Bft)
27.05.2022 15:42 16,3 C 22,2 C 66 % 1022,2 hPa 0,0 l/m 14,6 km/h (3 Bft) SW 233 2 min 5,4 UV-I 895 W/m 9,9 C 12,9 C 32,2 km/h (5 Bft)
27.05.2022 15:44 16,7 C 22,2 C 65 % 1022,1 hPa 0,0 l/m 19,5 km/h (3 Bft) W-NW 292 2 min 5,4 UV-I 842 W/m 10,1 C 12,1 C 33,8 km/h (5 Bft)
27.05.2022 15:46 16,8 C 21,7 C 62 % 1022,1 hPa 0,0 l/m 20,3 km/h (4 Bft) W 270 2 min 5,4 UV-I 798 W/m 9,5 C 12,0 C 30,6 km/h (5 Bft)
27.05.2022 15:48 16,8 C 22,2 C 64 % 1022,1 hPa 0,0 l/m 10,9 km/h (2 Bft) SW 214 2 min 4,9 UV-I 747 W/m 10,0 C 14,8 C 22,5 km/h (4 Bft)
27.05.2022 15:50 17,1 C 23,3 C 63 % 1022,1 hPa 0,0 l/m 12,8 km/h (3 Bft) SW 232 2 min 5,3 UV-I 758 W/m 10,0 C 14,4 C 27,4 km/h (4 Bft)
27.05.2022 15:52 17,2 C 23,3 C 62 % 1022,0 hPa 0,0 l/m 19,4 km/h (3 Bft) W 277 2 min 5,5 UV-I 873 W/m 9,9 C 12,7 C 27,4 km/h (4 Bft)
27.05.2022 15:54 16,9 C 22,2 C 61 % 1022,0 hPa 0,0 l/m 19,6 km/h (3 Bft) SW 221 2 min 4,8 UV-I 738 W/m 9,3 C 12,3 C 30,6 km/h (5 Bft)
27.05.2022 15:56 17,0 C 22,2 C 61 % 1022,1 hPa 0,0 l/m 21,0 km/h (4 Bft) W-SW 249 2 min 5,1 UV-I 725 W/m 9,4 C 12,1 C 35,4 km/h (5 Bft)
27.05.2022 15:58 17,1 C 23,3 C 62 % 1022,2 hPa 0,0 l/m 14,3 km/h (3 Bft) W-SW 238 2 min 5,2 UV-I 819 W/m 9,8 C 13,9 C 22,5 km/h (4 Bft)
27.05.2022 16:00 17,2 C 23,3 C 62 % 1022,2 hPa 0,0 l/m 14,5 km/h (3 Bft) SW 219 2 min 4,8 UV-I 797 W/m 9,9 C 14,0 C 24,1 km/h (4 Bft)
27.05.2022 16:02 17,4 C 23,3 C 61 % 1022,1 hPa 0,0 l/m 18,4 km/h (3 Bft) W-SW 246 2 min 4,8 UV-I 770 W/m 9,8 C 13,2 C 33,8 km/h (5 Bft)
27.05.2022 16:04 17,4 C 22,8 C 61 % 1022,1 hPa 0,0 l/m 14,0 km/h (3 Bft) W-SW 249 2 min 4,5 UV-I 714 W/m 9,8 C 14,4 C 27,4 km/h (4 Bft)
27.05.2022 16:06 17,2 C 23,3 C 60 % 1022,0 hPa 0,0 l/m 16,4 km/h (3 Bft) SW 232 2 min 4,8 UV-I 772 W/m 9,4 C 13,5 C 24,1 km/h (4 Bft)
27.05.2022 16:08 17,3 C 23,3 C 60 % 1022,0 hPa 0,0 l/m 18,7 km/h (3 Bft) W-SW 250 2 min 5,0 UV-I 811 W/m 9,5 C 13,0 C 29,0 km/h (5 Bft)
27.05.2022 16:10 17,3 C 23,3 C 61 % 1022,1 hPa 0,0 l/m 19,0 km/h (3 Bft) S 181 2 min 5,1 UV-I 889 W/m 9,7 C 12,9 C 33,8 km/h (5 Bft)
27.05.2022 16:12 17,4 C 23,3 C 59 % 1022,1 hPa 0,0 l/m 16,0 km/h (3 Bft) S-SW 198 2 min 5,0 UV-I 849 W/m 9,3 C 13,8 C 25,7 km/h (4 Bft)
27.05.2022 16:14 17,6 C 23,9 C 60 % 1022,0 hPa 0,0 l/m 17,8 km/h (3 Bft) W-NW 300 2 min 4,6 UV-I 810 W/m 9,7 C 13,6 C 30,6 km/h (5 Bft)
27.05.2022 16:16 17,5 C 22,8 C 58 % 1022,0 hPa 0,0 l/m 19,5 km/h (3 Bft) W-SW 251 2 min 4,4 UV-I 751 W/m 9,1 C 13,1 C 29,0 km/h (5 Bft)
27.05.2022 16:18 17,3 C 22,8 C 59 % 1022,0 hPa 0,0 l/m 14,1 km/h (3 Bft) W-NW 286 2 min 4,6 UV-I 751 W/m 9,2 C 14,2 C 27,4 km/h (4 Bft)
27.05.2022 16:20 17,4 C 23,3 C 60 % 1022,0 hPa 0,0 l/m 10,8 km/h (2 Bft) SW 219 2 min 4,2 UV-I 742 W/m 9,6 C 15,5 C 22,5 km/h (4 Bft)
27.05.2022 16:22 17,2 C 21,1 C 58 % 1022,0 hPa 0,0 l/m 18,5 km/h (3 Bft) W 276 2 min 3,5 UV-I 644 W/m 8,9 C 12,9 C 25,7 km/h (4 Bft)
27.05.2022 16:24 16,7 C 18,9 C 58 % 1022,0 hPa 0,0 l/m 17,8 km/h (3 Bft) SW 227 0 min 2,3 UV-I 192 W/m 8,4 C 12,5 C 29,0 km/h (5 Bft)
27.05.2022 16:26 16,4 C 17,8 C 60 % 1022,0 hPa 0,0 l/m 13,9 km/h (3 Bft) W-SW 238 0 min 2,4 UV-I 200 W/m 8,6 C 13,2 C 25,7 km/h (4 Bft)
27.05.2022 16:28 16,3 C 18,3 C 61 % 1022,1 hPa 0,0 l/m 15,9 km/h (3 Bft) S 190 2 min 3,4 UV-I 436 W/m 8,8 C 12,5 C 29,0 km/h (5 Bft)
27.05.2022 16:30 16,3 C 18,3 C 60 % 1022,0 hPa 0,0 l/m 18,7 km/h (3 Bft) W-NW 291 2 min 2,6 UV-I 582 W/m 8,5 C 11,7 C 30,6 km/h (5 Bft)
27.05.2022 16:32 16,2 C 18,3 C 61 % 1022,1 hPa 0,0 l/m 16,2 km/h (3 Bft) W-SW 241 2 min 3,4 UV-I 582 W/m 8,7 C 12,3 C 25,7 km/h (4 Bft)
27.05.2022 16:34 16,4 C 20,6 C 61 % 1022,1 hPa 0,0 l/m 16,5 km/h (3 Bft) SW 219 2 min 4,0 UV-I 613 W/m 8,9 C 12,5 C 24,1 km/h (4 Bft)
27.05.2022 16:36 16,5 C 20,6 C 60 % 1022,2 hPa 0,0 l/m 17,6 km/h (3 Bft) W-NW 286 2 min 3,1 UV-I 490 W/m 8,7 C 12,3 C 27,4 km/h (4 Bft)
27.05.2022 16:38 16,4 C 20,0 C 60 % 1022,0 hPa 0,0 l/m 17,6 km/h (3 Bft) W-SW 255 2 min 3,2 UV-I 379 W/m 8,6 C 12,2 C 30,6 km/h (5 Bft)
27.05.2022 16:40 16,6 C 21,7 C 59 % 1022,0 hPa 0,0 l/m 15,2 km/h (3 Bft) W-SW 238 2 min 3,7 UV-I 704 W/m 8,6 C 13,1 C 24,1 km/h (4 Bft)
27.05.2022 16:42 16,7 C 21,1 C 59 % 1022,0 hPa 0,0 l/m 15,3 km/h (3 Bft) W 270 2 min 2,6 UV-I 705 W/m 8,6 C 13,2 C 25,7 km/h (4 Bft)
27.05.2022 16:44 16,6 C 20,6 C 59 % 1022,1 hPa 0,0 l/m 17,2 km/h (3 Bft) W-NW 286 2 min 3,3 UV-I 705 W/m 8,6 C 12,5 C 29,0 km/h (5 Bft)
27.05.2022 16:46 16,4 C 20,6 C 60 % 1022,1 hPa 0,0 l/m 14,4 km/h (3 Bft) SW 215 0 min 3,0 UV-I 268 W/m 8,6 C 13,1 C 27,4 km/h (4 Bft)
27.05.2022 16:48 16,6 C 22,2 C 62 % 1022,2 hPa 0,0 l/m 12,6 km/h (3 Bft) SW 230 2 min 3,9 UV-I 729 W/m 9,3 C 13,9 C 27,4 km/h (4 Bft)
27.05.2022 16:50 16,7 C 21,7 C 59 % 1022,1 hPa 0,0 l/m 19,3 km/h (3 Bft) W-SW 253 2 min 2,6 UV-I 495 W/m 8,6 C 12,1 C 40,2 km/h (6 Bft)
27.05.2022 16:52 16,6 C 20,0 C 59 % 1022,2 hPa 0,0 l/m 16,8 km/h (3 Bft) W 279 0 min 3,4 UV-I 270 W/m 8,6 C 12,6 C 25,7 km/h (4 Bft)
27.05.2022 16:54 16,7 C 21,1 C 58 % 1022,1 hPa 0,0 l/m 17,4 km/h (3 Bft) W 280 2 min 3,6 UV-I 635 W/m 8,4 C 12,6 C 27,4 km/h (4 Bft)
27.05.2022 16:56 16,8 C 22,2 C 57 % 1022,2 hPa 0,0 l/m 16,6 km/h (3 Bft) W 275 2 min 3,8 UV-I 688 W/m 8,2 C 12,9 C 25,7 km/h (4 Bft)
27.05.2022 16:58 17,0 C 22,8 C 56 % 1022,2 hPa 0,0 l/m 15,8 km/h (3 Bft) W 268 2 min 3,7 UV-I 759 W/m 8,2 C 13,4 C 27,4 km/h (4 Bft)
27.05.2022 17:00 17,0 C 21,7 C 56 % 1022,2 hPa 0,0 l/m 15,3 km/h (3 Bft) W 275 2 min 3,0 UV-I 708 W/m 8,2 C 13,5 C 24,1 km/h (4 Bft)
27.05.2022 17:02 16,9 C 21,7 C 56 % 1022,1 hPa 0,0 l/m 12,0 km/h (2 Bft) W 280 2 min 3,2 UV-I 511 W/m 8,1 C 14,5 C 17,7 km/h (3 Bft)
27.05.2022 17:04 16,7 C 19,4 C 57 % 1022,2 hPa 0,0 l/m 11,3 km/h (2 Bft) W 272 0 min 1,9 UV-I 163 W/m 8,1 C 14,5 C 27,4 km/h (4 Bft)
27.05.2022 17:06 16,3 C 17,8 C 58 % 1022,1 hPa 0,0 l/m 13,0 km/h (3 Bft) W-NW 290 0 min 1,8 UV-I 137 W/m 8,0 C 13,4 C 19,3 km/h (3 Bft)
27.05.2022 17:08 15,9 C 17,2 C 58 % 1022,1 hPa 0,0 l/m 14,1 km/h (3 Bft) SW 226 0 min 1,8 UV-I 132 W/m 7,6 C 12,6 C 22,5 km/h (4 Bft)
27.05.2022 17:10 15,9 C 20,0 C 58 % 1022,1 hPa 0,0 l/m 15,7 km/h (3 Bft) W-SW 258 2 min 3,3 UV-I 454 W/m 7,6 C 12,1 C 29,0 km/h (5 Bft)
27.05.2022 17:12 16,3 C 21,1 C 58 % 1022,0 hPa 0,0 l/m 14,9 km/h (3 Bft) W 267 2 min 3,1 UV-I 738 W/m 8,0 C 12,8 C 20,9 km/h (4 Bft)
27.05.2022 17:14 16,6 C 22,8 C 58 % 1021,9 hPa 0,0 l/m 10,8 km/h (2 Bft) W 274 2 min 3,2 UV-I 749 W/m 8,3 C 14,6 C 16,1 km/h (3 Bft)
27.05.2022 17:16 17,0 C 23,9 C 58 % 1022,1 hPa 0,0 l/m 12,7 km/h (3 Bft) W 277 2 min 3,7 UV-I 734 W/m 8,7 C 14,3 C 17,7 km/h (3 Bft)
27.05.2022 17:18 17,2 C 23,9 C 56 % 1022,0 hPa 0,0 l/m 15,4 km/h (3 Bft) W 265 2 min 3,5 UV-I 692 W/m 8,3 C 13,7 C 30,6 km/h (5 Bft)
27.05.2022 17:20 17,1 C 23,9 C 55 % 1022,1 hPa 0,0 l/m 14,7 km/h (3 Bft) W-SW 254 2 min 3,4 UV-I 715 W/m 8,0 C 13,8 C 27,4 km/h (4 Bft)
27.05.2022 17:22 17,1 C 23,9 C 54 % 1022,1 hPa 0,0 l/m 13,6 km/h (3 Bft) S-SW 206 2 min 3,4 UV-I 724 W/m 7,7 C 14,2 C 25,7 km/h (4 Bft)
27.05.2022 17:24 17,0 C 22,2 C 55 % 1022,1 hPa 0,0 l/m 15,9 km/h (3 Bft) W 275 2 min 2,4 UV-I 519 W/m 7,9 C 13,4 C 27,4 km/h (4 Bft)
27.05.2022 17:26 16,6 C 19,4 C 55 % 1022,1 hPa 0,0 l/m 12,8 km/h (3 Bft) W-SW 245 0 min 1,7 UV-I 188 W/m 7,5 C 13,8 C 30,6 km/h (5 Bft)
27.05.2022 17:28 16,3 C 17,8 C 55 % 1022,1 hPa 0,0 l/m 11,7 km/h (2 Bft) W-SW 256 0 min 1,5 UV-I 179 W/m 7,2 C 13,9 C 24,1 km/h (4 Bft)
27.05.2022 17:30 16,0 C 17,2 C 56 % 1022,1 hPa 0,0 l/m 16,2 km/h (3 Bft) W-NW 284 0 min 1,4 UV-I 182 W/m 7,2 C 12,0 C 25,7 km/h (4 Bft)
27.05.2022 17:32 15,8 C 16,7 C 57 % 1022,2 hPa 0,0 l/m 13,1 km/h (3 Bft) W 259 0 min 1,4 UV-I 186 W/m 7,3 C 12,8 C 19,3 km/h (3 Bft)
27.05.2022 17:34 15,7 C 16,7 C 57 % 1022,2 hPa 0,0 l/m 14,0 km/h (3 Bft) W 269 0 min 1,5 UV-I 183 W/m 7,2 C 12,4 C 25,7 km/h (4 Bft)
27.05.2022 17:36 15,6 C 16,1 C 57 % 1022,2 hPa 0,0 l/m 17,2 km/h (3 Bft) W 273 0 min 1,4 UV-I 171 W/m 7,1 C 11,3 C 27,4 km/h (4 Bft)
27.05.2022 17:38 15,6 C 16,7 C 58 % 1022,2 hPa 0,0 l/m 9,0 km/h (2 Bft) W-NW 290 0 min 1,9 UV-I 192 W/m 7,4 C 14,2 C 20,9 km/h (4 Bft)
27.05.2022 17:40 15,6 C 16,7 C 58 % 1022,1 hPa 0,0 l/m 13,5 km/h (3 Bft) W-NW 298 0 min 1,6 UV-I 179 W/m 7,4 C 12,4 C 22,5 km/h (4 Bft)
27.05.2022 17:42 15,6 C 17,8 C 57 % 1022,2 hPa 0,0 l/m 19,2 km/h (3 Bft) S 186 0 min 1,6 UV-I 193 W/m 7,1 C 10,7 C 24,1 km/h (4 Bft)
27.05.2022 17:44 15,6 C 17,2 C 57 % 1022,2 hPa 0,0 l/m 14,3 km/h (3 Bft) W 265 0 min 1,5 UV-I 215 W/m 7,1 C 12,1 C 22,5 km/h (4 Bft)
27.05.2022 17:46 15,4 C 16,7 C 58 % 1022,1 hPa 0,0 l/m 14,6 km/h (3 Bft) W-SW 240 0 min 1,5 UV-I 198 W/m 7,2 C 11,8 C 22,5 km/h (4 Bft)
27.05.2022 17:48 15,5 C 17,2 C 59 % 1022,2 hPa 0,0 l/m 9,1 km/h (2 Bft) W 273 0 min 2,4 UV-I 272 W/m 7,5 C 14,1 C 17,7 km/h (3 Bft)
27.05.2022 17:50 15,7 C 20,0 C 59 % 1022,2 hPa 0,0 l/m 13,3 km/h (3 Bft) W-NW 290 2 min 2,7 UV-I 574 W/m 7,7 C 12,6 C 19,3 km/h (3 Bft)
27.05.2022 17:52 15,7 C 17,8 C 58 % 1022,2 hPa 0,0 l/m 14,1 km/h (3 Bft) W 278 0 min 1,5 UV-I 292 W/m 7,5 C 12,3 C 24,1 km/h (4 Bft)
27.05.2022 17:54 15,6 C 17,2 C 59 % 1022,3 hPa 0,0 l/m 14,5 km/h (3 Bft) W-SW 258 0 min 1,7 UV-I 121 W/m 7,6 C 12,1 C 29,0 km/h (5 Bft)
27.05.2022 17:56 15,7 C 20,0 C 57 % 1022,2 hPa 0,0 l/m 13,6 km/h (3 Bft) W 268 2 min 2,6 UV-I 601 W/m 7,2 C 12,5 C 22,5 km/h (4 Bft)
27.05.2022 17:58 15,9 C 21,1 C 57 % 1022,2 hPa 0,0 l/m 21,3 km/h (4 Bft) W 267 2 min 2,6 UV-I 608 W/m 7,4 C 10,6 C 29,0 km/h (5 Bft)
27.05.2022 18:00 16,2 C 21,7 C 58 % 1022,1 hPa 0,0 l/m 12,2 km/h (2 Bft) W-SW 254 2 min 2,5 UV-I 607 W/m 7,9 C 13,6 C 20,9 km/h (4 Bft)
27.05.2022 18:02 16,4 C 22,2 C 56 % 1022,2 hPa 0,0 l/m 14,4 km/h (3 Bft) W 260 2 min 2,4 UV-I 601 W/m 7,6 C 13,1 C 20,9 km/h (4 Bft)
27.05.2022 18:04 16,6 C 22,8 C 56 % 1022,1 hPa 0,0 l/m 13,6 km/h (3 Bft) W 263 2 min 2,4 UV-I 586 W/m 7,8 C 13,6 C 25,7 km/h (4 Bft)
27.05.2022 18:06 16,7 C 22,8 C 57 % 1022,1 hPa 0,0 l/m 13,3 km/h (3 Bft) W-SW 252 2 min 2,4 UV-I 547 W/m 8,1 C 13,8 C 22,5 km/h (4 Bft)
27.05.2022 18:08 16,6 C 22,2 C 57 % 1022,1 hPa 0,0 l/m 12,7 km/h (3 Bft) W 272 2 min 2,3 UV-I 490 W/m 8,0 C 13,9 C 19,3 km/h (3 Bft)
27.05.2022 18:10 16,6 C 22,2 C 58 % 1022,1 hPa 0,0 l/m 11,6 km/h (2 Bft) W-SW 250 2 min 2,3 UV-I 507 W/m 8,3 C 14,3 C 20,9 km/h (4 Bft)
27.05.2022 18:12 16,6 C 23,3 C 58 % 1022,2 hPa 0,0 l/m 7,0 km/h (2 Bft) W-NW 288 2 min 2,3 UV-I 517 W/m 8,3 C 16,3 C 17,7 km/h (3 Bft)
27.05.2022 18:14 16,7 C 23,3 C 59 % 1022,1 hPa 0,0 l/m 6,1 km/h (2 Bft) NW 319 2 min 2,2 UV-I 476 W/m 8,6 C 16,7 C 12,9 km/h (3 Bft)
27.05.2022 18:16 16,4 C 21,7 C 56 % 1022,1 hPa 0,0 l/m 10,3 km/h (2 Bft) SW 217 2 min 1,7 UV-I 459 W/m 7,6 C 14,5 C 20,9 km/h (4 Bft)
27.05.2022 18:18 16,0 C 18,9 C 57 % 1022,0 hPa 0,0 l/m 10,6 km/h (2 Bft) W-SW 240 0 min 1,2 UV-I 156 W/m 7,5 C 14,0 C 17,7 km/h (3 Bft)
27.05.2022 18:20 15,6 C 17,2 C 57 % 1022,0 hPa 0,0 l/m 15,9 km/h (3 Bft) W 275 0 min 1,2 UV-I 132 W/m 7,1 C 11,6 C 25,7 km/h (4 Bft)
27.05.2022 18:22 15,3 C 17,2 C 56 % 1022,1 hPa 0,0 l/m 16,0 km/h (3 Bft) W 269 0 min 1,5 UV-I 213 W/m 6,6 C 11,2 C 25,7 km/h (4 Bft)
27.05.2022 18:24 15,3 C 17,8 C 58 % 1022,1 hPa 0,0 l/m 7,8 km/h (2 Bft) W 275 0 min 1,7 UV-I 231 W/m 7,1 C 14,5 C 16,1 km/h (3 Bft)
27.05.2022 18:26 15,4 C 17,2 C 58 % 1022,1 hPa 0,0 l/m 10,1 km/h (2 Bft) W 265 0 min 1,4 UV-I 199 W/m 7,2 C 13,5 C 19,3 km/h (3 Bft)
27.05.2022 18:28 15,4 C 17,2 C 59 % 1022,0 hPa 0,0 l/m 9,1 km/h (2 Bft) W-SW 256 0 min 1,7 UV-I 309 W/m 7,4 C 14,0 C 16,1 km/h (3 Bft)
27.05.2022 18:30 15,7 C 17,8 C 59 % 1022,0 hPa 0,0 l/m 7,9 km/h (2 Bft) SW 234 2 min 1,8 UV-I 467 W/m 7,7 C 14,9 C 14,5 km/h (3 Bft)
27.05.2022 18:32 15,8 C 17,8 C 58 % 1022,2 hPa 0,0 l/m 16,8 km/h (3 Bft) W-SW 251 2 min 1,6 UV-I 373 W/m 7,6 C 11,6 C 30,6 km/h (5 Bft)
27.05.2022 18:34 15,8 C 17,8 C 57 % 1022,3 hPa 0,0 l/m 15,7 km/h (3 Bft) SW 227 2 min 1,6 UV-I 373 W/m 7,3 C 11,9 C 20,9 km/h (4 Bft)
27.05.2022 18:36 15,8 C 17,2 C 57 % 1022,3 hPa 0,0 l/m 15,3 km/h (3 Bft) W 279 2 min 1,6 UV-I 400 W/m 7,3 C 12,1 C 25,7 km/h (4 Bft)
27.05.2022 18:38 15,7 C 17,2 C 57 % 1022,2 hPa 0,0 l/m 11,3 km/h (2 Bft) W 265 2 min 1,3 UV-I 368 W/m 7,2 C 13,3 C 16,1 km/h (3 Bft)
27.05.2022 18:40 15,4 C 16,1 C 58 % 1022,4 hPa 0,0 l/m 9,1 km/h (2 Bft) SW 229 0 min 1,0 UV-I 97 W/m 7,2 C 14,0 C 24,1 km/h (4 Bft)
27.05.2022 18:42 15,1 C 15,6 C 58 % 1022,4 hPa 0,0 l/m 12,6 km/h (3 Bft) W-NW 287 0 min 0,9 UV-I 85 W/m 6,9 C 12,2 C 22,5 km/h (4 Bft)
27.05.2022 18:44 14,8 C 15,0 C 59 % 1022,5 hPa 0,0 l/m 8,9 km/h (2 Bft) W-SW 250 0 min 0,8 UV-I 84 W/m 6,9 C 13,4 C 14,5 km/h (3 Bft)
27.05.2022 18:46 14,6 C 15,0 C 60 % 1022,4 hPa 0,0 l/m 11,5 km/h (2 Bft) W 259 0 min 0,9 UV-I 129 W/m 6,9 C 12,0 C 17,7 km/h (3 Bft)
27.05.2022 18:48 14,8 C 16,1 C 62 % 1022,4 hPa 0,0 l/m 2,9 km/h (1 Bft) W-SW 249 0 min 1,4 UV-I 311 W/m 7,6 C 14,8 C 12,9 km/h (3 Bft)
27.05.2022 18:50 15,1 C 17,8 C 61 % 1022,4 hPa 0,0 l/m 2,9 km/h (1 Bft) W 262 2 min 1,5 UV-I 433 W/m 7,6 C 15,1 C 6,4 km/h (2 Bft)
27.05.2022 18:52 15,2 C 18,9 C 61 % 1022,4 hPa 0,0 l/m 7,2 km/h (2 Bft) W 275 2 min 1,5 UV-I 424 W/m 7,7 C 14,8 C 14,5 km/h (3 Bft)
27.05.2022 18:54 15,3 C 19,4 C 60 % 1022,3 hPa 0,0 l/m 9,9 km/h (2 Bft) W 263 2 min 1,5 UV-I 414 W/m 7,6 C 13,5 C 16,1 km/h (3 Bft)
27.05.2022 18:56 15,4 C 19,4 C 59 % 1022,4 hPa 0,0 l/m 9,5 km/h (2 Bft) W 259 2 min 1,4 UV-I 396 W/m 7,4 C 13,8 C 20,9 km/h (4 Bft)
27.05.2022 18:58 15,6 C 20,0 C 59 % 1022,3 hPa 0,0 l/m 9,3 km/h (2 Bft) W-SW 244 2 min 1,4 UV-I 382 W/m 7,6 C 14,1 C 16,1 km/h (3 Bft)
27.05.2022 19:00 15,6 C 20,6 C 59 % 1022,4 hPa 0,0 l/m 10,1 km/h (2 Bft) SW 234 2 min 1,3 UV-I 354 W/m 7,6 C 13,7 C 24,1 km/h (4 Bft)
27.05.2022 19:02 15,4 C 20,6 C 59 % 1022,4 hPa 0,0 l/m 10,0 km/h (2 Bft) W-SW 246 0 min 1,2 UV-I 331 W/m 7,4 C 13,6 C 19,3 km/h (3 Bft)
27.05.2022 19:04 15,2 C 18,9 C 59 % 1022,4 hPa 0,0 l/m 12,6 km/h (3 Bft) SW 232 0 min 1,1 UV-I 327 W/m 7,2 C 12,3 C 20,9 km/h (4 Bft)
27.05.2022 19:06 15,1 C 18,9 C 59 % 1022,4 hPa 0,0 l/m 10,0 km/h (2 Bft) W-NW 292 0 min 1,1 UV-I 273 W/m 7,1 C 13,2 C 17,7 km/h (3 Bft)
27.05.2022 19:08 15,0 C 20,0 C 60 % 1022,4 hPa 0,0 l/m 10,0 km/h (2 Bft) W 273 0 min 1,2 UV-I 309 W/m 7,3 C 13,1 C 17,7 km/h (3 Bft)
27.05.2022 19:10 14,9 C 20,0 C 60 % 1022,5 hPa 0,0 l/m 12,8 km/h (3 Bft) W-SW 254 0 min 1,1 UV-I 300 W/m 7,2 C 11,8 C 24,1 km/h (4 Bft)
27.05.2022 19:12 14,9 C 18,3 C 60 % 1022,5 hPa 0,0 l/m 13,4 km/h (3 Bft) W-NW 297 0 min 1,1 UV-I 293 W/m 7,2 C 11,6 C 20,9 km/h (4 Bft)
27.05.2022 19:14 14,7 C 18,9 C 60 % 1022,4 hPa 0,0 l/m 10,6 km/h (2 Bft) W-NW 298 0 min 1,0 UV-I 300 W/m 7,0 C 12,5 C 16,1 km/h (3 Bft)
27.05.2022 19:16 14,6 C 19,4 C 61 % 1022,5 hPa 0,0 l/m 8,9 km/h (2 Bft) NW 304 0 min 1,0 UV-I 254 W/m 7,2 C 13,2 C 19,3 km/h (3 Bft)
27.05.2022 19:18 14,5 C 18,9 C 61 % 1022,6 hPa 0,0 l/m 6,3 km/h (2 Bft) S 184 0 min 0,9 UV-I 235 W/m 7,1 C 14,5 C 11,3 km/h (2 Bft)
27.05.2022 19:20 14,4 C 18,9 C 62 % 1022,5 hPa 0,0 l/m 7,7 km/h (2 Bft) W-NW 286 0 min 1,0 UV-I 296 W/m 7,2 C 13,6 C 17,7 km/h (3 Bft)
27.05.2022 19:22 14,5 C 20,6 C 63 % 1022,5 hPa 0,0 l/m 5,3 km/h (1 Bft) W 274 0 min 1,0 UV-I 302 W/m 7,5 C 14,5 C 11,3 km/h (2 Bft)
27.05.2022 19:24 14,6 C 20,6 C 62 % 1022,5 hPa 0,0 l/m 4,3 km/h (1 Bft) W-SW 253 0 min 1,0 UV-I 310 W/m 7,4 C 14,6 C 11,3 km/h (2 Bft)
27.05.2022 19:26 14,6 C 19,4 C 62 % 1022,6 hPa 0,0 l/m 7,2 km/h (2 Bft) NW 317 0 min 0,9 UV-I 279 W/m 7,4 C 14,1 C 16,1 km/h (3 Bft)
27.05.2022 19:28 14,4 C 17,2 C 63 % 1022,5 hPa 0,0 l/m 10,4 km/h (2 Bft) W-NW 298 0 min 0,7 UV-I 194 W/m 7,4 C 12,3 C 17,7 km/h (3 Bft)
27.05.2022 19:30 14,3 C 16,7 C 63 % 1022,6 hPa 0,0 l/m 4,2 km/h (1 Bft) W-NW 284 0 min 0,9 UV-I 199 W/m 7,4 C 14,3 C 12,9 km/h (3 Bft)
27.05.2022 19:32 14,3 C 16,7 C 64 % 1022,5 hPa 0,0 l/m 7,0 km/h (2 Bft) S 191 0 min 0,9 UV-I 298 W/m 7,6 C 13,9 C 12,9 km/h (3 Bft)
27.05.2022 19:34 14,4 C 17,8 C 64 % 1022,6 hPa 0,0 l/m 6,7 km/h (2 Bft) N-NW 344 0 min 0,8 UV-I 277 W/m 7,7 C 14,2 C 24,1 km/h (4 Bft)
27.05.2022 19:36 14,3 C 17,8 C 62 % 1022,5 hPa 0,0 l/m 10,4 km/h (2 Bft) W 265 0 min 0,8 UV-I 245 W/m 7,1 C 12,2 C 19,3 km/h (3 Bft)
27.05.2022 19:38 14,2 C 17,8 C 62 % 1022,6 hPa 0,0 l/m 12,8 km/h (3 Bft) W 263 0 min 0,7 UV-I 215 W/m 7,0 C 11,0 C 22,5 km/h (4 Bft)
27.05.2022 19:40 14,1 C 17,2 C 63 % 1022,7 hPa 0,0 l/m 9,2 km/h (2 Bft) S-SW 198 0 min 0,7 UV-I 214 W/m 7,2 C 12,5 C 19,3 km/h (3 Bft)
27.05.2022 19:42 13,9 C 17,8 C 63 % 1022,6 hPa 0,0 l/m 6,0 km/h (2 Bft) SW 220 0 min 0,7 UV-I 209 W/m 7,0 C 13,9 C 14,5 km/h (3 Bft)
27.05.2022 19:44 13,8 C 17,8 C 64 % 1022,6 hPa 0,0 l/m 9,0 km/h (2 Bft) SW 236 0 min 0,7 UV-I 202 W/m 7,1 C 12,3 C 19,3 km/h (3 Bft)
27.05.2022 19:46 13,8 C 17,8 C 64 % 1022,7 hPa 0,0 l/m 5,7 km/h (1 Bft) W 262 0 min 0,6 UV-I 194 W/m 7,1 C 13,8 C 12,9 km/h (3 Bft)
27.05.2022 19:48 13,7 C 15,6 C 64 % 1022,7 hPa 0,0 l/m 9,1 km/h (2 Bft) W 274 0 min 0,0 UV-I 50 W/m 7,0 C 12,1 C 16,1 km/h (3 Bft)
27.05.2022 19:50 13,5 C 14,4 C 64 % 1022,6 hPa 0,0 l/m 4,8 km/h (1 Bft) SW 223 0 min 0,3 UV-I 83 W/m 6,8 C 13,5 C 9,7 km/h (2 Bft)
27.05.2022 19:52 13,4 C 15,0 C 65 % 1022,7 hPa 0,0 l/m 6,9 km/h (2 Bft) W-NW 300 0 min 0,6 UV-I 140 W/m 7,0 C 13,1 C 12,9 km/h (3 Bft)
27.05.2022 19:54 13,4 C 16,1 C 65 % 1022,6 hPa 0,0 l/m 3,4 km/h (1 Bft) NW 321 0 min 0,6 UV-I 184 W/m 7,0 C 13,4 C 12,9 km/h (3 Bft)
27.05.2022 19:56 13,4 C 16,1 C 65 % 1022,6 hPa 0,0 l/m 6,2 km/h (2 Bft) W 259 0 min 0,6 UV-I 181 W/m 7,0 C 13,4 C 14,5 km/h (3 Bft)
27.05.2022 19:58 13,4 C 16,1 C 65 % 1022,6 hPa 0,0 l/m 11,7 km/h (2 Bft) N 350 0 min 0,5 UV-I 171 W/m 7,0 C 10,6 C 25,7 km/h (4 Bft)
27.05.2022 20:00 13,3 C 16,1 C 65 % 1022,7 hPa 0,0 l/m 7,7 km/h (2 Bft) NW 321 0 min 0,5 UV-I 156 W/m 6,9 C 12,5 C 16,1 km/h (3 Bft)
27.05.2022 20:02 13,3 C 15,0 C 66 % 1022,7 hPa 0,0 l/m 9,2 km/h (2 Bft) W 269 0 min 0,5 UV-I 125 W/m 7,1 C 11,7 C 16,1 km/h (3 Bft)
27.05.2022 20:04 13,2 C 13,9 C 65 % 1022,7 hPa 0,0 l/m 5,0 km/h (1 Bft) W-SW 258 0 min 0,1 UV-I 107 W/m 6,8 C 13,2 C 9,7 km/h (2 Bft)
27.05.2022 20:06 13,2 C 13,3 C 65 % 1022,8 hPa 0,0 l/m 5,2 km/h (1 Bft) SW 225 0 min 0,0 UV-I 124 W/m 6,8 C 13,2 C 12,9 km/h (3 Bft)
27.05.2022 20:08 13,1 C 12,8 C 66 % 1022,8 hPa 0,0 l/m 5,0 km/h (1 Bft) NW 304 0 min 0,0 UV-I 120 W/m 6,9 C 13,1 C 9,7 km/h (2 Bft)
27.05.2022 20:10 13,0 C 12,8 C 66 % 1022,8 hPa 0,0 l/m 5,9 km/h (2 Bft) W-NW 293 0 min 0,0 UV-I 112 W/m 6,8 C 13,0 C 12,9 km/h (3 Bft)
27.05.2022 20:12 12,9 C 12,2 C 66 % 1022,8 hPa 0,0 l/m 6,8 km/h (2 Bft) NW 322 0 min 0,0 UV-I 71 W/m 6,7 C 12,7 C 11,3 km/h (2 Bft)
27.05.2022 20:14 12,8 C 12,2 C 66 % 1022,8 hPa 0,0 l/m 5,0 km/h (1 Bft) W-NW 300 0 min 0,0 UV-I 74 W/m 6,6 C 12,8 C 12,9 km/h (3 Bft)
27.05.2022 20:16 12,8 C 12,2 C 66 % 1022,9 hPa 0,0 l/m 9,3 km/h (2 Bft) W 261 0 min 0,0 UV-I 70 W/m 6,6 C 11,1 C 17,7 km/h (3 Bft)
27.05.2022 20:18 12,7 C 12,2 C 66 % 1022,9 hPa 0,0 l/m 5,7 km/h (1 Bft) SW 223 0 min 0,0 UV-I 92 W/m 6,5 C 12,7 C 11,3 km/h (2 Bft)
27.05.2022 20:20 12,7 C 12,2 C 66 % 1022,8 hPa 0,0 l/m 5,9 km/h (2 Bft) W-SW 252 0 min 0,0 UV-I 93 W/m 6,5 C 12,7 C 12,9 km/h (3 Bft)
27.05.2022 20:22 12,7 C 11,7 C 66 % 1022,8 hPa 0,0 l/m 8,2 km/h (2 Bft) W-NW 301 0 min 0,0 UV-I 80 W/m 6,5 C 11,6 C 17,7 km/h (3 Bft)
27.05.2022 20:24 12,7 C 11,7 C 66 % 1022,9 hPa 0,0 l/m 7,5 km/h (2 Bft) W 274 0 min 0,0 UV-I 54 W/m 6,5 C 12,0 C 16,1 km/h (3 Bft)
27.05.2022 20:26 12,6 C 11,7 C 66 % 1022,9 hPa 0,0 l/m 2,4 km/h (1 Bft) W 280 0 min 0,0 UV-I 38 W/m 6,4 C 12,6 C 4,8 km/h (1 Bft)
27.05.2022 20:28 12,5 C 11,7 C 66 % 1022,9 hPa 0,0 l/m 3,2 km/h (1 Bft) W 266 0 min 0,0 UV-I 32 W/m 6,3 C 12,5 C 11,3 km/h (2 Bft)
27.05.2022 20:30 12,4 C 11,7 C 66 % 1022,9 hPa 0,0 l/m 8,7 km/h (2 Bft) W 271 0 min 0,0 UV-I 32 W/m 6,2 C 11,0 C 17,7 km/h (3 Bft)
27.05.2022 20:32 12,3 C 11,1 C 67 % 1023,0 hPa 0,0 l/m 3,4 km/h (1 Bft) W 278 0 min 0,0 UV-I 30 W/m 6,4 C 12,3 C 11,3 km/h (2 Bft)
27.05.2022 20:34 12,2 C 11,1 C 67 % 1023,0 hPa 0,0 l/m 4,5 km/h (1 Bft) W-SW 238 0 min 0,0 UV-I 29 W/m 6,3 C 12,2 C 8,0 km/h (2 Bft)
27.05.2022 20:36 12,1 C 11,1 C 67 % 1023,0 hPa 0,0 l/m 4,7 km/h (1 Bft) W-NW 300 0 min 0,0 UV-I 28 W/m 6,2 C 12,1 C 16,1 km/h (3 Bft)
27.05.2022 20:38 12,1 C 11,1 C 67 % 1023,0 hPa 0,0 l/m 7,2 km/h (2 Bft) SW 217 0 min 0,0 UV-I 26 W/m 6,2 C 11,6 C 17,7 km/h (3 Bft)
27.05.2022 20:40 12,1 C 11,1 C 67 % 1023,0 hPa 0,0 l/m 5,1 km/h (1 Bft) W-NW 291 0 min 0,0 UV-I 26 W/m 6,2 C 12,1 C 9,7 km/h (2 Bft)
27.05.2022 20:42 12,0 C 11,1 C 67 % 1023,0 hPa 0,0 l/m 3,8 km/h (1 Bft) W-SW 243 0 min 0,0 UV-I 25 W/m 6,1 C 12,0 C 9,7 km/h (2 Bft)
27.05.2022 20:44 11,9 C 11,1 C 67 % 1023,0 hPa 0,0 l/m 3,3 km/h (1 Bft) W-NW 284 0 min 0,0 UV-I 25 W/m 6,0 C 11,9 C 4,8 km/h (1 Bft)
27.05.2022 20:46 11,8 C 10,6 C 67 % 1023,0 hPa 0,0 l/m 4,0 km/h (1 Bft) W-SW 257 0 min 0,0 UV-I 24 W/m 5,9 C 11,8 C 11,3 km/h (2 Bft)
27.05.2022 20:48 11,8 C 10,6 C 67 % 1023,1 hPa 0,0 l/m 3,6 km/h (1 Bft) W-NW 294 0 min 0,0 UV-I 23 W/m 5,9 C 11,8 C 9,7 km/h (2 Bft)
27.05.2022 20:50 11,7 C 10,6 C 68 % 1023,0 hPa 0,0 l/m 4,1 km/h (1 Bft) NW 306 0 min 0,0 UV-I 23 W/m 6,0 C 11,7 C 8,0 km/h (2 Bft)
27.05.2022 20:52 11,7 C 10,6 C 68 % 1023,0 hPa 0,0 l/m 4,5 km/h (1 Bft) W 278 0 min 0,0 UV-I 23 W/m 6,0 C 11,7 C 14,5 km/h (3 Bft)
27.05.2022 20:54 11,6 C 10,6 C 67 % 1023,1 hPa 0,0 l/m 6,9 km/h (2 Bft) W-SW 248 0 min 0,0 UV-I 21 W/m 5,7 C 11,3 C 17,7 km/h (3 Bft)
27.05.2022 20:56 11,6 C 10,6 C 67 % 1023,1 hPa 0,0 l/m 8,2 km/h (2 Bft) W 261 0 min 0,0 UV-I 19 W/m 5,7 C 10,4 C 12,9 km/h (3 Bft)
27.05.2022 20:58 11,6 C 10,6 C 67 % 1023,2 hPa 0,0 l/m 2,2 km/h (1 Bft) W 264 0 min 0,0 UV-I 18 W/m 5,7 C 11,6 C 4,8 km/h (1 Bft)
27.05.2022 21:00 11,4 C 10,0 C 68 % 1023,2 hPa 0,0 l/m 3,0 km/h (1 Bft) W-SW 248 0 min 0,0 UV-I 16 W/m 5,7 C 11,4 C 6,4 km/h (2 Bft)
27.05.2022 21:02 11,4 C 10,0 C 68 % 1023,1 hPa 0,0 l/m 5,3 km/h (1 Bft) W-NW 293 0 min 0,0 UV-I 16 W/m 5,7 C 11,4 C 11,3 km/h (2 Bft)
27.05.2022 21:04 11,3 C 10,0 C 68 % 1023,2 hPa 0,0 l/m 6,7 km/h (2 Bft) W 275 0 min 0,0 UV-I 14 W/m 5,6 C 11,1 C 11,3 km/h (2 Bft)
27.05.2022 21:06 11,2 C 10,0 C 68 % 1023,2 hPa 0,0 l/m 3,0 km/h (1 Bft) W-NW 298 0 min 0,0 UV-I 13 W/m 5,5 C 11,2 C 6,4 km/h (2 Bft)
27.05.2022 21:08 11,2 C 9,4 C 68 % 1023,2 hPa 0,0 l/m 2,2 km/h (1 Bft) W-NW 293 0 min 0,0 UV-I 12 W/m 5,5 C 11,2 C 6,4 km/h (2 Bft)
27.05.2022 21:10 11,0 C 9,4 C 69 % 1023,2 hPa 0,0 l/m 1,7 km/h (1 Bft) W-NW 286 0 min 0,0 UV-I 11 W/m 5,5 C 11,0 C 4,8 km/h (1 Bft)
27.05.2022 21:12 10,8 C 8,9 C 70 % 1023,3 hPa 0,0 l/m 0,6 km/h (0 Bft) W-NW 286 0 min 0,0 UV-I 11 W/m 5,6 C 10,8 C 3,2 km/h (1 Bft)
27.05.2022 21:14 10,8 C 8,3 C 70 % 1023,3 hPa 0,0 l/m 0,3 km/h (0 Bft) W-NW 286 0 min 0,0 UV-I 9 W/m 5,6 C 10,8 C 3,2 km/h (1 Bft)
27.05.2022 21:16 10,7 C 8,3 C 70 % 1023,3 hPa 0,0 l/m 0,7 km/h (0 Bft) W-NW 297 0 min 0,0 UV-I 9 W/m 5,5 C 10,7 C 3,2 km/h (1 Bft)
27.05.2022 21:18 10,6 C 8,3 C 71 % 1023,3 hPa 0,0 l/m 2,4 km/h (1 Bft) W-NW 296 0 min 0,0 UV-I 7 W/m 5,6 C 10,6 C 4,8 km/h (1 Bft)
27.05.2022 21:20 10,6 C 8,3 C 71 % 1023,3 hPa 0,0 l/m 1,7 km/h (1 Bft) W-NW 295 0 min 0,0 UV-I 7 W/m 5,6 C 10,6 C 3,2 km/h (1 Bft)
27.05.2022 21:22 10,4 C 8,3 C 71 % 1023,4 hPa 0,0 l/m 2,9 km/h (1 Bft) W-NW 291 0 min 0,0 UV-I 7 W/m 5,4 C 10,4 C 6,4 km/h (2 Bft)
27.05.2022 21:24 10,4 C 8,3 C 71 % 1023,4 hPa 0,0 l/m 2,1 km/h (1 Bft) W-NW 302 0 min 0,0 UV-I 5 W/m 5,4 C 10,4 C 4,8 km/h (1 Bft)
27.05.2022 21:26 10,3 C 8,3 C 71 % 1023,4 hPa 0,0 l/m 1,2 km/h (1 Bft) W-NW 301 0 min 0,0 UV-I 5 W/m 5,3 C 10,3 C 4,8 km/h (1 Bft)
27.05.2022 21:28 10,3 C 8,3 C 71 % 1023,4 hPa 0,0 l/m 4,7 km/h (1 Bft) NW 305 0 min 0,0 UV-I 5 W/m 5,3 C 10,3 C 12,9 km/h (3 Bft)
27.05.2022 21:30 10,3 C 8,3 C 70 % 1023,4 hPa 0,0 l/m 4,9 km/h (1 Bft) W-SW 255 0 min 0,0 UV-I 1 W/m 5,1 C 10,3 C 8,0 km/h (2 Bft)
27.05.2022 21:32 10,3 C 8,3 C 69 % 1023,4 hPa 0,0 l/m 3,6 km/h (1 Bft) W 261 0 min 0,0 UV-I 0 W/m 4,9 C 10,3 C 11,3 km/h (2 Bft)
27.05.2022 21:34 10,4 C 8,3 C 68 % 1023,5 hPa 0,0 l/m 2,4 km/h (1 Bft) SW 227 0 min 0,0 UV-I 0 W/m 4,8 C 10,4 C 4,8 km/h (1 Bft)
27.05.2022 21:36 10,4 C 8,3 C 68 % 1023,5 hPa 0,0 l/m 2,4 km/h (1 Bft) SW 236 0 min 0,0 UV-I 0 W/m 4,8 C 10,4 C 4,8 km/h (1 Bft)
27.05.2022 21:38 10,3 C 7,8 C 68 % 1023,4 hPa 0,0 l/m 2,0 km/h (1 Bft) SW 234 0 min 0,0 UV-I 0 W/m 4,7 C 10,3 C 4,8 km/h (1 Bft)
27.05.2022 21:40 10,1 C 7,8 C 69 % 1023,5 hPa 0,0 l/m 1,8 km/h (1 Bft) SW 234 0 min 0,0 UV-I 0 W/m 4,7 C 10,1 C 3,2 km/h (1 Bft)
27.05.2022 21:42 10,1 C 7,8 C 69 % 1023,4 hPa 0,0 l/m 2,8 km/h (1 Bft) W-NW 287 0 min 0,0 UV-I 0 W/m 4,7 C 10,1 C 8,0 km/h (2 Bft)
27.05.2022 21:44 10,0 C 7,8 C 69 % 1023,4 hPa 0,0 l/m 2,4 km/h (1 Bft) W-NW 286 0 min 0,0 UV-I 0 W/m 4,6 C 10,0 C 4,8 km/h (1 Bft)
27.05.2022 21:46 9,9 C 7,8 C 69 % 1023,5 hPa 0,0 l/m 2,0 km/h (1 Bft) W-NW 285 0 min 0,0 UV-I 0 W/m 4,5 C 9,9 C 3,2 km/h (1 Bft)
27.05.2022 21:48 9,8 C 7,2 C 70 % 1023,6 hPa 0,0 l/m 2,3 km/h (1 Bft) W-NW 284 0 min 0,0 UV-I 0 W/m 4,6 C 9,8 C 4,8 km/h (1 Bft)
27.05.2022 21:50 9,7 C 7,2 C 70 % 1023,6 hPa 0,0 l/m 2,1 km/h (1 Bft) W-NW 284 0 min 0,0 UV-I 0 W/m 4,5 C 9,7 C 4,8 km/h (1 Bft)
27.05.2022 21:52 9,6 C 7,2 C 70 % 1023,5 hPa 0,0 l/m 1,8 km/h (1 Bft) W-NW 284 0 min 0,0 UV-I 0 W/m 4,4 C 9,6 C 3,2 km/h (1 Bft)
27.05.2022 21:54 9,4 C 6,7 C 71 % 1023,6 hPa 0,0 l/m 2,2 km/h (1 Bft) W-NW 284 0 min 0,0 UV-I 0 W/m 4,4 C 9,4 C 4,8 km/h (1 Bft)
27.05.2022 21:56 9,3 C 6,7 C 71 % 1023,7 hPa 0,0 l/m 1,5 km/h (1 Bft) W-NW 284 0 min 0,0 UV-I 0 W/m 4,3 C 9,3 C 4,8 km/h (1 Bft)
27.05.2022 21:58 9,3 C 6,1 C 71 % 1023,7 hPa 0,0 l/m 1,7 km/h (1 Bft) W-NW 284 0 min 0,0 UV-I 0 W/m 4,3 C 9,3 C 3,2 km/h (1 Bft)
27.05.2022 22:00 9,2 C 6,1 C 72 % 1023,7 hPa 0,0 l/m 1,9 km/h (1 Bft) W-NW 284 0 min 0,0 UV-I 0 W/m 4,4 C 9,2 C 3,2 km/h (1 Bft)
27.05.2022 22:02 9,1 C 6,1 C 72 % 1023,8 hPa 0,0 l/m 2,1 km/h (1 Bft) W-NW 284 0 min 0,0 UV-I 0 W/m 4,3 C 9,1 C 3,2 km/h (1 Bft)
27.05.2022 22:04 8,9 C 6,1 C 72 % 1023,7 hPa 0,0 l/m 2,4 km/h (1 Bft) W-NW 284 0 min 0,0 UV-I 0 W/m 4,1 C 8,9 C 4,8 km/h (1 Bft)
27.05.2022 22:06 8,8 C 6,1 C 73 % 1023,7 hPa 0,0 l/m 2,8 km/h (1 Bft) W-SW 256 0 min 0,0 UV-I 0 W/m 4,2 C 8,8 C 6,4 km/h (2 Bft)
27.05.2022 22:08 8,7 C 6,1 C 73 % 1023,7 hPa 0,0 l/m 2,0 km/h (1 Bft) W-SW 256 0 min 0,0 UV-I 0 W/m 4,1 C 8,7 C 4,8 km/h (1 Bft)
27.05.2022 22:10 8,6 C 5,6 C 74 % 1023,9 hPa 0,0 l/m 2,5 km/h (1 Bft) W-SW 256 0 min 0,0 UV-I 0 W/m 4,2 C 8,6 C 4,8 km/h (1 Bft)
27.05.2022 22:12 8,5 C 5,6 C 74 % 1023,8 hPa 0,0 l/m 2,5 km/h (1 Bft) W-SW 255 0 min 0,0 UV-I 0 W/m 4,1 C 8,5 C 4,8 km/h (1 Bft)
27.05.2022 22:14 8,4 C 5,6 C 74 % 1023,8 hPa 0,0 l/m 1,6 km/h (1 Bft) W 264 0 min 0,0 UV-I 0 W/m 4,0 C 8,4 C 4,8 km/h (1 Bft)
27.05.2022 22:16 8,3 C 5,6 C 74 % 1023,8 hPa 0,0 l/m 0,1 km/h (0 Bft) W 264 0 min 0,0 UV-I 0 W/m 3,9 C 8,3 C 1,6 km/h (1 Bft)
27.05.2022 22:18 8,3 C 5,6 C 74 % 1023,8 hPa 0,0 l/m 2,2 km/h (1 Bft) N 5 0 min 0,0 UV-I 0 W/m 3,9 C 8,3 C 9,7 km/h (2 Bft)
27.05.2022 22:20 8,3 C 5,6 C 74 % 1023,9 hPa 0,0 l/m 2,8 km/h (1 Bft) N-NW 336 0 min 0,0 UV-I 0 W/m 3,9 C 8,3 C 6,4 km/h (2 Bft)
27.05.2022 22:22 8,3 C 6,1 C 74 % 1023,9 hPa 0,0 l/m 2,0 km/h (1 Bft) N-NW 342 0 min 0,0 UV-I 0 W/m 3,9 C 8,3 C 8,0 km/h (2 Bft)
27.05.2022 22:24 8,3 C 6,1 C 74 % 1023,8 hPa 0,0 l/m 3,1 km/h (1 Bft) NW 308 0 min 0,0 UV-I 0 W/m 3,9 C 8,3 C 6,4 km/h (2 Bft)
27.05.2022 22:26 8,3 C 6,1 C 74 % 1023,9 hPa 0,0 l/m 3,5 km/h (1 Bft) W-NW 296 0 min 0,0 UV-I 0 W/m 3,9 C 8,3 C 6,4 km/h (2 Bft)
27.05.2022 22:28 8,3 C 6,1 C 73 % 1023,9 hPa 0,0 l/m 3,3 km/h (1 Bft) NW 325 0 min 0,0 UV-I 0 W/m 3,8 C 8,3 C 6,4 km/h (2 Bft)
27.05.2022 22:30 8,3 C 6,1 C 74 % 1024,0 hPa 0,0 l/m 3,8 km/h (1 Bft) W 281 0 min 0,0 UV-I 0 W/m 3,9 C 8,3 C 6,4 km/h (2 Bft)
27.05.2022 22:32 8,2 C 6,1 C 73 % 1024,0 hPa 0,0 l/m 1,7 km/h (1 Bft) W 281 0 min 0,0 UV-I 0 W/m 3,7 C 8,2 C 3,2 km/h (1 Bft)
27.05.2022 22:34 8,2 C 6,1 C 74 % 1024,0 hPa 0,0 l/m 3,6 km/h (1 Bft) W 267 0 min 0,0 UV-I 0 W/m 3,8 C 8,2 C 4,8 km/h (1 Bft)
27.05.2022 22:36 8,1 C 6,1 C 74 % 1024,0 hPa 0,0 l/m 3,3 km/h (1 Bft) W-SW 244 0 min 0,0 UV-I 0 W/m 3,8 C 8,1 C 8,0 km/h (2 Bft)
27.05.2022 22:38 8,1 C 6,1 C 74 % 1024,1 hPa 0,0 l/m 1,7 km/h (1 Bft) W-SW 244 0 min 0,0 UV-I 0 W/m 3,8 C 8,1 C 3,2 km/h (1 Bft)
27.05.2022 22:40 7,9 C 5,6 C 74 % 1024,1 hPa 0,0 l/m 2,5 km/h (1 Bft) NW 306 0 min 0,0 UV-I 0 W/m 3,6 C 7,9 C 8,0 km/h (2 Bft)
27.05.2022 22:42 8,1 C 6,1 C 74 % 1024,1 hPa 0,0 l/m 6,0 km/h (2 Bft) W 280 0 min 0,0 UV-I 0 W/m 3,8 C 8,1 C 14,5 km/h (3 Bft)
27.05.2022 22:44 8,2 C 6,1 C 74 % 1024,1 hPa 0,0 l/m 3,2 km/h (1 Bft) W-NW 301 0 min 0,0 UV-I 0 W/m 3,8 C 8,2 C 6,4 km/h (2 Bft)
27.05.2022 22:46 8,1 C 6,1 C 74 % 1024,0 hPa 0,0 l/m 2,9 km/h (1 Bft) W-NW 300 0 min 0,0 UV-I 0 W/m 3,8 C 8,1 C 4,8 km/h (1 Bft)
27.05.2022 22:48 7,8 C 5,6 C 74 % 1024,1 hPa 0,0 l/m 1,8 km/h (1 Bft) W-NW 300 0 min 0,0 UV-I 0 W/m 3,5 C 7,8 C 4,8 km/h (1 Bft)
27.05.2022 22:50 7,8 C 5,6 C 75 % 1024,1 hPa 0,0 l/m 0,1 km/h (0 Bft) W-NW 300 0 min 0,0 UV-I 0 W/m 3,7 C 7,8 C 1,6 km/h (1 Bft)
27.05.2022 22:52 7,7 C 5,0 C 75 % 1024,1 hPa 0,0 l/m 0,9 km/h (0 Bft) W-NW 300 0 min 0,0 UV-I 0 W/m 3,6 C 7,7 C 3,2 km/h (1 Bft)
27.05.2022 22:54 7,6 C 5,0 C 75 % 1024,1 hPa 0,0 l/m 0,8 km/h (0 Bft) W-NW 300 0 min 0,0 UV-I 0 W/m 3,5 C 7,6 C 3,2 km/h (1 Bft)
27.05.2022 22:56 7,4 C 4,4 C 76 % 1024,1 hPa 0,0 l/m 2,7 km/h (1 Bft) W 277 0 min 0,0 UV-I 0 W/m 3,5 C 7,4 C 4,8 km/h (1 Bft)
27.05.2022 22:58 7,6 C 5,0 C 76 % 1024,0 hPa 0,0 l/m 1,5 km/h (1 Bft) W 277 0 min 0,0 UV-I 0 W/m 3,6 C 7,6 C 4,8 km/h (1 Bft)
27.05.2022 23:00 7,5 C 5,0 C 76 % 1024,2 hPa 0,0 l/m 1,5 km/h (1 Bft) W 277 0 min 0,0 UV-I 0 W/m 3,5 C 7,5 C 3,2 km/h (1 Bft)
27.05.2022 23:02 7,4 C 5,0 C 76 % 1024,1 hPa 0,0 l/m 2,4 km/h (1 Bft) W 277 0 min 0,0 UV-I 0 W/m 3,5 C 7,4 C 4,8 km/h (1 Bft)
27.05.2022 23:04 7,3 C 4,4 C 76 % 1024,1 hPa 0,0 l/m 2,8 km/h (1 Bft) W 280 0 min 0,0 UV-I 0 W/m 3,4 C 7,3 C 4,8 km/h (1 Bft)
27.05.2022 23:06 7,3 C 4,4 C 77 % 1024,1 hPa 0,0 l/m 1,5 km/h (1 Bft) W 280 0 min 0,0 UV-I 0 W/m 3,5 C 7,3 C 4,8 km/h (1 Bft)
27.05.2022 23:08 7,4 C 4,4 C 76 % 1024,1 hPa 0,0 l/m 4,1 km/h (1 Bft) NW 316 0 min 0,0 UV-I 0 W/m 3,5 C 7,4 C 8,0 km/h (2 Bft)
27.05.2022 23:10 7,5 C 5,0 C 75 % 1024,1 hPa 0,0 l/m 3,1 km/h (1 Bft) W 275 0 min 0,0 UV-I 0 W/m 3,4 C 7,5 C 6,4 km/h (2 Bft)
27.05.2022 23:12 7,5 C 5,0 C 76 % 1024,1 hPa 0,0 l/m 1,4 km/h (1 Bft) W 275 0 min 0,0 UV-I 0 W/m 3,5 C 7,5 C 3,2 km/h (1 Bft)
27.05.2022 23:14 7,4 C 4,4 C 76 % 1024,0 hPa 0,0 l/m 4,7 km/h (1 Bft) W-NW 298 0 min 0,0 UV-I 0 W/m 3,5 C 7,4 C 12,9 km/h (3 Bft)
27.05.2022 23:16 7,4 C 5,0 C 76 % 1024,1 hPa 0,0 l/m 3,1 km/h (1 Bft) W-NW 294 0 min 0,0 UV-I 0 W/m 3,5 C 7,4 C 6,4 km/h (2 Bft)
27.05.2022 23:18 7,3 C 5,6 C 76 % 1024,0 hPa 0,0 l/m 5,0 km/h (1 Bft) W 281 0 min 0,0 UV-I 0 W/m 3,4 C 7,3 C 14,5 km/h (3 Bft)
27.05.2022 23:20 7,4 C 5,6 C 76 % 1024,1 hPa 0,0 l/m 2,0 km/h (1 Bft) W 281 0 min 0,0 UV-I 0 W/m 3,5 C 7,4 C 3,2 km/h (1 Bft)
27.05.2022 23:22 7,3 C 5,0 C 76 % 1024,1 hPa 0,0 l/m 2,5 km/h (1 Bft) N-NW 331 0 min 0,0 UV-I 0 W/m 3,4 C 7,3 C 4,8 km/h (1 Bft)
27.05.2022 23:24 7,3 C 5,0 C 76 % 1024,1 hPa 0,0 l/m 2,9 km/h (1 Bft) NW 323 0 min 0,0 UV-I 0 W/m 3,4 C 7,3 C 4,8 km/h (1 Bft)
27.05.2022 23:26 7,3 C 5,0 C 76 % 1024,1 hPa 0,0 l/m 1,4 km/h (1 Bft) NW 323 0 min 0,0 UV-I 0 W/m 3,4 C 7,3 C 3,2 km/h (1 Bft)
27.05.2022 23:28 7,2 C 4,4 C 76 % 1024,2 hPa 0,0 l/m 0,0 km/h (0 Bft) NW 313 0 min 0,0 UV-I 0 W/m 3,3 C 7,2 C 1,6 km/h (1 Bft)
27.05.2022 23:30 7,1 C 4,4 C 77 % 1024,1 hPa 0,0 l/m 1,8 km/h (1 Bft) W-NW 291 0 min 0,0 UV-I 0 W/m 3,3 C 7,1 C 4,8 km/h (1 Bft)
27.05.2022 23:32 7,1 C 4,4 C 77 % 1024,1 hPa 0,0 l/m 2,2 km/h (1 Bft) O-NO 58 0 min 0,0 UV-I 0 W/m 3,3 C 7,1 C 3,2 km/h (1 Bft)
27.05.2022 23:34 7,0 C 4,4 C 77 % 1024,1 hPa 0,0 l/m 3,2 km/h (1 Bft) SW 220 0 min 0,0 UV-I 0 W/m 3,2 C 7,0 C 4,8 km/h (1 Bft)
27.05.2022 23:36 7,0 C 5,0 C 77 % 1024,1 hPa 0,0 l/m 2,1 km/h (1 Bft) SW 220 0 min 0,0 UV-I 0 W/m 3,2 C 7,0 C 3,2 km/h (1 Bft)
27.05.2022 23:38 6,9 C 4,4 C 77 % 1024,1 hPa 0,0 l/m 1,2 km/h (1 Bft) SW 220 0 min 0,0 UV-I 0 W/m 3,2 C 6,9 C 3,2 km/h (1 Bft)
27.05.2022 23:40 6,9 C 4,4 C 78 % 1024,1 hPa 0,0 l/m 1,3 km/h (1 Bft) SW 220 0 min 0,0 UV-I 0 W/m 3,3 C 6,9 C 4,8 km/h (1 Bft)
27.05.2022 23:42 6,7 C 3,9 C 78 % 1024,1 hPa 0,0 l/m 0,4 km/h (0 Bft) SW 220 0 min 0,0 UV-I 0 W/m 3,1 C 6,7 C 1,6 km/h (1 Bft)
27.05.2022 23:44 6,7 C 3,9 C 78 % 1024,1 hPa 0,0 l/m 0,1 km/h (0 Bft) SW 220 0 min 0,0 UV-I 0 W/m 3,1 C 6,7 C 1,6 km/h (1 Bft)
27.05.2022 23:46 6,6 C 3,9 C 78 % 1024,1 hPa 0,0 l/m 1,7 km/h (1 Bft) W-SW 246 0 min 0,0 UV-I 0 W/m 3,0 C 6,6 C 4,8 km/h (1 Bft)
27.05.2022 23:48 6,6 C 3,9 C 78 % 1024,2 hPa 0,0 l/m 2,1 km/h (1 Bft) W-SW 246 0 min 0,0 UV-I 0 W/m 3,0 C 6,6 C 4,8 km/h (1 Bft)
27.05.2022 23:50 6,7 C 3,9 C 78 % 1024,2 hPa 0,0 l/m 0,5 km/h (0 Bft) W-SW 246 0 min 0,0 UV-I 0 W/m 3,1 C 6,7 C 1,6 km/h (1 Bft)
27.05.2022 23:52 6,6 C 3,9 C 78 % 1024,2 hPa 0,0 l/m 2,5 km/h (1 Bft) W-SW 255 0 min 0,0 UV-I 0 W/m 3,0 C 6,6 C 4,8 km/h (1 Bft)
27.05.2022 23:54 6,6 C 3,9 C 78 % 1024,2 hPa 0,0 l/m 1,2 km/h (1 Bft) W-SW 255 0 min 0,0 UV-I 0 W/m 3,0 C 6,6 C 3,2 km/h (1 Bft)
27.05.2022 23:56 6,5 C 3,9 C 78 % 1024,2 hPa 0,0 l/m 2,8 km/h (1 Bft) W-SW 255 0 min 0,0 UV-I 0 W/m 2,9 C 6,5 C 4,8 km/h (1 Bft)
27.05.2022 23:58 6,4 C 3,9 C 79 % 1024,1 hPa 0,0 l/m 3,6 km/h (1 Bft) W-SW 253 0 min 0,0 UV-I 0 W/m 3,0 C 6,4 C 6,4 km/h (2 Bft)
27.05.2022 23:59 6,4 C 3,9 C 79 % 1024,1 hPa 0,0 l/m 3,2 km/h (1 Bft) W-SW 247 0 min 0,0 UV-I 0 W/m 3,0 C 6,4 C 4,8 km/h (1 Bft)
_ Min-Zeit 23:58 23:42 17:22 08:01 - 23:28 - - - - - 23:56 04:32 22:16
Minimum _ 6,4 C 3,9 C 54 % 1021,7 hPa - 0,0 km/h (0 Bft) - - - - - 2,9 C 4,5 C 1,6 km/h (1 Bft)
_ Max-Zeit 16:14 16:14 07:25 23:00 06:47 17:58 - - 10:40 13:30 13:54 13:50 18:14 16:50
Maximum _ 17,6 C 23,9 C 92 % 1024,2 hPa 0,2 l/m 21,3 km/h
W (4 Bft)
- - 2 min 6,5 UV-I 1036 W/m 11,5 C 16,7 C 40,2 km/h
W (6 Bft)
Durchschnitt _ 12,5 C 13,3 C 78 % 1022,6 hPa #1,0 l/m 9,9 km/h (2 Bft) SW - #5:04 h 2,6 UV-I 312 W/m 8,6 C 10,4 C 16,7 km/h (3 Bft)